     2              OBSERVATION DATA    GPS                 RINEX VERSION / TYPE
ASHTORIN MIT 23 - DEC - 96 16:09                            PGM / RUN BY / DATE
                                                            COMMENT
CL96 Ashtech Z12 post EQ survey                             COMMENT
Original Marker Name: GS19                                  COMMENT
Campaign Name: China Lake Nov 1996                          COMMENT
4-Character Station Name: GS19                              COMMENT
6-Character Antenna Code: ASHP12                            COMMENT
Vertical Measurement Point: TGP                             COMMENT
Vertical Offset to Rinex Ref. Point: 0.0640                 COMMENT
Radial Measurement Point: OOH                               COMMENT
Radial Offset to Rinex Ref. Point: 0.1318                   COMMENT
Antenna Height from Field Measurement: 1.0360 m             COMMENT
Additional Antenna Identification Info.:                    COMMENT
Ashtech L1/L2 Revision B (700228DE)                         COMMENT
Original XYZ: -2445734.4800 -4624494.3400 3637786.5200      COMMENT
New XYZ position is based on association with SCEC monument COMMENT
E1F4D6R5+0011. Position of that monument is believed to be  COMMENT
valid to within 1 m horizontally; vertical accuracy         COMMENT
should be no worse than 3-times this value.                 COMMENT
                                                            COMMENT
Revised Rinex header created by UCSD GPS archive for        COMMENT
GSAC on 01-Aug-2000 (2000:214) 04:26:47 GMT                 COMMENT
For assistance contact dagnew@ucsd.edu                      COMMENT
or anderson@python.ucsd.edu                                 COMMENT
                                                            COMMENT
SNORT A 1950                                                MARKER NAME
gs19                                                        MARKER NUMBER
RES US NATIONAL IMAGERY MAPPING AGENCY                      OBSERVER / AGENCY
434 ASHTECH Z-XII3 1G001C7                                  REC # / TYPE / VERS
103 ASHTECH GEODETIC P                                      ANT # / TYPE
 -2415084.7300 -4592334.8302  3697983.7270                  APPROX POSITION XYZ
        0.9636        0.0000        0.0000                  ANTENNA: DELTA H/E/N
     1     1     0                                          WAVELENGTH FACT L1/2
     7    L1    L2    C1    P1    P2    D1    D2            # / TYPES OF OBSERV
    30                                                      INTERVAL
  1996    12    12    16    30   30.000000                  TIME OF FIRST OBS
  1996    12    12    22    31   60.000000                  TIME OF LAST OBS
                                                            END OF HEADER
 96 12 12 16 30 30.0000000  0  8  1 29  3 31 25 23 21 15             0.000404918
    202407.563 9    151783.86449  21283845.951    21283847.4434   21283852.8674
     -1354.725       -1055.630
   -432502.565 9   -326812.00546  24101483.616    24101485.7694   24101492.2414
      3258.008        2538.707
    287824.442 8    208340.62545  25077960.671    25077964.9535   25077973.9294
     -2417.389       -1883.680
    280610.306 9     71942.42756  24153261.191           0.0005   24153269.8965
     -1918.282       -1494.765
   -405907.719 9   -304347.21048  21644519.107    21644520.1564   21644525.8294
      2752.127        2144.515
    275093.415 8    200332.14456  24851592.221    24851596.2724   24851603.3295
     -1923.119       -1498.534
    164006.253 9    123063.85148  21870789.929    21870790.6744   21870796.0654
     -1145.670        -892.730
   -437614.595 9   -321009.81248  21843575.918    21843576.9184   21843582.6904
      3036.702        2366.261
 96 12 12 16 31  0.0000000  0  9  1 29  3 31 25 23 21 14 15          0.000394715
    243181.598 9    183555.82149  21291605.322    21291606.5634   21291611.8814
     -1363.764       -1062.673
   -530141.733 9   -402894.43146  24082903.331    24082905.7094   24082912.0174
      3250.908        2533.175
    360286.87818    264804.91155  25091750.355    25091756.1325   25091759.4215
     -2414.314       -1881.284
    338263.422 9    116866.85146  24164232.611    24164234.8125   24164241.0464
     -1925.527       -1500.411
   -488250.707 9   -368510.54848  21628849.426    21628850.8234   21628856.4764
      2737.133        2132.831
    332867.387 8    245350.73946  24862587.677    24862590.5125   24862597.8984
     -1928.866       -1503.012
    198517.676 9    149955.83448  21877357.061    21877358.0454   21877363.3884
     -1155.322        -900.251
   -249970.28019   -175797.44355  25266294.369           0.0005   25266304.0665
      3304.404        2574.860
   -528495.750 9   -391826.29048  21826281.384    21826282.8274   21826288.5384
      3021.762        2354.620
 96 12 12 16 31 30.0000000  0  9  1 29  3 31 25 23 21 14 15          0.000384519
    284232.633 9    215543.63049  21299417.034    21299418.3644   21299423.6294
     -1373.013       -1069.880
   -627550.366 9   -478797.20047  24064367.395    24064369.5664   24064375.8624
      3242.969        2526.989
    432676.710 8    321212.54745  25105526.856    25105528.8095   25105538.5094
     -2411.636       -1879.197
    396137.242 9    161963.24946  24175245.638    24175247.4284   24175253.8734
     -1932.794       -1506.073
   -570130.689 9   -432313.09648  21613268.031    21613269.5634   21613275.1994
      2721.556        2120.693
    390833.546 8    290519.11646  24873619.213    24873621.8334   24873628.3154
     -1935.281       -1508.011
    233322.259 9    177076.25448  21883980.055    21883981.1934   21883986.4854
     -1164.900        -907.714
   -349098.202 9   -253040.00856  25247433.068    25247434.7845   25247441.9615
      3304.191        2574.694
   -618918.416 9   -462285.50348  21809074.413    21809075.9324   21809081.6344
      3006.355        2342.614
 96 12 12 16 32  0.0000000  0  9  1 29  3 31 25 23 21 14 15          0.000374325
    325579.256 9    247761.76649  21307284.999    21307286.4154   21307291.5984
     -1382.908       -1077.591
   -724701.516 9   -554499.34647  24045880.303    24045882.3414   24045888.5744
      3234.203        2520.158
    505008.983 8    377575.10545  25119291.985    25119294.7144   25119304.0894
     -2410.116       -1878.012
    454245.568 9    207242.37646  24186303.558    24186305.0774   24186311.4974
     -1940.684       -1512.221
   -651531.657 9   -495742.39648  21597777.730    21597779.4484   21597785.0814
      2705.561        2108.229
    448997.167 9    335841.35046  24884688.122    24884690.2134   24884696.6734
     -1941.623       -1512.953
    268416.860 9    204422.66148  21890658.430    21890659.5494   21890664.8694
     -1174.278        -915.022
   -448209.713 8   -330269.78546  25228573.017    25228574.8755   25228581.1924
      3303.908        2574.474
   -708860.081 9   -532369.91448  21791959.042    21791960.5894   21791966.2354
      2990.189        2330.017
 96 12 12 16 32 30.0000000  0  9  1 29  3 31 25 23 21 14 15          0.000364148
    367228.567 9    280215.76749  21315210.534    21315212.0064   21315217.1464
     -1393.776       -1086.059
   -821566.287 9   -629978.32247  24027447.516    24027449.6154   24027455.7834
      3223.061        2511.476
    577313.113 8    433915.80645  25133051.402    25133053.9144   25133063.0244
     -2410.356       -1878.199
    512601.454 9    252714.39746  24197408.329    24197409.8174   24197416.2764
     -1949.976       -1519.462
   -732442.084 9   -558789.45348  21582380.877    21582382.7004   21582388.3434
      2688.362        2094.828
    507351.469 9    381312.17246  24895792.536    24895794.5784   24895801.3764
     -1948.846       -1518.581
    303812.070 9    232003.31348  21897393.877    21897395.0944   21897400.5484
     -1185.790        -923.992
   -547306.024 8   -407487.66846  25209715.067    25209717.3574   25209723.8764
      3302.131        2573.089
   -798303.444 9   -602066.03248  21774938.454    21774940.0664   21774945.6834
      2972.413        2316.166
 96 12 12 16 33  0.0000000  0  9  1 29  3 31 25 23 21 14 15          0.000354044
    409175.642 9    312901.79648  21323192.710    21323194.2744   21323199.4084
     -1403.434       -1093.585
   -918111.448 9   -705208.25247  24009075.640    24009077.6304   24009083.8294
      3212.742        2503.435
    649606.269 8    490247.97245  25146808.037    25146810.8134   25146820.0714
     -2409.846       -1877.802
    571214.186 9    298386.57846  24208561.886    24208563.4654   24208569.9534
     -1958.294       -1525.943
   -812856.698 9   -621450.16448  21567078.413    21567080.3344   21567085.9374
      2671.896        2081.997
    565894.091 8    426929.73846  24906933.127    24906934.9394   24906941.9474
     -1954.593       -1523.059
    339543.299 9    259845.80148  21904193.261    21904194.5624   21904200.1554
     -1197.025        -932.747
   -646366.306 8   -484677.46446  25190864.483    25190866.6884   25190873.4154
      3301.190        2572.356
   -887233.006 9   -671361.79148  21758015.703    21758017.3064   21758022.9234
      2955.490        2302.979
 96 12 12 16 33 30.0000000  0  9  1 29  3 31 25 23 21 14 15          0.000344022
    451420.101 9    345819.54848  21331231.543    21331233.1234   21331238.2714
     -1413.212       -1101.204
  -1014342.238 9   -780193.22347  23990763.426    23990765.4494   23990771.6404
      3202.471        2495.432
    721888.284 8    546571.50045  25160563.175    25160565.7944   25160574.7714
     -2409.058       -1877.188
    630086.775 9    344261.23846  24219765.099    24219766.5354   24219773.0814
     -1966.893       -1532.644
   -892766.041 9   -683717.15948  21551872.212    21551874.1334   21551879.7034
      2655.139        2068.939
    624614.806 8    472686.07046  24918107.361    24918109.1894   24918116.4094
     -1960.345       -1527.542
    375628.412 9    287964.02648  21911060.050    21911061.3764   21911067.1154
     -1208.933        -942.026
   -745389.252 8   -561838.18746  25172021.063    25172023.2554   25172030.0294
      3300.070        2571.483
   -975638.856 9   -740249.46148  21741192.680    21741194.2234   21741199.8584
      2937.974        2289.330
 96 12 12 16 34  0.0000000  0  9  1 29  3 31 25 23 21 14 15          0.000334096
    493979.250 9    378982.51948  21339330.233    21339331.8574   21339337.0604
     -1423.850       -1109.494
  -1110252.826 9   -854928.68447  23972512.152    23972514.2004   23972520.3934
      3191.881        2487.180
    794146.088 8    602876.14245  25174313.769    25174316.0154   25174325.2574
     -2407.585       -1876.040
    689236.326 9    390351.71346  24231020.719    24231022.3154   24231028.9974
     -1976.244       -1539.930
   -972157.718 9   -745580.77748  21536764.523    21536766.4214   21536771.9534
      2637.822        2055.446
    683522.343 8    518587.96546  24929317.220    24929318.9914   24929326.4074
     -1966.742       -1532.526
    412087.966 9    316374.03348  21917998.185    21917999.4964   21918005.3184
     -1221.491        -951.811
   -844365.203 8   -638962.27046  25153186.689    25153188.8574   25153195.7004
      3298.556        2570.303
  -1063504.983 9   -808716.57548  21724472.356    21724473.9034   21724479.4494
      2920.019        2275.339
 96 12 12 16 34 30.0000000  0  9  1 29  3 31 25 23 21 14 15          0.000324277
    536867.739 9    412402.11648  21347491.673    21347493.2704   21347498.5084
     -1434.774       -1118.006
  -1205842.369 9   -929413.99347  23954321.935    23954324.0454   23954330.2304
      3181.423        2479.031
    866356.858 8    659144.12045  25188055.557    25188057.3554   25188066.6664
     -2405.658       -1874.539
    748675.556 9    436667.91246  24242331.725    24242333.2834   24242340.0604
     -1985.758       -1547.344
  -1051015.982 9   -807028.75748  21521758.201    21521760.1754   21521765.7104
      2620.017        2041.572
    742636.173 8    564650.64445  24940566.277    24940567.9304   24940575.6854
     -1973.773       -1538.005
    448938.828 9    345088.95048  21925010.711    21925012.0884   21925017.9524
     -1234.688        -962.095
   -943276.546 8   -716036.03546  25134364.703    25134366.6134   25134373.6154
      3296.071        2568.367
  -1150824.887 9   -876758.06048  21707855.940    21707857.5084   21707863.0054
      2901.860        2261.190
 96 12 12 16 35  0.0000000  0  9  1 29  3 31 25 23 21 14 15          0.000314550
    580084.946 9    446077.86148  21355715.637    21355717.2344   21355722.4854
     -1446.189       -1126.900
  -1301140.127 9  -1003671.94946  23936187.478    23936189.4374   23936195.6614
      3172.286        2471.911
    938492.319 8    715353.43445  25201782.934    25201784.7744   25201793.9834
     -2402.927       -1872.411
    808388.769 9    483197.58946  24253694.731    24253696.3744   24253703.2294
     -1994.846       -1554.425
  -1129344.644 9   -868064.06748  21506852.739    21506854.7364   21506860.2294
      2602.282        2027.752
    801961.218 8    610877.89045  24951855.390    24951857.1464   24951864.8234
     -1980.803       -1543.483
    486178.823 9    374107.09848  21932097.346    21932098.7114   21932104.6104
     -1247.610        -972.164
  -1042120.464 8   -793057.26746  25115555.380    25115557.2904   25115564.3334
      3294.004        2566.756
  -1237604.848 9   -944378.81048  21691342.330    21691343.8864   21691349.3254
      2883.813        2247.127
 96 12 12 16 35 30.0000000  0  9  1 29  3 31 25 23 21 14 15          0.000304916
    623675.291 9    480044.35848  21364010.523    21364012.1604   21364017.4434
     -1458.929       -1136.828
  -1396147.633 9  -1077703.73347  23918108.178    23918110.0714   23918116.2984
      3162.403        2464.210
   1010563.608 8    771512.76545  25215497.881    25215499.7184   25215508.8674
     -2400.804       -1870.756
    868398.748 9    529958.54846  24265114.402    24265116.0804   24265122.8794
     -2004.724       -1562.123
  -1207121.502 9   -928669.40048  21492052.351    21492054.2814   21492059.7864
      2583.778        2013.334
    861522.600 8    657289.33245  24963189.695    24963191.1284   24963198.8274
     -1989.137       -1549.977
    523824.040 9    403441.00348  21939261.083    21939262.4714   21939268.3164
     -1260.920        -982.535
  -1140883.975 8   -870015.84546  25096761.144    25096763.2164   25096770.3174
      3291.249        2564.610
  -1323820.876 9  -1011560.13248  21674936.043    21674937.5724   21674943.0084
      2864.874        2232.369
 96 12 12 16 36  0.0000000  0  9  1 29  3 31 25 23 21 14 15          0.000295360
    667654.370 9    514313.76448  21372379.450    21372381.0634   21372386.3814
     -1472.642       -1147.513
  -1490853.829 9  -1151500.74347  23900086.026    23900088.0684   23900094.3184
      3151.584        2455.780
   1082581.982 8    827630.86545  25229202.947    25229204.5984   25229213.4864
     -2400.515       -1870.531
    928700.689 9    576947.00846  24276589.624    24276591.1664   24276598.0644
     -2015.191       -1570.279
  -1284335.759 9   -988836.33448  21477358.922    21477360.9054   21477366.4274
      2563.958        1997.889
    921341.388 8    703901.33445  24974572.618    24974574.2014   24974581.9244
     -1998.664       -1557.400
    561863.666 9    433082.23048  21946499.916    21946501.2574   21946507.0584
     -1274.909        -993.436
  -1239565.251 8   -946910.35846  25077982.790    25077984.8804   25077991.8784
      3287.536        2561.716
  -1409466.352 9  -1078296.86248  21658638.214    21658639.8294   21658645.2614
      2844.904        2216.808
 96 12 12 16 36 30.0000000  0  9  1 29  3 31 25 23 21 14 15          0.000285879
    712013.809 9    548879.55148  21380820.781    21380822.4024   21380827.7034
     -1484.539       -1156.784
  -1585263.944 9  -1225067.05247  23882120.455    23882122.4064   23882128.6914
      3142.485        2448.690
   1154587.281 8    883738.81845  25242904.957    25242906.7404   25242915.4784
     -2399.779       -1869.958
    989286.628 9    624156.77546  24288118.819    24288120.3624   24288127.3584
     -2023.768       -1576.962
  -1360976.988 9  -1048556.75948  21462774.571    21462776.5644   21462782.0994
      2545.591        1983.577
    981428.296 8    750722.27045  24986006.944    24986008.5524   24986016.0774
     -2007.058       -1563.941
    600306.718 9    463037.81148  21953815.385    21953816.8004   21953822.5804
     -1287.842       -1003.513
  -1338152.306 8  -1023731.44646  25059222.356    25059224.4024   25059231.3894
      3285.029        2559.763
  -1494530.776 9  -1144580.83148  21642450.931    21642452.6394   21642458.0764
      2826.157        2202.200
 96 12 12 16 37  0.0000000  0  9  1 29  3 31 25 23 21 14 15          0.000276475
    756741.649 9    583732.40048  21389332.304    21389333.8654   21389339.1534
     -1496.741       -1166.292
  -1679389.451 9  -1298411.59447  23864208.975    23864210.9164   23864217.1684
      3132.972        2441.277
   1226589.674 8    939844.50245  25256606.569    25256608.6114   25256617.3424
     -2399.755       -1869.939
   1050135.526 9    671571.42246  24299697.964    24299699.5274   24299706.6234
     -2032.507       -1583.772
  -1437057.333 9  -1107840.12448  21448296.960    21448298.9684   21448304.4884
      2526.967        1969.065
   1041784.286 8    797752.86045  24997492.505    24997493.9804   24997501.5704
     -2016.209       -1571.072
    639151.740 9    493306.62448  21961207.469    21961208.8434   21961214.5704
     -1301.205       -1013.926
  -1436652.965 8  -1100485.20846  25040478.552    25040480.3464   25040487.4254
      3282.147        2557.517
  -1579017.921 9  -1210414.96648  21626373.612    21626375.3064   21626380.7814
      2806.813        2187.127
 96 12 12 16 37 30.0000000  0  8  1 29 31 25 23 21 14 15             0.000267145
    801826.967 9    618863.80148  21397911.845    21397913.3914   21397918.6684
     -1508.070       -1175.119
  -1773212.506 9  -1371520.45747  23846355.152    23846357.0174   23846363.2144
      3122.692        2433.266
   1111241.587 9    719186.46246  24311326.021    24311327.6744   24311334.8034
     -2040.436       -1589.950
  -1512573.204 9  -1166683.64248  21433926.837    21433928.7764   21433934.2724
      2508.212        1954.451
   1102424.475 8    845004.92645  25009032.354    25009033.4764   25009041.1264
     -2025.814       -1578.556
    678392.636 9    523883.90548  21968674.816    21968676.1904   21968681.9344
     -1313.987       -1023.886
  -1535062.898 8  -1177168.27846  25021751.847    25021753.6194   25021760.5944
      3279.214        2555.232
  -1662919.461 9  -1275792.78948  21610407.707    21610409.4034   21610414.8784
      2787.361        2171.970
 96 12 12 16 38  0.0000000  0  8  1 29 31 25 23 21 14 15             0.000257872
    847235.054 9    654246.71148  21406552.691    21406554.3804   21406559.6154
     -1518.597       -1183.322
  -1866736.181 9  -1444396.06247  23828558.150    23828560.0964   23828566.1964
      3112.705        2425.484
   1172577.093 9    766980.28946  24322997.887    24322999.5374   24323006.5974
     -2048.152       -1595.963
  -1587527.184 9  -1225089.31748  21419663.563    21419665.4974   21419670.9994
      2489.240        1939.668
   1163345.827 8    892476.06545  25020625.037    25020626.4394   25020634.2714
     -2035.002       -1585.716
    718017.015 9    554759.99748  21976215.015    21976216.4644   21976222.3014
     -1327.225       -1034.201
  -1633388.097 8  -1253785.31946  25003041.157    25003042.9224   25003049.9554
      3276.299        2552.960
  -1746240.091 9  -1340717.95548  21594552.328    21594554.0174   21594559.5564
      2767.820        2156.743
 96 12 12 16 38 30.0000000  0  8  1 29 31 25 23 21 14 15             0.000248675
    892966.525 9    689881.60548  21415255.095    21415256.8974   21415262.0934
     -1530.109       -1192.293
  -1959947.178 9  -1517028.00947  23810820.731    23810822.6314   23810828.6704
      3101.314        2416.608
   1234148.532 9    814957.95946  24334714.646    24334716.2484   24334723.2794
     -2056.553       -1602.509
  -1661909.097 9  -1283049.23148  21405509.128    21405511.0964   21405516.5444
      2469.698        1924.440
   1224553.148 8    940170.04545  25032272.207    25032273.7384   25032281.8494
     -2045.133       -1593.610
    758048.130 9    585953.01448  21983832.581    21983834.1124   21983840.0634
     -1341.239       -1045.121
  -1731610.489 8  -1330322.24446  24984349.900    24984351.8064   24984358.7904
      3272.248        2549.804
  -1828965.864 9  -1405179.59648  21578810.088    21578811.8434   21578817.4304
      2747.482        2140.895
 96 12 12 16 39  0.0000000  0  8  1 29 31 25 23 21 14 15             0.000239559
    939029.709 9    725774.97248  21424020.758    21424022.4824   21424027.6844
     -1540.633       -1200.493
  -2052813.156 9  -1589391.11947  23793148.834    23793150.8534   23793156.8794
      3089.815        2407.648
   1295963.647 9    863125.53546  24346477.796    24346479.3644   24346486.3814
     -2064.439       -1608.654
  -1735707.944 9  -1340554.80648  21391465.611    21391467.6404   21391473.0554
      2450.311        1909.333
   1286044.512 8    988085.35145  25043973.450    25043975.3044   25043983.3914
     -2054.061       -1600.567
    798482.225 9    617460.05648  21991526.909    21991528.4334   21991534.5314
     -1354.162       -1055.191
  -1829725.573 8  -1406775.54146  24965679.329    24965681.0464   24965687.9774
      3269.098        2547.349
  -1911090.738 9  -1469173.00548  21563182.307    21563184.0024   21563189.6444
      2727.627        2125.424
 96 12 12 16 39 30.0000000  0  8  1 29 31 25 23 21 14 15             0.000230505
    985414.826 9    761919.19848  21432847.676    21432849.3194   21432854.5224
     -1551.781       -1209.180
  -2145321.911 9  -1661475.86547  23775544.955    23775547.1004   23775553.0054
      3077.770        2398.262
   1358021.918 9    911482.58146  24358287.279    24358288.7584   24358295.6204
     -2072.799       -1615.168
  -1808912.350 9  -1397597.17948  21377535.176    21377537.2934   21377542.6804
      2430.045        1893.542
   1347796.316 8   1036203.57945  25055724.501    25055726.2854   25055734.3554
     -2062.461       -1607.112
    839302.056 9    649267.67148  21999294.614    21999296.1754   21999302.4004
     -1367.157       -1065.317
  -1927750.464 8  -1483158.55046  24947025.582    24947027.5374   24947034.4774
      3266.118        2545.027
  -1992615.228 9  -1532698.58748  21547668.703    21547670.4014   21547676.1094
      2707.425        2109.682
 96 12 12 16 40  0.0000000  0  8  1 29 31 25 23 21 14 15             0.000221509
   1032121.319 9    798313.83848  21441735.598    21441737.3074   21441742.4824
     -1562.566       -1217.584
  -2237493.000 9  -1733297.50547  23758005.394    23758007.5534   23758013.3464
      3066.498        2389.479
   1420325.663 9    960030.90046  24370143.516    24370144.9214   24370151.6274
     -2081.367       -1621.844
  -1881526.505 9  -1454179.62848  21363717.179    21363719.2784   21363724.6314
      2410.474        1878.291
   1409773.451 8   1084497.36445  25067518.178    25067520.2374   25067528.3054
     -2069.842       -1612.864
    880496.508 9    681367.18148  22007133.623    22007135.1844   22007141.5154
     -1379.704       -1075.094
  -2025703.954 9  -1559485.93146  24928385.798    24928387.5934   24928394.6484
      3263.736        2543.171
  -2073551.694 9  -1595765.96848  21532266.954    21532268.7004   21532274.4534
      2687.876        2094.449
 96 12 12 16 40 30.0000000  0  8  1 29 31 25 23 21 14 15             0.000212584
   1079158.812 9    834966.40248  21450686.527    21450688.2304   21450693.3864
     -1573.882       -1226.402
  -2329321.930 9  -1804852.51247  23740531.115    23740533.1324   23740538.8724
      3054.897        2380.439
   1482886.599 9   1008779.63546  24382048.561    24382050.0154   24382056.6084
     -2090.226       -1628.748
  -1953558.046 9  -1510308.08048  21350010.042    21350012.1374   21350017.5074
      2390.984        1863.104
   1471971.090 8   1132963.01645  25079354.321    25079356.2694   25079363.9954
     -2077.249       -1618.636
    922062.067 9    713755.87748  22015043.311    22015044.8194   22015051.2184
     -1391.965       -1084.648
  -2123594.406 9  -1635764.18646  24909757.938    24909759.6474   24909766.7424
      3261.765        2541.635
  -2153904.331 9  -1658378.41148  21516976.404    21516978.1374   21516983.8984
      2668.333        2079.220
 96 12 12 16 41  0.0000000  0  8  1 29 31 25 23 21 14 15             0.000203735
   1126526.647 9    871876.37548  21459700.409    21459701.9874   21459707.1284
     -1584.272       -1234.498
  -2420814.891 9  -1876145.70847  23723120.669    23723122.6244   23723128.4254
      3044.548        2372.375
   1545711.921 9   1057734.37046  24394003.820    24394005.3624   24394011.8654
     -2098.309       -1635.046
  -2025012.497 9  -1565986.84648  21336412.730    21336414.8064   21336420.2044
      2372.459        1848.669
   1534379.554 8   1181592.91145  25091230.323    25091232.1454   25091239.9884
     -2083.572       -1623.562
    963993.333 9    746429.53648  22023022.668    22023024.1554   22023030.5094
     -1403.730       -1093.816
  -2221438.965 9  -1712006.68046  24891138.851    24891140.5214   24891147.7584
      3260.911        2540.970
  -2233674.931 9  -1720537.32348  21501796.560    21501798.3104   21501804.1044
      2649.436        2064.495
 96 12 12 16 41 30.0000000  0  8  1 29 31 25 23 21 14 15             0.000194974
   1174226.979 9    909045.43848  21468777.419    21468779.0374   21468784.1464
     -1595.518       -1243.261
  -2511992.292 9  -1947193.01247  23705770.195    23705772.1644   23705777.9834
      3034.179        2364.295
   1608790.545 9   1106886.50546  24406007.265    24406008.9004   24406015.3834
     -2106.840       -1641.694
  -2095907.218 9  -1621229.46448  21322921.828    21322923.9914   21322929.4074
      2354.059        1834.332
   1596993.114 8   1230382.66545  25103145.189    25103147.2304   25103154.7594
     -2090.599       -1629.038
   1006298.606 9    779394.64448  22031073.126    22031074.6334   22031080.9294
     -1416.640       -1103.875
  -2319244.214 9  -1788218.54946  24872527.179    24872528.8844   24872536.0984
      3259.401        2539.793
  -2312866.022 9  -1782244.67348  21486727.058    21486728.7884   21486734.5724
      2630.057        2049.395
 96 12 12 16 42  0.0000000  0  8  1 29 31 25 23 21 14 15             0.000186325
   1222252.069 9    946467.55748  21477916.174    21477917.9024   21477922.9494
     -1606.141       -1251.538
  -2602864.671 9  -2018002.61747  23688477.721    23688479.7114   23688485.5964
      3023.711        2356.138
   1672115.978 9   1156230.94646  24418057.824    24418059.2884   24418065.8104
     -2114.902       -1647.976
  -2166263.368 9  -1676052.41248  21309533.530    21309535.6614   21309541.0874
      2336.210        1820.423
   1659822.835 8   1279340.82145  25115101.571    25115103.2664   25115110.8664
     -2098.243       -1634.995
   1048990.320 9    812660.87148  22039197.118    22039198.6224   22039204.8464
     -1429.530       -1113.919
  -2417000.647 9  -1864392.36346  24853924.796    24853926.5554   24853933.7444
      3257.617        2538.403
  -2391480.421 9  -1843502.64948  21471767.247    21471768.9844   21471774.7784
      2610.778        2034.372
 96 12 12 16 42 30.0000000  0  7  1 29 31 25 21 14 15                0.000177780
   1270584.219 9    984128.94548  21487113.454    21487115.2344   21487120.2074
     -1616.246       -1259.412
  -2693426.954 9  -2088570.59847  23671244.101    23671246.2654   23671252.1324
      3013.531        2348.206
   1735662.491 9   1205747.64746  24430150.472    24430151.8414   24430158.3094
     -2121.850       -1653.390
  -2236090.579 9  -1730463.20148  21296245.834    21296247.9674   21296253.4114
      2318.569        1806.677
   1092059.605 9    846221.29948  22047392.909    22047394.4934   22047400.6374
     -1441.919       -1123.573
  -2514705.445 9  -1940525.95745  24835332.168    24835333.9994   24835341.2094
      3255.508        2536.759
  -2469521.271 9  -1904313.70848  21456916.609    21456918.3054   21456924.1094
      2591.622        2019.446
 96 12 12 16 43  0.0000000  0  7  1 29 31 25 21 14 15                0.000169319
   1319212.637 9   1022021.19148  21496367.224    21496368.9534   21496373.8984
     -1626.012       -1267.022
  -2783692.300 9  -2158907.20047  23654067.205    23654069.3584   23654075.1134
      3003.649        2340.506
   1799401.261 9   1255414.14746  24442279.714    24442280.9504   24442287.4394
     -2127.803       -1658.028
  -2305390.630 9  -1784463.21848  21283058.477    21283060.5864   21283066.0124
      2300.946        1792.945
   1135495.040 9    880067.03248  22055658.482    22055660.0184   22055666.0854
     -1454.115       -1133.077
  -2612340.240 9  -2016605.03845  24816752.827    24816754.7984   24816761.8674
      3252.797        2534.647
  -2546988.074 9  -1964677.45748  21442175.198    21442176.8804   21442182.6854
      2572.352        2004.430
 96 12 12 16 43 30.0000000  0  7  1 29 31 25 21 14 15                0.000160930
   1368124.306 9   1060134.15448  21505674.902    21505676.6254   21505681.5294
     -1634.819       -1273.885
  -2873659.691 9  -2229011.63147  23636946.982    23636949.1564   23636954.8544
      2993.984        2332.975
   1863319.869 9   1305220.75946  24454443.168    24454444.3974   24454450.8394
     -2133.819       -1662.716
  -2374154.506 9  -1838045.43848  21269973.120    21269975.2704   21269980.6224
      2282.977        1778.943
   1179296.745 9    914198.18448  22063993.800    22063995.2734   22064001.2314
     -1466.021       -1142.354
  -2709875.409 9  -2092606.48145  24798192.408    24798194.5034   24798201.4234
      3249.539        2532.108
  -2623874.131 9  -2024588.67048  21427544.231    21427545.9584   21427551.7834
      2553.144        1989.463
 96 12 12 16 44  0.0000000  0  7  1 29 31 25 21 14 15                0.000152572
   1417289.249 9   1098444.47648  21515030.712    21515032.4934   21515037.3744
     -1643.145       -1280.373
  -2963340.211 9  -2298892.53547  23619881.284    23619883.5364   23619889.2074
      2984.429        2325.529
   1927411.833 9   1355162.46746  24466639.736    24466640.7574   24466647.1394
     -2139.215       -1666.921
  -2442372.303 9  -1891202.14048  21256991.570    21256993.8374   21256999.1254
      2264.543        1764.579
   1223436.540 9    948592.78248  22072393.409    22072394.8704   22072400.7944
     -1476.848       -1150.791
  -2807325.846 9  -2168541.91745  24779648.146    24779650.2444   24779657.1004
      3246.981        2530.115
  -2700186.692 9  -2084053.00448  21413022.436    21413024.1784   21413030.0054
      2534.110        1974.631
 96 12 12 16 44 30.0000000  0  7  1 29 31 25 21 14 15                0.000144247
   1466707.723 9   1136952.35348  21524434.702    21524436.5664   21524441.4464
     -1651.446       -1286.841
  -3052738.635 9  -2368553.61547  23602869.401    23602871.6014   23602877.2504
      2975.569        2318.625
   1991663.350 9   1405228.49546  24478866.166    24478867.4854   24478873.8934
     -2144.260       -1670.852
  -2510035.598 9  -1943926.76148  21244115.689    21244117.9324   21244123.1804
      2246.320        1750.379
   1267907.603 9    983245.50848  22080856.099    22080857.5264   22080863.3924
     -1487.945       -1159.438
  -2904695.972 9  -2244414.76045  24761119.311    24761121.3034   24761127.9404
      3244.524        2528.200
  -2775924.712 9  -2143069.64748  21398609.930    21398611.7074   21398617.5494
      2515.078        1959.801
 96 12 12 16 45  0.0000000  0  7  1 29 31 25 21 14 15                0.000135956
   1516353.951 9   1175637.70348  21533882.082    21533883.9204   21533888.8624
     -1657.969       -1291.924
  -3141890.414 9  -2438022.50747  23585904.299    23585906.5764   23585912.3164
      2968.033        2312.753
   2056056.898 9   1455405.19546  24491119.862    24491121.1834   24491127.6834
     -2148.438       -1674.108
  -2577166.235 9  -1996236.32648  21231341.213    21231343.4054   21231348.6484
      2229.254        1737.081
   1312707.387 9   1018154.37148  22089381.230    22089382.7344   22089388.5894
     -1498.555       -1167.705
  -3002023.913 9  -2320254.74545  24742598.408    24742600.4494   24742606.9114
      3244.516        2528.194
  -2851110.695 9  -2201656.12548  21384302.481    21384304.3184   21384310.1734
      2497.571        1946.159
 96 12 12 16 45 30.0000000  0  8  1 29 30 31 25 21 14 15             0.000127701
   1566224.391 9   1214497.76648  21543372.109    21543373.9284   21543378.9594
     -1666.521       -1298.588
  -3230787.283 9  -2507292.77547  23568987.790    23568990.0434   23568995.8884
      2958.836        2305.586
  -2375940.57519  -1840325.76155  25230315.455    25230317.2465   25230324.5325
      2056.322        1602.329
   2120609.029 9   1505705.48846  24503403.487    24503405.0814   24503411.6544
     -2154.643       -1678.943
  -2643747.709 9  -2048117.96548  21218671.164    21218673.3624   21218678.6354
      2209.948        1722.037
   1357854.539 9   1053333.90748  22097972.536    22097974.0384   22097979.8874
     -1510.840       -1177.278
  -3099339.476 9  -2396085.07145  24724079.925    24724081.8414   24724088.3074
      3243.849        2527.675
  -2925740.891 9  -2259809.52548  21370100.841    21370102.6684   21370108.5264
      2478.201        1931.066
 96 12 12 16 46  0.0000000  0  8  1 29 30 31 25 21 14 15             0.000119474
   1616341.624 9   1253550.13348  21552909.076    21552910.8814   21552916.0244
     -1675.114       -1305.284
  -3319435.725 9  -2576369.46447  23552118.485    23552120.7534   23552126.6934
      2950.533        2299.117
  -2437472.842 8  -1888272.94945  25218605.985    25218607.9524   25218615.2134
      2045.240        1593.694
   2185315.268 9   1556125.84946  24515716.474    24515718.3294   24515725.0304
     -2159.520       -1682.743
  -2709781.294 9  -2099572.67448  21206105.410    21206107.5854   21206112.8684
      2191.986        1708.041
   1403342.089 9   1088778.70048  22106628.588    22106630.1114   22106635.9844
     -1522.195       -1186.126
  -3196670.721 9  -2471927.59846  24705558.329    24705560.3494   24705566.8494
      3244.240        2527.979
  -2999816.293 9  -2317530.62148  21356004.808    21356006.6214   21356012.4314
      2459.688        1916.640
 96 12 12 16 46 30.0000000  0  8  1 29 30 31 25 21 14 15             0.000111294
   1666718.724 9   1292804.99148  21562495.538    21562497.3324   21562502.5144
     -1683.402       -1311.742
  -3407836.280 9  -2645252.99947  23535296.328    23535298.6404   23535304.6344
      2942.646        2292.971
  -2498669.359 9  -1935958.50845  25206960.592    25206962.4204   25206969.6114
      2034.278        1585.152
   2250172.717 9   1606664.02646  24528058.461    24528060.3244   24528067.1384
     -2164.465       -1686.596
  -2775281.097 9  -2150611.45348  21193641.237    21193643.3864   21193648.6494
      2174.477        1694.398
   1449180.462 9   1124496.86948  22115351.473    22115352.9364   22115358.8354
     -1533.747       -1195.128
  -3293999.853 9  -2547768.44846  24687037.182    24687039.1064   24687045.8284
      3244.171        2527.925
  -3073332.921 9  -2374816.30348  21342015.101    21342016.8954   21342022.7054
      2441.254        1902.276
 96 12 12 16 47  0.0000000  0  8  1 29 30 31 25 21 14 15             0.000103139
   1717330.292 9   1332242.55848  21572126.578    21572128.4584   21572133.6294
     -1691.091       -1317.733
  -3496002.785 9  -2713954.15347  23518518.776    23518521.0684   23518527.1194
      2934.649        2286.739
  -2559548.678 9  -1983396.91145  25195375.470    25195377.2964   25195384.4064
      2023.608        1576.837
   2315164.993 9   1657307.28146  24540426.061    24540428.0064   24540434.8274
     -2168.720       -1689.912
  -2840259.222 9  -2201243.73248  21181276.306    21181278.4404   21181283.7094
      2157.042        1680.812
   1495340.535 9   1160465.71148  22124135.429    22124136.9564   22124142.8664
     -1543.821       -1202.977
  -3391348.164 9  -2623624.27746  24668512.236    24668514.3164   24668520.8944
      3245.142        2528.682
  -3146307.685 9  -2431679.75248  21328128.489    21328130.2754   21328136.0814
      2423.301        1888.286
 96 12 12 16 47 30.0000000  0  8  1 29 30 31 25 21 14 15             0.000094997
   1768186.177 9   1371870.49748  21581804.300    21581806.1164   21581811.2334
     -1699.686       -1324.431
  -3583925.898 9  -2782465.66047  23501787.561    23501789.8224   23501795.8744
      2926.476        2280.371
  -2620078.908 9  -2030563.29645  25183856.930    25183858.8104   25183865.6784
      2011.349        1567.285
   2380283.263 9   1708048.70746  24552817.712    24552819.6064   24552826.5684
     -2173.005       -1693.251
  -2904710.424 9  -2251465.41848  21169011.596    21169013.7934   21169019.0444
      2139.521        1667.159
   1541791.107 9   1196660.92248  22132974.606    22132976.2304   22132982.1534
     -1553.394       -1210.437
  -3488706.496 9  -2699487.89146  24649985.712    24649987.7114   24649994.1974
      3244.929        2528.516
  -3218736.943 9  -2488118.13248  21314345.640    21314347.4524   21314353.2454
      2404.942        1873.981
 96 12 12 16 48  0.0000000  0  8  1 29 30 31 25 21 14 15             0.000086892
   1819305.423 9   1411703.64848  21591532.264    21591533.9074   21591538.9534
     -1707.174       -1330.265
  -3671581.751 9  -2850768.91147  23485107.291    23485109.4554   23485115.4574
      2917.939        2273.719
  -2680224.814 9  -2077430.21346  25172411.527    25172413.4344   25172420.1474
      1999.135        1557.768
   2445542.880 9   1758900.26946  24565236.356    24565238.2354   24565245.1744
     -2176.953       -1696.327
  -2968633.206 9  -2301275.35348  21156847.495    21156849.6994   21156854.8994
      2122.716        1654.064
   1588550.120 9   1233096.46347  22141872.567    22141874.2154   22141880.1074
     -1563.225       -1218.097
  -3586034.408 9  -2775327.82146  24631464.797    24631466.8504   24631473.2704
      3244.365        2528.077
  -3290601.926 9  -2544116.82548  21300670.165    21300671.9694   21300677.7754
      2386.836        1859.872
 96 12 12 16 48 30.0000000  0  8  1 29 30 31 25 21 14 15             0.000078828
   1870653.733 9   1451715.29348  21601303.897    21601305.2794   21601310.2094
     -1715.459       -1336.721
  -3758959.478 9  -2918855.44447  23468479.929    23468482.0474   23468487.9794
      2907.734        2265.767
  -2739978.603 9  -2123991.59846  25161041.027    25161042.7924   25161049.3404
      1984.997        1546.751
   2510934.142 9   1809854.39046  24577680.039    24577681.8424   24577688.8044
     -2181.976       -1700.241
  -3032026.033 9  -2350672.34348  21144784.219    21144786.4524   21144791.6174
      2103.883        1639.389
   1635624.402 9   1269777.66147  22150830.400    22150832.1464   22150838.1174
     -1574.515       -1226.895
  -3683332.197 9  -2851144.26646  24612949.635    24612951.7224   24612958.1844
      3242.806        2526.862
  -3361907.919 9  -2599679.93648  21287101.131    21287102.8854   21287108.6994
      2367.392        1844.721
 96 12 12 16 49  0.0000000  0  8  1 29 30 31 25 21 14 15             0.000070795
   1922224.094 9   1491899.97248  21611117.500    21611118.8794   21611123.7004
     -1722.060       -1341.865
  -3846050.121 9  -2986718.25747  23451907.105    23451909.2434   23451915.1314
      2898.931        2258.907
  -2799322.299 9  -2170233.44245  25149748.017    25149749.9504   25149756.7214
      1971.869        1536.521
   2576452.970 9   1860907.93846  24590148.167    24590149.7974   24590156.7754
     -2185.463       -1702.958
  -3094871.695 9  -2399642.96248  21132825.146    21132827.3154   21132832.4714
      2086.540        1625.875
   1683011.914 9   1306702.93447  22159847.790    22159849.6774   22159855.7484
     -1584.226       -1234.462
  -3780615.868 9  -2926949.70446  24594437.020    24594439.2274   24594445.7464
      3243.272        2527.225
  -3432654.320 9  -2654807.00548  21273638.468    21273640.2764   21273646.0934
      2349.522        1830.796
 96 12 12 16 49 30.0000000  0  8  1 29 30 31 25 21 14 15             0.000062794
   1973997.083 9   1532242.54948  21620969.370    21620970.9684   21620975.7724
     -1729.723       -1347.836
  -3932878.856 9  -3054376.99347  23435383.999    23435386.2144   23435392.1524
      2889.357        2251.447
  -2858265.046 9  -2216162.85946  25138531.286    25138533.2834   25138540.3604
      1957.488        1525.315
   2642082.539 8   1912047.75746  24602637.052    24602638.6624   24602645.7144
     -2190.208       -1706.656
  -3157200.158 9  -2448210.57348  21120964.466    21120966.5724   21120971.7604
      2068.454        1611.782
   1730708.157 9   1343868.79247  22168924.248    22168925.9984   22168932.1504
     -1596.022       -1243.654
  -3877899.762 9  -3002755.32946  24575924.300    24575926.6394   24575933.2834
      3242.027        2526.255
  -3502854.982 9  -2709508.82048  21260279.726    21260281.5164   21260287.3374
      2330.166        1815.714
 96 12 12 16 50  0.0000000  0  8  1 29 30 31 25 21 14 15             0.000054843
   2025970.017 9   1572740.93348  21630859.182    21630861.0184   21630865.9134
     -1735.836       -1352.599
  -4019441.690 9  -3121828.53547  23418911.586    23418913.8354   23418919.8474
      2881.009        2244.942
  -2916809.212 9  -2261781.73346  25127390.578    25127392.6374   25127399.7684
      1944.766        1515.402
   2707827.367 8   1963277.38946  24615147.829    24615149.5104   24615156.6034
     -2193.451       -1709.183
  -3219004.955 9  -2496370.13248  21109203.366    21109205.5184   21109210.6964
      2051.036        1598.210
   1778748.367 9   1381302.66347  22178065.995    22178067.8064   22178074.0254
     -1607.085       -1252.274
  -3975170.232 9  -3078550.49646  24557414.297    24557416.8054   24557423.3804
      3242.170        2526.366
  -3572492.799 9  -2763772.06148  21247028.001    21247029.8944   21247035.6724
      2311.710        1801.332
 96 12 12 16 50 30.0000000  0  8  1 29 30 31 25 21 14 15             0.000046913
   2078136.415 9   1613390.06948  21640786.065    21640787.8724   21640792.8714
     -1742.121       -1357.497
  -4105769.621 9  -3189097.02047  23402483.829    23402486.1594   23402492.2384
      2874.070        2239.535
  -2974969.984 9  -2307101.87946  25116323.026    25116325.0264   25116332.1284
      1932.469        1505.820
   2773661.786 8   2014576.84346  24627675.539    24627677.4584   24627684.8084
     -2195.640       -1710.888
  -3280285.839 9  -2544121.45748  21097541.986    21097544.1664   21097549.3504
      2034.314        1585.180
   1827106.900 9   1418984.58347  22187268.412    22187270.2284   22187276.4824
     -1616.864       -1259.894
  -4072454.607 9  -3154356.49646  24538901.973    24538904.2534   24538910.7654
      3243.222        2527.186
  -3641578.342 9  -2817604.95948  21233881.456    21233883.3744   21233889.1164
      2293.788        1787.367
 96 12 12 16 51  0.0000000  0  8  1 29 30 31 25 21 14 15             0.000038997
   2130496.294 9   1654189.96848  21650749.710    21650751.5304   21650756.6674
     -1748.235       -1362.261
  -4191886.873 9  -3256201.35547  23386096.315    23386098.5754   23386104.6834
      2867.521        2234.432
  -3032764.253 9  -2352136.42546  25105325.181    25105327.1564   25105334.2404
      1920.825        1496.747
   2839564.064 9   2065929.15946  24640216.544    24640218.2454   24640225.6464
     -2197.519       -1712.352
  -3341073.275 9  -2591488.27548  21085974.563    21085976.7154   21085981.8654
      2018.552        1572.898
   1875760.512 9   1456896.42447  22196527.061    22196528.7874   22196535.0934
     -1626.383       -1267.311
  -4169759.813 9  -3230178.72346  24520385.290    24520387.6754   24520394.1804
      3244.180        2527.932
  -3710120.050 9  -2871014.08748  21220838.525    21220840.3694   21220846.0344
      2276.022        1773.524
 96 12 12 16 51 30.0000000  0  8  1 29 30 31 25 21 14 15             0.000031092
   2183044.049 9   1695136.26048  21660748.939    21660750.9584   21660756.2144
     -1755.264       -1367.738
  -4277813.218 9  -3323156.92547  23369745.085    23369747.3814   23369753.4834
      2860.559        2229.007
  -3090212.754 9  -2396901.54146  25094393.336    25094395.2034   25094402.1904
      1908.822        1487.394
   2905514.460 9   2117318.99846  24652766.468    24652768.2404   24652775.6514
     -2199.571       -1713.951
  -3401384.737 9  -2638484.20848  21074497.701    21074499.8184   21074504.9894
      2001.821        1559.861
   1924702.269 9   1495032.78947  22205840.466    22205842.1774   22205848.5004
     -1636.522       -1275.212
  -4267086.945 9  -3306018.04146  24501864.447    24501866.8514   24501873.4354
      3244.115        2527.882
  -3778127.303 9  -2924006.76348  21207897.215    21207899.0414   21207904.6674
      2257.531        1759.115
 96 12 12 16 52  0.0000000  0  8  1 29 30 31 25 21 14 15             0.000023191
   2235798.571 9   1736243.66848  21670787.882    21670789.8404   21670795.0844
     -1762.170       -1373.119
  -4363534.207 9  -3389952.46947  23353432.990    23353435.2104   23353441.3014
      2853.771        2223.718
  -3147311.399 9  -2441394.04446  25083527.922    25083529.9824   25083536.7604
      1897.267        1478.390
   2971516.564 9   2168749.12646  24665326.190    24665328.0994   24665335.5764
     -2201.145       -1715.178
  -3461190.800 9  -2685086.32348  21063116.997    21063119.0754   21063124.2714
      1984.819        1546.612
   1973924.192 9   1533387.45947  22215207.177    22215208.8754   22215215.2114
     -1645.188       -1281.965
  -4364426.841 9  -3381867.30146  24483341.343    24483343.7024   24483350.3114
      3244.735        2528.365
  -3845589.066 9  -2976574.37448  21195059.657    21195061.5194   21195067.0984
      2239.532        1745.090
 96 12 12 16 52 30.0000000  0  8  1 29 30 31 25 21 14 15             0.000015302
   2288780.427 9   1777528.21748  21680870.262    21680872.0194   21680877.2474
     -1769.473       -1378.810
  -4449022.229 9  -3456566.47747  23337165.147    23337167.4044   23337173.4824
      2845.639        2217.381
  -3204040.958 9  -2485598.93346  25072732.874    25072734.8414   25072741.6164
      1885.046        1468.867
   3037594.015 9   2220237.96846  24677900.747    24677902.3214   24677909.8054
     -2203.751       -1717.209
  -3520470.615 9  -2731278.37548  21051836.335    21051838.4454   21051843.6894
      1967.475        1533.097
   2023423.254 9   1571958.08247  22224626.751    22224628.3014   22224634.6304
     -1654.582       -1289.285
  -4461757.453 9  -3457709.31746  24464820.068    24464822.3624   24464828.9324
      3244.098        2527.869
  -3912487.573 9  -3028703.09548  21182329.265    21182331.1844   21182336.7264
      2220.678        1730.398
 96 12 12 16 53  0.0000000  0  8  1 29 30 31 25 21 14 15             0.000007427
   2341960.265 9   1818967.02948  21690990.017    21690991.8934   21690997.1044
     -1776.066       -1383.947
  -4534280.553 9  -3523001.49647  23320941.052    23320943.3014   23320949.3094
      2838.124        2211.525
  -3260422.853 9  -2529532.92246  25062003.998    25062005.8054   25062012.5544
      1873.588        1459.939
   3103737.424 9   2271778.19746  24690487.627    24690489.1354   24690496.6964
     -2206.198       -1719.115
  -3579239.890 9  -2777072.60248  21040652.893    21040655.0074   21040660.2524
      1950.161        1519.606
   2073198.440 9   1610743.86747  22234098.631    22234100.2174   22234106.5674
     -1664.054       -1296.665
  -4559075.304 9  -3533541.39146  24446301.173    24446303.3434   24446309.9444
      3243.634        2527.507
  -3978834.120 9  -3080401.71148  21169703.916    21169705.8754   21169711.3974
      2202.244        1716.034
 96 12 12 16 53 30.0000000  0  8  1 29 30 31 25 21 14 15            -0.000000434
   2395337.288 9   1860559.49648  21701147.406    21701149.3074   21701154.4554
     -1782.441       -1388.915
  -4619322.735 9  -3589268.08347  23304758.044    23304760.2424   23304766.2294
      2831.144        2206.086
  -3316463.276 9  -2573200.80846  25051339.592    25051341.5784   25051348.5034
      1862.393        1451.215
   3169957.096 9   2323377.85946  24703088.932    24703090.4124   24703097.9034
     -2208.624       -1721.006
  -3637481.226 9  -2822455.45348  21029569.968    21029572.0604   21029577.3134
      1932.660        1505.969
   2123258.823 9   1649751.88747  22243624.841    22243626.4504   22243632.8054
     -1673.318       -1303.884
  -4656382.295 9  -3609364.98246  24427784.101    24427786.2744   24427793.0164
      3243.567        2527.455
  -4044627.610 9  -3131669.38048  21157183.949    21157185.8184   21157191.3284
      2183.918        1701.754
 96 12 12 16 53 59.9990000  0  8  1 29 30 31 25 21 14 15            -0.000008280
   2448904.788 9   1902300.37848  21711341.125    21711342.9764   21711348.0804
     -1788.303       -1393.483
  -4704140.162 9  -3655359.53347  23288617.827    23288620.0154   23288625.9524
      2823.963        2200.491
  -3372163.177 9  -2616603.37146  25040740.302    25040742.3144   25040749.1284
      1851.332        1442.596
   3236253.035 9   2375036.94546  24715704.820    24715706.3604   24715713.7564
     -2210.937       -1722.808
  -3695194.004 9  -2867426.44748  21018587.548    21018589.6534   21018594.9104
      1915.472        1492.576
   2173599.626 9   1688978.42447  22253204.515    22253206.0674   22253212.3924
     -1682.748       -1311.232
  -4753684.864 9  -3685185.16446  24409267.959    24409270.1144   24409276.9654
      3243.856        2527.680
  -4109864.770 9  -3182503.54248  21144769.745    21144771.6154   21144777.1414
      2165.723        1687.576
 96 12 12 16 54 29.9990000  0  8  1 29 30 31 25 21 14 15            -0.000016097
   2502642.637 9   1944173.99848  21721567.220    21721569.0184   21721574.1154
     -1794.309       -1398.163
  -4788740.568 9  -3721281.88347  23272518.828    23272521.0854   23272526.9804
      2816.061        2194.333
  -3427522.652 9  -2659740.65246  25030205.850    25030207.7414   25030214.5994
      1839.157        1433.109
   3302622.704 9   2426753.49746  24728334.459    24728336.1994   24728343.5094
     -2213.750       -1725.000
  -3752403.655 9  -2912005.38748  21007700.794    21007702.9734   21007708.2534
      1898.353        1479.236
   2224248.979 9   1728445.39047  22262842.668    22262844.4114   22262850.7064
     -1694.005       -1320.004
  -4850994.871 9  -3761011.12646  24390750.406    24390752.6494   24390759.4774
      3243.521        2527.419
  -4174554.697 9  -3232911.28648  21132459.656    21132461.5444   21132467.1124
      2146.900        1672.909
 96 12 12 16 54 59.9990000  0  8  1 29 30 31 25 21 14 15            -0.000023873
   2556558.436 9   1986186.28448  21731826.912    21731828.8334   21731833.9724
     -1800.065       -1402.648
  -4873117.900 9  -3787030.40547  23256462.390    23256464.5744   23256470.4784
      2809.100        2188.909
  -3482519.337 9  -2702595.20946  25019740.292    25019742.1414   25019749.1874
      1827.222        1423.809
   3369058.181 9   2478521.31646  24740976.754    24740978.4334   24740985.8074
     -2215.390       -1726.278
  -3809102.272 9  -2956186.11748  20996911.354    20996913.5904   20996918.8694
      1881.668        1466.235
   2275227.264 9   1768168.66447  22272543.615    22272545.3424   22272551.6134
     -1704.340       -1328.057
  -4948314.290 9  -3836844.43746  24372231.346    24372233.4354   24372240.2764
      3244.487        2528.172
  -4238690.759 9  -3282887.45348  21120254.947    21120256.8474   21120262.4764
      2128.869        1658.859
 96 12 12 16 55 29.9990000  0  8  1 29 30 31 25 21 14 15            -0.000031630
   2610635.910 9   2028324.54748  21742117.489    21742119.3524   21742124.5434
     -1805.079       -1406.555
  -4957276.598 9  -3852608.56547  23240447.586    23240449.7284   23240455.5944
      2801.286        2182.820
  -3537148.839 9  -2745163.63346  25009344.543    25009346.4404   25009353.2984
      1814.684        1414.039
   3435535.802 9   2530321.97646  24753626.958    24753628.8064   24753636.0624
     -2216.570       -1727.197
  -3865306.132 9  -2999981.32548  20986216.181    20986218.3544   20986223.6214
      1865.287        1453.470
   2326499.921 9   1808121.33647  22282300.740    22282302.2754   22282308.5404
     -1713.873       -1335.485
  -5045666.587 9  -3912703.35746  24353705.833    24353707.9724   24353714.8114
      3245.609        2529.046
  -4302288.769 9  -3332444.35448  21108152.660    21108154.5424   21108160.2294
      2110.868        1644.832
 96 12 12 16 55 59.9990000  0  8  1 29 30 31 25 21 14 15            -0.000039372
   2664852.842 9   2070571.48748  21752434.484    21752436.3974   21752441.6834
     -1809.032       -1409.635
  -5041195.152 9  -3917999.61247  23224478.474    23224480.5434   23224486.4044
      2793.765        2176.960
  -3591403.707 9  -2787440.13846  24999020.024    24999021.9364   24999028.9004
      1802.492        1404.539
   3502037.993 9   2582141.80846  24766281.967    24766283.8884   24766290.9284
     -2216.636       -1727.249
  -3921026.945 9  -3043400.12948  20975612.800    20975615.0514   20975620.3154
      1849.722        1441.342
   2378054.308 9   1848293.52347  22292111.173    22292112.7514   22292119.0864
     -1722.778       -1342.424
  -5143054.730 9  -3988590.21946  24335173.453    24335175.6704   24335182.4974
      3247.099        2530.207
  -4365348.986 9  -3381582.20148  21096152.754    21096154.6014   21096160.2784
      2093.389        1631.212
 96 12 12 16 56 29.9990000  0  8  1 29 30 31 25 21 14 15            -0.000047101
   2719208.235 9   2112926.31448  21762777.869    21762779.7864   21762785.1714
     -1814.635       -1414.001
  -5124873.161 9  -3983203.21547  23208555.009    23208557.1014   23208562.9404
      2785.167        2170.260
  -3645270.746 9  -2829414.39346  24988769.431    24988771.3514   24988778.2624
      1789.012        1394.035
   3568556.507 9   2633974.34646  24778940.283    24778942.0454   24778948.8374
     -2217.730       -1728.101
  -3976259.865 9  -3086438.75848  20965102.299    20965104.5764   20965109.8384
      1832.469        1427.898
   2429888.643 9   1888683.84447  22301974.753    22301976.4514   22301982.9184
     -1732.321       -1349.861
  -5240466.799 9  -4064495.72546  24316636.713    24316638.8474   24316645.6524
      3247.262        2530.334
  -4427863.254 9  -3430294.63048  21084256.645    21084258.5354   21084264.1834
      2074.455        1616.458
 96 12 12 16 56 59.9990000  0  8  1 29 30 31 25 21 14 15            -0.000054842
   2773722.481 9   2155404.91448  21773151.545    21773153.4674   21773158.8924
     -1819.996       -1418.179
  -5208319.610 9  -4048226.38247  23192675.595    23192677.7074   23192683.6154
      2777.524        2164.304
  -3698757.947 9  -2871092.66446  24978591.103    24978593.1774   24978599.9654
      1776.581        1384.349
   3635090.107 9   2685818.64646  24791601.218    24791602.9154   24791609.7684
     -2218.463       -1728.672
  -4030971.737 9  -3129071.37948  20954690.988    20954693.2364   20954698.5104
      1814.606        1413.979
   2481968.601 9   1929265.58347  22311885.217    22311886.9274   22311893.4804
     -1740.106       -1355.927
  -5337896.952 9  -4140415.30946  24298096.480    24298098.5034   24298105.3514
      3247.569        2530.573
  -4489826.439 9  -3478577.64048  21072465.458    21072467.3734   21072472.9784
      2055.913        1602.010
 96 12 12 16 57 29.9990000  0  8  1 29 30 31 25 21 14 15            -0.000062605
   2828389.078 9   2198002.23248  21783554.463    21783556.2134   21783561.6074
     -1824.676       -1421.825
  -5291540.569 9  -4113073.84647  23176839.004    23176841.2614   23176847.1764
      2770.594        2158.904
  -3751883.601 9  -2912489.17746  24968481.808    24968483.6614   24968490.4224
      1765.020        1375.340
   3701650.374 9   2737683.73446  24804267.393    24804269.0394   24804275.9554
     -2219.073       -1729.148
  -4085149.956 9  -3171288.16448  20944381.193    20944383.4594   20944388.7414
      1797.144        1400.372
   2534277.967 9   1970026.07747  22321839.222    22321841.0434   22321847.7234
     -1747.552       -1361.729
  -5435331.486 9  -4216338.32146  24279555.295    24279557.4104   24279564.2074
      3247.978        2530.892
  -4551229.534 9  -3526424.21948  21060780.915    21060782.7754   21060788.3254
      2037.451        1587.624
 96 12 12 16 57 59.9990000  0  8  1 29 30 31 25 21 14 15            -0.000070387
   2883218.354 9   2240726.31248  21793988.300    21793989.9844   21793995.3184
     -1831.102       -1426.833
  -5374558.742 9  -4177763.29847  23161041.151    23161043.4504   23161049.3584
      2763.467        2153.351
  -3804654.599 9  -2953609.32246  24958439.858    24958441.7194   24958448.4214
      1752.454        1365.549
   3768238.856 9   2789570.82146  24816938.811    24816940.4704   24816947.3724
     -2220.623       -1730.356
  -4138789.450 9  -3213085.16348  20934173.994    20934176.2074   20934181.4494
      1778.285        1385.677
   2586824.878 9   2010971.66747  22331838.662    22331840.3994   22331847.1754
     -1756.058       -1368.357
  -5532765.191 9  -4292260.66646  24261014.304    24261016.4214   24261023.2304
      3247.101        2530.209
  -4612068.325 9  -3573831.07748  21049203.716    21049205.5904   21049211.1064
      2017.995        1572.464
 96 12 12 16 58 29.9990000  0  8  1 29 30 31 25 21 14 15            -0.000078132
   2938218.217 9   2283583.31748  21804454.468    21804456.2314   21804461.4744
     -1835.785       -1430.482
  -5457382.965 9  -4242301.62547  23145280.324    23145282.5314   23145288.4174
      2757.935        2149.040
  -3857062.896 9  -2994446.84546  24948467.108    24948468.8504   24948475.3574
      1741.285        1356.845
   3834860.564 9   2841483.77446  24829616.456    24829618.1254   24829625.1874
     -2221.117       -1730.741
  -4191873.750 9  -3254449.54948  20924072.385    20924074.5794   20924079.7954
      1760.389        1371.732
   2639604.721 9   2052098.76547  22341882.380    22341884.1374   22341890.8934
     -1762.994       -1373.762
  -5630188.532 9  -4368174.95046  24242475.247    24242477.4314   24242484.2154
      3247.619        2530.612
  -4672342.698 9  -3620798.12948  21037733.953    21037735.7824   21037741.3074
      2000.076        1558.501
 96 12 12 16 58 59.9990000  0  8  1 29 30 31 25 21 14 15            -0.000085972
   2993365.129 9   2326554.90548  21814948.807    21814950.4994   21814955.6354
     -1839.998       -1433.765
  -5540027.552 9  -4306699.98647  23129553.580    23129555.8154   23129561.6694
      2752.155        2144.536
  -3909114.870 9  -3035006.70346  24938561.994    24938563.7454   24938570.2494
      1729.158        1347.396
   3901515.421 9   2893422.54346  24842300.333    24842302.0714   24842309.3984
     -2221.982       -1731.415
  -4244409.514 9  -3295386.50348  20914075.197    20914077.3674   20914082.5844
      1742.770        1358.003
   2692621.195 9   2093410.24847  22351971.136    22351972.9464   22351979.6294
     -1771.196       -1380.153
  -5727611.585 9  -4444089.00646  24223936.221    24223938.4534   24223945.2584
      3247.802        2530.755
  -4732060.124 9  -3667331.20348  21026370.093    21026371.9514   21026377.5164
      1981.597        1544.101
 96 12 12 16 59 29.9990000  0  8  1 29 30 31 25 21 14 15            -0.000093816
   3048640.279 9   2369626.41948  21825467.420    21825469.1584   21825474.1804
     -1844.986       -1437.651
  -5622491.894 9  -4370957.88447  23113861.286    23113863.3464   23113869.2614
      2745.481        2139.336
  -3960779.805 9  -3075264.97546  24928730.478    24928732.2044   24928738.7324
      1715.217        1336.533
   3968193.372 9   2945379.32546  24854988.730    24854990.5774   24854997.9114
     -2223.161       -1732.333
  -4296428.945 9  -3335921.12048  20904176.250    20904178.4124   20904183.6104
      1725.345        1344.425
   2745912.617 9   2134935.97947  22362112.291    22362114.0724   22362120.7434
     -1781.673       -1388.317
  -5825035.263 9  -4520003.54146  24205397.167    24205399.3884   24205406.1374
      3247.352        2530.404
  -4791215.448 9  -3713426.26848  21015113.255    21015115.0734   21015120.6964
      1962.216        1528.999
 96 12 12 16 59 59.9990000  0  8  1 29 30 31 25 21 14 15            -0.000101640
   3104048.513 9   2412801.63848  21836011.366    21836013.1084   21836018.0624
     -1848.714       -1440.556
  -5704764.973 9  -4435066.75547  23098205.092    23098207.2284   23098213.2184
      2739.304        2134.523
  -4012041.936 9  -3115209.40446  24918975.154    24918977.2334   24918983.8814
      1702.447        1326.582
   4034873.557 9   2997337.84046  24867677.596    24867679.3854   24867686.9354
     -2222.250       -1731.623
  -4347943.741 9  -3376062.51548  20894373.392    20894375.5084   20894380.6854
      1709.077        1331.748
   2799510.708 9   2176700.65747  22372311.725    22372313.5754   22372320.2224
     -1791.372       -1395.874
  -5922470.843 9  -4595927.37646  24186855.837    24186857.9564   24186864.6924
      3248.606        2531.381
  -4849809.603 9  -3759084.05948  21003963.141    21003964.9514   21003970.6414
      1944.154        1514.925
 96 12 12 17  0 29.9990000  0  8  1 29 30 31 25 21 14 15            -0.000109431
   3159580.045 9   2456072.93648  21846578.702    21846580.4844   21846585.3884
     -1853.039       -1443.926
  -5786825.486 9  -4499009.98447  23082589.347    23082591.5554   23082597.5744
      2732.058        2128.876
  -4062904.740 9  -3154842.66346  24909295.752    24909298.1854   24909304.9734
      1689.085        1316.170
   4101552.328 8   3049295.26246  24880366.260    24880368.0504   24880375.5604
     -2222.585       -1731.884
  -4398956.760 9  -3415812.91148  20884665.950    20884668.0774   20884673.2594
      1692.368        1318.728
   2853432.132 9   2218717.29247  22382572.800    22382574.5464   22382581.2034
     -1802.717       -1404.715
  -6019934.861 9  -4671873.35346  24168309.120    24168311.1564   24168317.7864
      3249.527        2532.099
  -4907839.338 9  -3804302.03748  20992920.356    20992922.2364   20992928.0134
      1925.029        1500.023
 96 12 12 17  0 59.9990000  0  8  1 29 30 31 25 21 14 15            -0.000117183
   3215252.950 9   2499454.39248  21857172.929    21857174.6564   21857179.5324
     -1857.895       -1447.710
  -5868670.321 9  -4562785.16647  23067014.739    23067016.9914   23067023.0104
      2724.635        2123.092
  -4113373.560 9  -3194168.95646  24899691.365    24899694.0724   24899700.9224
      1676.066        1306.025
   4168230.584 9   3101252.30346  24893054.690    24893056.4654   24893064.1774
     -2222.166       -1731.558
  -4449475.652 9  -3455178.28148  20875052.546    20875054.6584   20875059.8004
      1676.138        1306.082
   2907687.402 9   2260994.05947  22392897.355    22392899.0364   22392905.6604
     -1813.535       -1413.144
  -6117434.221 9  -4747846.87746  24149755.522    24149757.5954   24149764.2474
      3250.867        2533.143
  -4965296.549 9  -3849073.89648  20981986.672    20981988.5084   20981994.3084
      1906.031        1485.219
 96 12 12 17  1 29.9990000  0  8  1 29 30 31 25 21 14 15            -0.000124902
   3271077.829 9   2542954.27248  21867795.873    21867797.6994   21867802.5684
     -1863.306       -1451.927
  -5950282.411 9  -4626378.98447  23051484.505    23051486.7024   23051492.6824
      2716.585        2116.819
  -4163464.638 9  -3233200.88046  24890159.294    24890161.7694   24890169.0384
      1663.887        1296.535
   4234899.340 9   3153201.94446  24905741.517    24905743.1404   24905750.9224
     -2222.055       -1731.471
  -4499507.215 9  -3494163.91648  20865531.876    20865534.0104   20865539.1304
      1659.672        1293.251
   2962249.448 9   2303509.87647  22403280.156    22403281.9344   22403288.5254
     -1823.269       -1420.729
  -6214975.346 9  -4823852.93746  24131194.040    24131196.0944   24131202.7694
      3252.359        2534.306
  -5022186.753 9  -3893403.93448  20971160.824    20971162.6634   20971168.5084
      1887.146        1470.503
 96 12 12 17  1 59.9990000  0  8  1 29 30 31 25 21 14 15            -0.000132606
   3327057.116 9   2586574.46848  21878448.428    21878450.1844   21878455.1164
     -1868.667       -1456.104
  -6031650.979 9  -4689783.03047  23036000.525    23036002.7544   23036008.7434
      2707.999        2110.129
  -4213196.224 9  -3271952.71246  24880695.542    24880698.0774   24880705.2594
      1651.476        1286.864
   4301565.400 8   3205149.46746  24918427.708    24918429.4034   24918437.0004
     -2222.658       -1731.941
  -4549031.559 9  -3532754.30948  20856107.746    20856109.8494   20856114.9574
      1641.785        1279.313
   3017085.663 9   2346239.32547  22413715.325    22413716.9524   22413723.5614
     -1832.372       -1427.822
  -6312565.315 9  -4899897.04146  24112623.159    24112625.2924   24112631.8904
      3253.442        2535.150
  -5078513.191 9  -3937294.66648  20960442.218    20960444.0794   20960449.9574
      1867.814        1455.439
 96 12 12 17  2 29.9990000  0  8  1 29 30 31 25 21 14 15            -0.000140313
   3383191.923 9   2630315.84348  21889130.394    21889132.2634   21889137.2324
     -1873.578       -1459.931
  -6112774.535 9  -4752996.16647  23020563.182    23020565.4164   23020571.3924
      2700.436        2104.236
  -4262555.621 9  -3310414.53046  24871303.035    24871305.2784   24871312.3674
      1639.178        1277.282
   4368259.459 8   3257118.77246  24931119.188    24931120.8484   24931128.6364
     -2223.425       -1732.539
  -4598020.172 9  -3570927.25148  20846785.545    20846787.6304   20846792.7274
      1624.270        1265.665
   3072180.449 9   2389170.26047  22424199.512    22424201.1834   22424207.7634
     -1840.510       -1434.164
  -6410183.946 9  -4975963.49546  24094046.820    24094049.0224   24094055.6234
      3254.407        2535.901
  -5134262.233 9  -3980735.48448  20949833.426    20949835.3644   20949841.2864
      1848.874        1440.681
 96 12 12 17  2 59.9990000  0  8  1 29 30 31 25 21 14 15            -0.000148029
   3439478.036 9   2674175.12748  21899841.286    21899843.1554   21899848.1394
     -1878.200       -1463.532
  -6193663.560 9  -4816026.54347  23005170.378    23005172.7064   23005178.7084
      2692.600        2098.130
  -4311532.673 9  -3348578.44546  24861983.036    24861985.3254   24861992.3434
      1626.204        1267.172
   4434967.805 8   3309099.23346  24943812.961    24943815.1674   24943822.6734
     -2223.529       -1732.620
  -4646474.637 9  -3608683.97248  20837564.925    20837567.0494   20837572.0914
      1606.507        1251.824
   3127518.012 9   2432290.38947  22434730.064    22434731.6024   22434738.1544
     -1848.380       -1440.296
  -6507823.895 9  -5052046.54346  24075466.521    24075468.7184   24075475.3474
      3255.249        2536.558
  -5189437.581 9  -4023729.26348  20939333.946    20939335.8364   20939341.7704
      1829.878        1425.879
 96 12 12 17  3 29.9990000  0  8  1 29 30 31 25 21 14 15            -0.000155755
   3495898.745 9   2718139.29148  21910577.768    21910579.6374   21910584.6614
     -1882.854       -1467.159
  -6274324.623 9  -4878879.28447  22989821.074    22989823.4064   22989829.4024
      2685.256        2092.407
  -4360104.953 9  -3386426.93646  24852740.183    24852742.2614   24852749.2034
      1612.135        1256.209
   4501683.820 8   3361085.67246  24956508.484    24956510.9234   24956518.4244
     -2223.958       -1732.954
  -4694394.258 9  -3646023.93448  20828446.106    20828448.2414   20828453.2654
      1588.377        1237.696
   3183100.382 9   2475601.26747  22445306.981    22445308.6264   22445315.1354
     -1857.036       -1447.041
  -6605479.066 9  -5128141.45046  24056883.306    24056885.5624   24056892.1164
      3255.387        2536.665
  -5244038.391 9  -4066275.35948  20928943.800    20928945.6524   20928951.5934
      1810.485        1410.768
 96 12 12 17  3 59.9990000  0  8  1 29 30 31 25 21 14 15            -0.000163475
   3552461.274 9   2762213.96248  21921341.146    21921343.1194   21921348.1264
     -1887.179       -1470.529
  -6354763.569 9  -4941558.94047  22974514.015    22974516.3484   22974522.3344
      2678.243        2086.943
  -4408232.675 9  -3423929.03646  24843581.897    24843583.8394   24843590.6824
      1597.410        1244.735
   4568417.204 8   3413085.65246  24969207.441    24969209.9594   24969217.5164
     -2223.949       -1732.947
  -4741759.841 9  -3682932.17748  20819432.720    20819434.8374   20819439.8664
      1570.330        1223.634
   3238964.939 9   2519132.03547  22455937.651    22455939.3234   22455945.8864
     -1866.407       -1454.343
  -6703125.803 9  -5204229.79046  24038301.977    24038304.0004   24038310.5124
      3255.166        2536.493
  -5298048.361 9  -4108361.04948  20918666.066    20918667.8774   20918673.8604
      1791.040        1395.616
 96 12 12 17  4 29.9990000  0  8  1 29 30 31 25 21 14 15            -0.000171184
   3609155.254 9   2806391.05648  21932129.654    21932131.6134   21932136.6314
     -1892.220       -1474.457
  -6434999.459 9  -5004080.37747  22959245.515    22959247.9464   22959253.8934
      2670.995        2081.295
  -4455924.339 9  -3461091.32946  24834506.451    24834508.3944   24834515.3034
      1582.409        1233.046
   4635139.337 8   3465076.83645  24981904.340    24981906.7564   24981914.4124
     -2223.760       -1732.800
  -4788599.528 9  -3719430.62948  20810519.395    20810521.5384   20810526.5714
      1552.675        1209.877
   3295109.408 9   2562880.90347  22466621.759    22466623.3684   22466629.8904
     -1876.332       -1462.077
  -6800762.609 9  -5280310.38546  24019721.948    24019724.2804   24019730.8604
      3254.195        2535.736
  -5351479.188 9  -4149995.45948  20908498.435    20908500.3334   20908506.3224
      1771.273        1380.213
 96 12 12 17  4 59.9990000  0  8  1 29 30 31 25 21 14 15            -0.000178875
   3665979.257 9   2850669.47848  21942942.888    21942944.8584   21942949.8974
     -1896.237       -1477.587
  -6515035.899 9  -5066446.40147  22944015.043    22944017.5074   22944023.4194
      2664.658        2076.357
  -4503188.531 9  -3497920.56346  24825512.186    24825514.2824   24825521.2674
      1568.443        1222.163
   4701813.756 8   3517030.84146  24994592.048    24994594.6594   24994602.2664
     -2221.559       -1731.085
  -4834934.486 9  -3755535.78548  20801702.118    20801704.2714   20801709.3114
      1536.037        1196.912
   3351532.492 9   2606846.88847  22477358.654    22477360.3924   22477366.9604
     -1885.318       -1469.079
  -6898389.802 9  -5356383.49747  24001144.042    24001146.4184   24001152.9414
      3254.013        2535.595
  -5404338.043 9  -4191184.17548  20898439.772    20898441.6214   20898447.6204
      1752.458        1365.552
 96 12 12 17  5 29.9990000  0  8  1 29 30 31 25 21 14 15            -0.000186557
   3722921.079 9   2895039.70148  21953778.524    21953780.5674   21953785.6024
     -1900.473       -1480.888
  -6594898.331 9  -5128676.83847  22928817.859    22928820.1794   22928826.0384
      2658.818        2071.806
  -4550050.450 9  -3534436.35146  24816594.690    24816596.6924   24816603.6274
      1555.333        1211.948
   4768421.083 8   3568932.58146  25007267.383    25007269.7194   25007277.2584
     -2219.408       -1729.409
  -4880777.548 9  -3791257.64548  20792978.488    20792980.6424   20792985.6664
      1519.539        1184.056
   3408218.142 9   2651017.46147  22488145.648    22488147.3874   22488153.9284
     -1894.286       -1476.067
  -6996010.904 9  -5432451.85647  23982567.483    23982569.6694   23982576.1984
      3253.654        2535.315
  -5456639.925 9  -4231938.89048  20888487.036    20888488.9064   20888494.9024
      1733.773        1350.992
 96 12 12 17  5 59.9990000  0  8  1 29 30 31 25 21 14 15            -0.000194221
   3779998.101 9   2939515.26848  21964640.115    21964641.9814   21964647.0334
     -1905.000       -1484.416
  -6674561.785 9  -5190752.22547  22913658.285    22913660.7074   22913666.5584
      2651.821        2066.354
  -4596519.627 9  -3570646.09646  24807752.038    24807753.9754   24807760.7294
      1542.397        1201.868
   4834964.625 8   3620784.62646  25019930.186    25019932.5934   25019940.3024
     -2217.204       -1727.691
  -4926110.750 9  -3826582.20448  20784351.880    20784354.0454   20784359.0424
      1502.363        1170.672
   3465181.585 9   2695404.50847  22498985.368    22498987.2144   22498993.7464
     -1903.487       -1483.237
  -7093618.721 9  -5508509.86747  23963993.261    23963995.5134   23964002.0194
      3253.344        2535.073
  -5508368.478 9  -4272246.85448  20878643.460    20878645.3094   20878651.2584
      1714.425        1335.916
 96 12 12 17  6 29.9990000  0  8  1 29 30 31 25 21 14 15            -0.000201870
   3837223.217 9   2984106.23448  21975529.644    21975531.5784   21975536.6574
     -1910.260       -1488.514
  -6754010.951 9  -5252660.64247  22898539.484    22898542.0284   22898547.8694
      2644.478        2060.632
  -4642599.691 9  -3606552.63846  24798983.424    24798985.2074   24798991.9374
      1529.214        1191.595
   4901451.303 8   3672592.35146  25032582.129    25032584.5394   25032592.3834
     -2215.766       -1726.571
  -4970916.172 9  -3861495.50548  20775825.696    20775827.8344   20775832.8274
      1484.324        1156.616
   3522425.147 9   2740009.81647  22509878.732    22509880.3594   22509886.9074
     -1913.032       -1490.674
  -7191215.643 9  -5584559.38347  23945421.240    23945423.4404   23945429.9324
      3252.911        2534.736
  -5559504.225 9  -4312092.88848  20868912.646    20868914.4744   20868920.4374
      1694.296        1320.231
 96 12 12 17  6 59.9990000  0  8  1 29 30 31 25 21 14 15            -0.000209515
   3894593.340 9   3028810.19748  21986446.851    21986448.7844   21986453.8734
     -1914.731       -1491.998
  -6833249.936 9  -5314405.28247  22883460.938    22883463.3524   22883469.1934
      2637.860        2055.475
  -4688288.877 9  -3642154.60446  24790289.223    24790290.8664   24790297.4994
      1516.397        1181.608
   4967891.043 8   3724363.48446  25045225.407    25045227.5874   25045235.7084
     -2214.226       -1725.371
  -5015186.024 9  -3895991.48048  20767401.463    20767403.5584   20767408.5224
      1466.609        1142.812
   3579948.961 9   2784833.50947  22520825.330    22520826.8314   22520833.3914
     -1922.261       -1497.866
  -7288814.135 9  -5660610.12147  23926848.626    23926851.0264   23926857.5834
      3253.342        2535.072
  -5610042.223 9  -4351473.14448  20859295.551    20859297.4294   20859303.3564
      1674.524        1304.824
 96 12 12 17  7 29.9990000  0  8  1 29 30 31 25 21 14 15            -0.000217177
   3952085.076 9   3073608.92248  21997387.316    21997389.1154   21997394.2184
     -1918.745       -1495.126
  -6912304.774 9  -5376006.43547  22868417.215    22868419.7074   22868425.5354
      2631.540        2050.551
  -4733604.033 9  -3677465.13046  24781665.882    24781667.7074   24781674.3074
      1503.718        1171.728
   5034290.598 8   3776103.31746  25057861.002    25057863.0294   25057871.2074
     -2213.177       -1724.553
  -5058931.014 9  -3930078.47348  20759076.989    20759079.1304   20759084.1154
      1448.960        1129.060
   3637737.887 9   2829863.77447  22531822.126    22531823.7394   22531830.2804
     -1931.213       -1504.841
  -7386445.190 9  -5736686.22647  23908270.181    23908272.4564   23908279.0374
      3254.676        2536.111
  -5659996.793 9  -4390398.78048  20849789.623    20849791.4174   20849797.2974
      1654.964        1289.582
 96 12 12 17  7 59.9990000  0  8  1 29 30 31 25 21 14 15            -0.000224862
   4009682.157 9   3118489.73648  22008347.764    22008349.4784   22008354.6034
     -1921.760       -1497.475
  -6991173.193 9  -5437462.32647  22853409.128    22853411.5224   22853417.3424
      2625.729        2046.023
  -4778543.236 9  -3712482.72646  24773114.114    24773116.0684   24773122.6584
      1491.451        1162.170
   5100656.925 8   3827817.28546  25070489.670    25070491.9414   25070500.3354
     -2212.041       -1723.668
  -5102151.053 9  -3963756.41048  20750852.463    20750854.6404   20750859.6064
      1431.671        1115.588
   3695785.499 9   2875095.60947  22542868.201    22542869.8824   22542876.4224
     -1939.368       -1511.196
  -7484128.452 9  -5812803.03247  23889681.592    23889683.9144   23889690.4424
      3256.671        2537.666
  -5709369.888 9  -4428871.32148  20840394.226    20840396.0314   20840401.8954
      1635.857        1274.694
 96 12 12 17  8 29.9990000  0  8  1 29 30 31 25 21 14 15            -0.000232565
   4067387.888 9   3163455.20948  22019328.899    22019330.5874   22019335.6824
     -1925.408       -1500.318
  -7069853.405 9  -5498771.56347  22838436.765    22838439.1934   22838444.9934
      2619.361        2041.061
  -4823090.826 9  -3747195.15446  24764637.147    24764638.9194   24764645.5474
      1478.202        1151.846
   5167004.782 9   3879516.82646  25083115.406    25083117.4234   25083125.9514
     -2211.384       -1723.156
  -5144835.552 9  -3997017.03848  20742729.903    20742732.0534   20742736.9824
      1413.851        1101.702
   3754099.004 9   2920534.64147  22553965.058    22553966.6684   22553973.2154
     -1948.184       -1518.065
  -7581844.358 9  -5888945.28047  23871086.974    23871089.1544   23871095.6534
      3257.550        2538.351
  -5758154.059 9  -4466884.95748  20831110.915    20831112.7264   20831118.5854
      1616.323        1259.472
 96 12 12 17  8 59.9990000  0  8  1 29 30 31 25 21 14 15            -0.000240280
   4125198.235 9   3208502.20048  22030329.898    22030331.5984   22030336.6904
     -1928.936       -1503.067
  -7148333.531 9  -5559924.88847  22823502.579    22823504.9694   22823510.6764
      2612.356        2035.602
  -4867235.579 9  -3781593.72846  24756236.623    24756238.4244   24756245.1104
      1464.480        1141.153
   5233326.899 9   3931196.36246  25095736.091    25095738.2274   25095746.6894
     -2210.485       -1722.456
  -5186985.067 9  -4029860.79648  20734709.084    20734711.2844   20734716.2014
      1395.727        1087.579
   3812670.707 9   2966174.85347  22565110.943    22565112.5554   22565119.1484
     -1956.865       -1524.830
  -7679582.630 9  -5965104.94247  23852487.880    23852490.1344   23852496.6184
      3257.973        2538.680
  -5806354.816 9  -4504443.98048  20821938.650    20821940.4464   20821946.2904
      1596.790        1244.252
 96 12 12 17  9 29.9990000  0  8  1 29 30 31 25 21 14 15            -0.000247999
   4183108.613 9   3253627.13548  22041349.896    22041351.6274   22041356.7774
     -1932.017       -1505.468
  -7226595.912 9  -5620908.55047  22808609.809    22808612.1214   22808617.8224
      2604.659        2029.604
  -4910970.611 9  -3815673.03246  24747914.125    24747915.8574   24747922.6074
      1450.718        1130.430
   5299620.174 9   3982853.38846  25108351.686    25108353.5234   25108361.9664
     -2209.265       -1721.505
  -5228586.432 9  -4062277.41948  20726792.601    20726794.7784   20726799.7204
      1377.486        1073.366
   3871497.344 9   3012013.72247  22576305.363    22576306.9454   22576313.5594
     -1965.291       -1531.396
  -7777329.872 9  -6041271.60047  23833887.224    23833889.4514   23833895.9404
      3258.104        2538.782
  -5853970.997 9  -4541547.49448  20812877.542    20812879.3894   20812885.2134
      1577.278        1229.048
 96 12 12 17  9 59.9990000  0  8  1 29 30 31 25 21 14 15            -0.000255701
   4241123.368 9   3298833.40248  22052389.752    22052391.5254   22052396.6904
     -1935.852       -1508.456
  -7304604.796 9  -5681694.68148  22793765.147    22793767.5554   22793773.2274
      2595.866        2022.753
  -4954270.078 9  -3849412.93946  24739674.416    24739676.3034   24739683.0514
      1435.870        1118.860
   5365884.197 9   4034487.62246  25120961.121    25120963.1394   25120971.6614
     -2208.357       -1720.798
  -5269632.241 9  -4094261.14748  20718981.822    20718983.9874   20718988.9424
      1358.807        1058.811
   3930593.514 9   3058062.61347  22587550.888    22587552.5804   22587559.2354
     -1974.455       -1538.536
  -7875056.538 9  -6117422.23147  23815290.484    23815292.6784   23815299.1334
      3256.872        2537.822
  -5900984.328 9  -4578181.25448  20803931.235    20803933.0674   20803938.8594
      1556.845        1213.126
 96 12 12 17 10 29.9990000  0  8  1 29 30 31 25 21 14 15            -0.000263388
   4299235.894 9   3344115.85148  22063448.177    22063450.0044   22063455.2064
     -1938.530       -1510.543
  -7382372.998 9  -5742293.26647  22778966.431    22778968.7244   22778974.3774
      2588.431        2016.959
  -4997138.192 9  -3882816.74246  24731516.817    24731518.8304   24731525.6294
      1421.834        1107.923
   5432097.293 9   4086082.20146  25133561.348    25133563.2094   25133571.6274
     -2206.128       -1719.061
  -5310142.628 9  -4125827.66348  20711272.935    20711275.0764   20711280.0334
      1341.637        1045.431
   3989941.794 9   3104307.96247  22598844.470    22598846.2364   22598852.8784
     -1982.139       -1544.524
  -7972764.452 9  -6193558.23947  23796697.263    23796699.4674   23796705.9084
      3256.868        2537.819
  -5947406.485 9  -4614354.36148  20795097.414    20795099.2424   20795104.9924
      1537.698        1198.206
 96 12 12 17 10 59.9990000  0  8  1 29 30 31 25 21 14 15            -0.000271069
   4357434.747 9   3389465.57048  22074522.957    22074524.8894   22074530.1524
     -1940.910       -1512.397
  -7459908.007 9  -5802710.13347  22764211.896    22764214.2764   22764219.9134
      2581.204        2011.328
  -5039576.486 9  -3915885.59646  24723440.817    24723443.2024   24723450.0274
      1407.870        1097.042
   5498257.245 9   4137635.33446  25146151.471    25146153.0904   25146161.3914
     -2204.143       -1717.514
  -5350128.946 9  -4156985.81748  20703663.731    20703665.9374   20703670.8764
      1324.701        1032.235
   4049528.683 9   3150739.23147  22610183.590    22610185.2644   22610191.9414
     -1990.053       -1550.691
  -8070458.209 9  -6269683.20747  23778106.682    23778108.9594   23778115.4184
      3256.525        2537.552
  -5993239.135 9  -4650068.10948  20786375.775    20786377.5834   20786383.3234
      1518.264        1183.063
 96 12 12 17 11 29.9990000  0  8  1 29 30 31 25 21 14 15            -0.000278749
   4415694.841 9   3434863.01048  22085609.493    22085611.4424   22085616.7644
     -1943.201       -1514.183
  -7537239.686 9  -5862968.56247  22749496.192    22749498.5384   22749504.1604
      2574.245        2005.905
  -5081598.732 9  -3948630.25846  24715444.075    24715446.6414   24715453.4524
      1393.707        1086.005
   5564348.651 9   4189135.07446  25158728.377    25158729.9354   25158738.2424
     -2201.823       -1715.706
  -5389625.013 9  -4187761.95148  20696147.856    20696150.0654   20696155.0234
      1308.343        1019.488
   4109350.146 9   3197353.28047  22621567.231    22621568.9794   22621575.7004
     -1998.093       -1556.956
  -8168156.311 9  -6345811.58247  23759515.491    23759517.6414   23759524.0964
      3256.680        2537.673
  -6038493.336 9  -4685331.12048  20777764.205    20777766.0204   20777771.7274
      1498.671        1167.795
 96 12 12 17 11 59.9990000  0  8  1 29 30 31 25 21 14 15            -0.000286417
   4474056.517 9   3480339.60248  22096715.476    22096717.3344   22096722.6794
     -1947.292       -1517.370
  -7614352.560 9  -5923056.49148  22734821.984    22734824.4394   22734830.0374
      2567.071        2000.315
  -5123184.521 9  -3981034.80046  24707530.720    24707533.0594   24707540.0034
      1379.106        1074.628
   5630379.190 9   4240587.36146  25171293.575    25171295.2254   25171303.5494
     -2199.889       -1714.199
  -5428610.751 9  -4218140.42348  20688729.195    20688731.2974   20688736.2804
      1290.913        1005.906
   4169434.107 9   3244171.88347  22633000.924    22633002.6114   22633009.4324
     -2007.114       -1563.985
  -8265847.303 9  -6421934.41047  23740925.508    23740927.6504   23740934.1254
      3256.480        2537.517
  -6083143.011 9  -4720123.06948  20769267.698    20769269.4794   20769275.1754
      1478.341        1151.954
 96 12 12 17 12 29.9990000  0  8  1 29 30 31 25 21 14 15            -0.000294093
   4532523.536 9   3525898.28348  22107841.299    22107843.2814   22107848.6584
     -1951.054       -1520.302
  -7691277.872 9  -5982998.26248  22720183.655    22720186.0404   22720191.6414
      2560.599        1995.272
  -5164353.995 9  -4013114.92546  24699696.713    24699698.7694   24699705.8134
      1364.947        1063.595
   5696332.914 9   4291979.81146  25183844.297    25183845.9204   25183854.0654
     -2197.623       -1712.434
  -5467089.419 9  -4248123.78148  20681406.942    20681409.0224   20681413.9954
      1273.730         992.517
   4229769.028 9   3291186.02947  22644482.314    22644483.9894   22644490.8704
     -2015.798       -1570.752
  -8363561.321 9  -6498075.18447  23722331.131    23722333.2664   23722339.7494
      3257.313        2538.166
  -6127203.141 9  -4754455.63948  20760883.382    20760885.1274   20760890.7844
      1458.416        1136.428
 96 12 12 17 12 59.9990000  0  8  1 29 30 31 25 21 14 15            -0.000301773
   4591111.853 9   3571551.47948  22118990.321    22118992.2934   22118997.7034
     -1954.742       -1523.176
  -7767996.884 9  -6042779.26548  22705584.576    22705586.8694   22705592.4944
      2554.306        1990.368
  -5205092.261 9  -4044859.02446  24691944.878    24691946.6164   24691953.6494
      1351.150        1052.844
   5762214.289 9   4343315.89945  25196381.108    25196382.7974   25196391.0444
     -2194.342       -1709.877
  -5505039.776 9  -4277695.47748  20674185.201    20674187.2814   20674192.2354
      1256.469         979.067
   4290372.536 9   3338409.47347  22656014.728    22656016.4904   22656023.3814
     -2024.426       -1577.475
  -8461302.072 9  -6574236.78447  23703731.532    23703733.8134   23703740.2934
      3258.957        2539.447
  -6170659.159 9  -4788317.47148  20752613.997    20752615.7374   20752621.3674
      1438.833        1121.168
 96 12 12 17 13 29.9990000  0  8  1 29 30 31 25 21 14 15            -0.000309449
   4649853.696 9   3617324.30548  22130168.604    22130170.5264   22130175.9324
     -1960.882       -1527.960
  -7844495.104 9  -6102388.23448  22691027.421    22691029.7364   22691035.3744
      2546.148        1984.011
  -5245377.513 9  -4076250.09846  24684278.944    24684280.6664   24684287.6384
      1335.373        1040.550
   5828024.258 9   4394596.31545  25208904.532    25208906.0214   25208914.4644
     -2192.493       -1708.436
  -5542427.212 9  -4306828.52748  20667070.602    20667072.7094   20667077.6214
      1236.519         963.521
   4351269.233 9   3385861.37347  22667603.211    22667604.7854   22667611.7424
     -2034.849       -1585.597
  -8559069.064 9  -6650418.83847  23685127.125    23685129.3954   23685135.8714
      3259.294        2539.710
  -6213494.838 9  -4821695.92248  20744462.572    20744464.3804   20744469.9994
      1417.442        1104.500
 96 12 12 17 13 59.9990000  0  8  1 29 30 31 25 21 14 15            -0.000317132
   4708748.675 9   3663216.46448  22141375.995    22141377.9284   22141383.3204
     -1965.081       -1531.232
  -7920785.974 9  -6161835.62748  22676509.646    22676511.9984   22676517.6944
      2540.049        1979.259
  -5285228.030 9  -4107302.40546  24676695.720    24676697.3874   24676704.2994
      1321.466        1029.714
   5893752.202 9   4445812.87745  25221412.175    25221413.7954   25221421.9714
     -2189.370       -1706.003
  -5579249.063 9  -4335520.86748  20660063.599    20660065.7394   20660070.6474
      1218.491         949.474
   4412450.743 9   3433535.20947  22679245.733    22679247.3004   22679254.3284
     -2043.626       -1592.436
  -8656870.591 9  -6726627.79547  23666516.035    23666518.4274   23666524.8054
      3260.839        2540.914
  -6255722.899 9  -4854600.91348  20736426.790    20736428.6594   20736434.2554
      1397.890        1089.265
 96 12 12 17 14 29.9990000  0  8  1 29 30 31 25 21 14 15            -0.000324828
   4767764.457 9   3709202.76348  22152606.334    22152608.2614   22152613.6514
     -1969.695       -1534.827
  -7996882.837 9  -6221131.83348  22662028.857    22662031.1904   22662036.9384
      2532.571        1973.432
  -5324649.208 9  -4138020.14246  24669194.073    24669195.8274   24669202.5754
      1306.128        1017.762
   5959392.657 9   4496961.19745  25233903.418    25233904.7694   25233913.0124
     -2187.078       -1704.217
  -5615523.351 9  -4363786.53248  20653160.829    20653162.9774   20653167.8864
      1199.347         934.556
   4473895.554 9   3481414.19747  22690938.227    22690939.9494   22690946.9704
     -2053.098       -1599.817
  -8754700.118 9  -6802858.56647  23647899.773    23647902.1284   23647908.4134
      3260.601        2540.728
  -6297353.622 9  -4887040.44248  20728504.732    20728506.6104   20728512.2024
      1377.069        1073.041
 96 12 12 17 14 59.9990000  0  8  1 29 30 31 25 21 14 15            -0.000332521
   4826906.805 9   3755287.68148  22163860.753    22163862.6844   22163868.0814
     -1972.878       -1537.308
  -8072761.422 9  -6280257.95748  22647589.495    22647591.8734   22647597.7064
      2526.449        1968.662
  -5363617.918 9  -4168385.30046  24661778.417    24661780.2964   24661787.0674
      1292.108        1006.837
   6024950.501 8   4548045.11945  25246378.668    25246380.0174   25246388.0584
     -2183.270       -1701.249
  -5651225.270 9  -4391606.20148  20646366.984    20646369.1364   20646374.0474
      1181.178         920.398
   4535617.889 9   3529509.44947  22702683.654    22702685.3914   22702692.3804
     -2061.441       -1606.318
  -8852515.562 9  -6879078.37047  23629286.279    23629288.4574   23629294.7434
      3260.513        2540.659
  -6338366.749 9  -4918998.73448  20720700.209    20720702.0874   20720707.6624
      1357.406        1057.719
 96 12 12 17 15 29.9990000  0  8  1 29 30 31 25 21 14 15            -0.000340214
   4886150.726 9   3801451.75348  22175134.490    22175136.4304   22175141.8364
     -1976.671       -1540.263
  -8148450.041 9  -6339236.05948  22633186.332    22633188.7724   22633194.5974
      2519.284        1963.078
  -5402155.355 9  -4198414.40446  24654444.644    24654446.7714   24654453.5094
      1277.042         995.098
   6090407.468 8   4599050.50945  25258834.695    25258836.3194   25258844.1514
     -2180.703       -1699.249
  -5686383.058 9  -4419001.86648  20639676.720    20639678.8084   20639683.7094
      1162.692         905.994
   4597601.403 9   3577808.20047  22714478.835    22714480.5014   22714487.5154
     -2070.724       -1613.551
  -8950301.537 9  -6955275.20247  23610678.138    23610680.3554   23610686.6884
      3258.438        2539.043
  -6378779.004 9  -4950488.81348  20713010.021    20713011.8994   20713017.4594
      1336.659        1041.552
 96 12 12 17 15 59.9990000  0  8  1 29 30 31 25 21 14 15            -0.000347898
   4945481.269 9   3847683.31748  22186424.768    22186426.6544   22186432.0764
     -1978.670       -1541.821
  -8223940.256 9  -6398059.55448  22618821.053    22618823.3804   22618829.2544
      2513.352        1958.456
  -5440258.859 9  -4228105.38346  24647193.993    24647195.8104   24647202.6134
      1263.080         984.218
   6155768.493 8   4649981.06645  25271272.296    25271274.1294   25271281.8654
     -2176.685       -1696.118
  -5721012.753 9  -4445986.04348  20633086.882    20633088.9734   20633093.8524
      1145.873         892.888
   4659833.492 9   3626300.65847  22726321.457    22726322.9414   22726329.9894
     -2078.021       -1619.237
  -9048036.815 9  -7031432.52647  23592079.601    23592081.9894   23592088.3314
      3257.440        2538.265
  -6418585.336 9  -4981506.74448  20705435.108    20705436.9984   20705442.5684
      1317.049        1026.272
 96 12 12 17 16 29.9990000  0  7  1 29 30 25 21 14 15               -0.000355594
   5004884.031 9   3893971.15748  22197728.714    22197730.6214   22197736.0614
     -1981.784       -1544.247
  -8299241.673 9  -6456735.93448  22604491.593    22604493.9884   22604499.8514
      2506.551        1953.157
  -5477928.854 9  -4257458.56246  24640025.738    24640027.5214   24640034.1474
      1248.042         972.500
  -5755118.585 9  -4472562.01149  20626596.774    20626598.8554   20626603.7424
      1127.676         878.709
   4722292.536 9   3674969.95347  22738207.121    22738208.5754   22738215.6194
     -2086.383       -1625.753
  -9145737.175 9  -7107562.64646  23573487.838    23573490.1484   23573496.5484
      3255.907        2537.070
  -6457791.975 9  -5012057.38848  20697974.411    20697976.2274   20697981.8094
      1296.515        1010.271
 96 12 12 17 16 59.9990000  0  7  1 29 30 25 21 14 15               -0.000363288
   5064377.952 9   3940330.03048  22209050.017    22209051.9624   22209057.4224
     -1984.519       -1546.378
  -8374345.445 9  -6515258.30348  22590199.913    22590202.2374   22590208.0394
      2500.179        1948.191
  -5515152.196 9  -4286463.70946  24632942.233    24632944.1204   24632950.6504
      1233.351         961.053
  -5788686.845 9  -4498719.08948  20620208.945    20620211.0344   20620215.9264
      1110.237         865.120
   4785012.876 9   3723842.85047  22750142.328    22750143.9294   22750151.0294
     -2095.075       -1632.526
  -9243408.446 9  -7183670.09247  23554901.497    23554903.8354   23554910.3374
      3255.475        2536.734
  -6496385.236 9  -5042130.07148  20690630.370    20690632.1904   20690637.7584
      1276.230         994.465
 96 12 12 17 17 29.9990000  0  7  1 29 30 25 21 14 15               -0.000370989
   5123925.030 9   3986730.32248  22220381.616    22220383.4234   22220388.8714
     -1985.878       -1547.437
  -8449271.148 9  -6573641.92548  22575942.009    22575944.3624   22575950.0994
      2494.057        1943.421
  -5551957.118 9  -4315142.80946  24625938.204    24625940.2234   24625946.7954
      1219.651         950.377
  -5821763.799 9  -4524493.33448  20613914.566    20613916.7064   20613921.6024
      1094.027         852.489
   4847973.842 9   3772903.26847  22762123.414    22762125.0734   22762132.2014
     -2102.966       -1638.675
  -9341101.159 9  -7259794.24147  23536311.079    23536313.4584   23536320.0434
      3256.892        2537.838
  -6534392.255 9  -5071745.93948  20683397.983    20683399.7124   20683405.2544
      1256.874         979.382
 96 12 12 17 17 59.9990000  0  7  1 29 30 25 21 14 15               -0.000378693
   5183534.236 9   4033179.02748  22231724.853    22231726.6944   22231732.1364
     -1988.025       -1549.110
  -8523988.455 9  -6631863.16048  22561723.800    22561726.1444   22561731.8584
      2487.258        1938.123
  -5588330.055 9  -4343485.31346  24619016.823    24619018.6264   24619025.2434
      1205.190         939.109
  -5854318.578 9  -4549860.68948  20607719.663    20607721.7514   20607726.6274
      1076.381         838.738
   4911196.215 9   3822167.37247  22774154.245    22774155.9984   22774163.1084
     -2111.855       -1645.601
  -9438829.523 9  -7335946.19647  23517713.880    23517716.2854   23517722.8994
      3258.409        2539.020
  -6571792.725 9  -5100889.18048  20676280.886    20676282.6404   20676288.1874
      1236.614         963.595
 96 12 12 17 18 29.9990000  0  7  1 29 30 25 21 14 15               -0.000386393
   5243217.055 9   4079685.09148  22243082.070    22243083.9654   22243089.4514
     -1990.600       -1551.117
  -8598495.933 9  -6689920.89248  22547545.369    22547547.7954   22547553.5244
      2480.148        1932.583
  -5624258.838 9  -4371481.73146  24612179.752    24612181.6854   24612188.2554
      1190.253         927.470
  -5886335.806 9  -4574809.16848  20601627.007    20601629.0554   20601633.9184
      1058.421         824.744
   4974703.338 9   3871653.35447  22786239.386    22786241.1104   22786248.2384
     -2121.657       -1653.239
  -9536594.328 9  -7412126.53147  23499109.884    23499112.1914   23499118.7594
      3259.400        2539.792
  -6608579.992 9  -5129554.59548  20669280.505    20669282.2534   20669287.8224
      1216.087         947.600
 96 12 12 17 18 59.9990000  0  7  1 29 30 25 21 14 15               -0.000394086
   5302971.549 9   4126247.00748  22254453.033    22254454.8814   22254460.4014
     -1993.885       -1553.677
  -8672792.080 9  -6747813.94948  22533407.344    22533409.6984   22533415.3734
      2472.035        1926.261
  -5659739.338 9  -4399128.85946  24605427.971    24605429.9784   24605436.5164
      1174.234         914.988
  -5917818.781 9  -4599341.34649  20595635.894    20595638.0224   20595642.8954
      1039.611         810.086
   5038492.277 9   3921358.95647  22798378.208    22798379.8224   22798386.9424
     -2131.556       -1660.953
  -9634388.282 9  -7488329.58047  23480500.287    23480502.5944   23480509.1014
      3259.102        2539.560
  -6644752.946 9  -5157741.32648  20662396.932    20662398.7914   20662404.3354
      1194.609         930.864
 96 12 12 17 19 29.9990000  0  7  1 29 30 25 21 14 15               -0.000401787
   5362797.953 9   4172864.95348  22265837.600    22265839.4644   22265844.9684
     -1995.600       -1555.013
  -8746876.613 9  -6805542.11548  22519309.443    22519311.8414   22519317.4974
      2466.234        1921.741
  -5694767.014 9  -4426423.14646  24598762.558    24598764.4214   24598770.9614
      1159.926         903.838
  -5948764.034 9  -4623454.52348  20589747.270    20589749.3384   20589754.1964
      1022.481         796.738
   5102532.747 9   3971260.53247  22810564.678    22810566.3554   22810573.4904
     -2138.648       -1666.479
  -9732193.986 9  -7564541.80047  23461888.482    23461890.8184   23461897.2314
      3260.317        2540.507
  -6680311.986 9  -5185449.68448  20655630.357    20655632.1364   20655637.6814
      1175.096         915.659
 96 12 12 17 19 59.9990000  0  7  1 29 30 25 21 14 15               -0.000409511
   5422716.009 9   4219554.31848  22277239.688    22277241.4754   22277247.0074
     -1998.996       -1557.659
  -8820778.572 9  -6863128.01548  22505246.304    22505248.7274   22505254.3654
      2460.602        1917.352
  -5729332.088 9  -4453356.95446  24592184.784    24592186.9034   24592193.4364
      1144.227         891.605
  -5979167.663 9  -4647145.65148  20583961.644    20583963.7044   20583968.5374
      1004.591         782.798
   5166805.296 9   4021342.95647  22822795.345    22822797.0914   22822804.1844
     -2146.138       -1672.315
  -9829999.509 9  -7640753.86547  23443276.740    23443279.0174   23443285.4374
      3259.974        2540.239
  -6715260.939 9  -5212682.64948  20648979.779    20648981.5604   20648987.1424
      1154.884         899.910
 96 12 12 17 20 29.9990000  0  7  1 29 30 25 21 14 15               -0.000417255
   5482740.406 9   4266326.54848  22288661.974    22288663.7454   22288669.2854
     -2002.766       -1560.597
  -8894504.383 9  -6920576.65948  22491216.846    22491219.1614   22491224.7504
      2454.148        1912.323
  -5763418.741 9  -4479917.98046  24585698.387    24585700.5434   24585706.9704
      1128.160         879.086
  -6009037.043 9  -4670420.48048  20578277.681    20578279.7494   20578284.5654
       986.455         768.666
   5231303.834 9   4071601.47847  22835069.107    22835070.8354   22835077.9394
     -2153.970       -1678.418
  -9927779.991 9  -7716946.41847  23424669.784    23424672.0154   23424678.3874
      3258.454        2539.055
  -6749600.856 9  -5239441.03848  20642445.127    20642446.9224   20642452.4924
      1134.200         883.792
 96 12 12 17 20 59.9990000  0  7  1 29 30 25 21 14 15               -0.000424999
   5542880.554 9   4313188.96848  22300106.226    22300108.0674   22300113.5774
     -2007.115       -1563.986
  -8968027.356 9  -6977867.25348  22477225.901    22477228.2084   22477233.7634
      2446.598        1906.440
  -5797028.059 9  -4506107.06846  24579302.712    24579304.8914   24579311.3544
      1111.763         866.309
  -6038364.884 9  -4693273.32848  20572696.764    20572698.8234   20572703.6274
       968.048         754.323
   5296040.097 9   4122045.23847  22847388.282    22847389.8404   22847396.8874
     -2162.580       -1685.127
 -10025509.101 9  -7793098.94447  23406072.606    23406074.7734   23406081.0684
      3256.175        2537.279
  -6783317.853 9  -5265714.03248  20636028.978    20636030.8104   20636036.3754
      1112.934         867.221
 96 12 12 17 21 29.9990000  0  7  1 29 30 25 21 14 15               -0.000432722
   5603142.331 9   4360146.16748  22311573.610    22311575.5674   22311581.0184
     -2010.256       -1566.433
  -9041322.593 9  -7034980.39648  22463278.215    22463280.5584   22463286.1004
      2439.830        1901.166
  -5830152.935 9  -4531918.64046  24572999.205    24573001.2714   24573007.8294
      1096.626         854.514
  -6067145.439 9  -4715699.72048  20567219.983    20567222.0734   20567226.8484
       950.707         740.811
   5361043.079 9   4172696.82647  22859757.858    22859759.5944   22859766.6354
     -2171.134       -1691.793
 -10123175.582 9  -7869202.68247  23387487.202    23387489.4914   23387495.7184
      3255.142        2536.474
  -6816399.269 9  -5291491.77348  20629733.847    20629735.6514   20629741.1974
      1092.536         851.327
 96 12 12 17 21 59.9990000  0  7  1 29 30 25 21 14 15               -0.000440418
   5663496.462 9   4407175.33348  22323058.732    22323060.6594   22323066.0504
     -2013.368       -1568.858
  -9114401.134 9  -7091924.68748  22449371.829    22449374.1694   22449379.6394
      2431.745        1894.866
  -5862823.999 9  -4557376.60146  24566782.241    24566784.1824   24566790.7194
      1081.367         842.624
  -6095397.206 9  -4737714.06948  20561843.845    20561845.9344   20561850.6814
       932.495         726.619
   5426315.590 9   4223558.43047  22872178.966    22872180.6114   22872187.6864
     -2180.427       -1699.034
 -10220804.573 9  -7945277.18547  23368909.028    23368911.3124   23368917.4694
      3253.476        2535.176
  -6848864.113 9  -5316789.06548  20623556.058    20623557.7984   20623563.3344
      1071.648         835.050
 96 12 12 17 22 29.9990000  0  7  1 29 30 25 21 14 15               -0.000448080
   5723921.491 9   4454259.73548  22334557.394    22334559.1944   22334564.5924
     -2015.270       -1570.340
  -9187226.843 9  -7148671.96448  22435513.518    22435515.8784   22435521.3344
      2423.060        1888.099
  -5895054.741 9  -4582491.43946  24560648.917    24560650.7744   24560657.4434
      1066.994         831.424
  -6123106.740 9  -4759305.89948  20556570.847    20556572.9904   20556577.7334
       914.394         712.515
   5491860.747 9   4274632.48647  22884651.895    22884653.4644   22884660.5524
     -2189.482       -1706.090
 -10318401.921 9  -8021327.04347  23350336.948    23350339.1304   23350345.1974
      3252.819        2534.664
  -6880706.893 9  -5341601.63148  20617496.647    20617498.3294   20617503.8744
      1050.871         818.861
 96 12 12 17 22 59.9990000  0  7  1 29 30 25 21 14 15               -0.000455721
   5784396.601 9   4501383.16848  22346065.519    22346067.2754   22346072.6544
     -2016.489       -1571.290
  -9259803.522 9  -7205225.19448  22421702.592    22421704.9934   22421710.4134
      2415.434        1882.156
  -5926857.794 9  -4607273.03446  24554597.327    24554598.8714   24554605.5964
      1052.888         820.432
  -6150278.421 9  -4780478.62648  20551400.202    20551402.3504   20551407.1314
       896.829         698.828
   5557669.878 9   4325912.23147  22897174.991    22897176.5634   22897183.6674
     -2197.745       -1712.529
 -10415998.776 9  -8097376.50947  23331764.854    23331767.0404   23331773.1014
      3253.651        2535.312
  -6911931.138 9  -5365932.21848  20611554.893    20611556.5534   20611562.1094
      1030.581         803.050
 96 12 12 17 23 29.9990000  0  7  1 29 30 25 21 14 15               -0.000463374
   5844914.034 9   4548539.58248  22357581.461    22357583.3754   22357588.7834
     -2018.320       -1572.717
  -9332154.198 9  -7261602.30248  22407934.630    22407937.0854   22407942.5314
      2407.838        1876.237
  -5958219.166 9  -4631710.43646  24548629.556    24548631.0604   24548637.6374
      1037.645         808.555
  -6176905.762 9  -4801227.18749  20546333.246    20546335.3454   20546340.1164
       878.135         684.261
   5623719.446 9   4377379.32747  22909743.663    22909745.4244   22909752.5694
     -2205.626       -1718.670
 -10513624.406 9  -8173448.40947  23313187.140    23313189.4794   23313195.5044
      3254.442        2535.929
  -6942538.076 9  -5389781.78748  20605730.581    20605732.2684   20605737.7914
      1009.719         786.794
 96 12 12 17 23 59.9990000  0  7  1 29 30 25 21 14 15               -0.000471053
   5905491.717 9   4595742.93748  22369108.992    22369110.9344   22369116.3724
     -2020.169       -1574.158
  -9404281.677 9  -7317805.50248  22394209.211    22394211.6454   22394217.0864
      2400.865        1870.804
  -5989121.166 9  -4655789.89646  24542749.100    24542750.4964   24542757.1554
      1022.400         796.675
  -6202965.452 9  -4821533.43049  20541374.189    20541376.3474   20541381.1074
       859.350         669.623
   5689997.122 9   4429024.17347  22922355.939    22922357.7254   22922364.8854
     -2212.734       -1724.208
 -10611269.887 9  -8249535.77047  23294605.736    23294608.1774   23294614.1724
      3255.382        2536.661
  -6972519.360 9  -5413143.83848  20600025.317    20600027.0344   20600032.5704
       989.137         770.756
 96 12 12 17 24 29.9990000  0  7  1 29 30 25 21 14 15               -0.000478777
   5966123.639 9   4642988.55948  22380646.927    22380648.8454   22380654.2904
     -2022.097       -1575.660
  -9476221.871 9  -7373862.75948  22380519.443    22380521.8474   22380527.2594
      2395.185        1866.378
  -6019569.232 9  -4679515.64046  24536954.378    24536956.3794   24536962.9204
      1007.226         784.851
  -6228477.332 9  -4841412.80449  20536519.499    20536521.5974   20536526.3614
       841.344         655.593
   5756485.020 9   4480832.82347  22935008.369    22935010.0024   22935017.1874
     -2220.073       -1729.927
 -10708954.685 9  -8325653.78147  23276017.064    23276019.4034   23276025.3584
      3256.602        2537.612
  -7001889.442 9  -5436029.62448  20594436.408    20594438.0864   20594443.6574
       968.680         754.816
 96 12 12 17 24 59.9990000  0  7  1 29 30 25 21 14 15               -0.000486546
   6026825.998 9   4690289.06048  22392198.301    22392200.1424   22392205.6164
     -2024.712       -1577.698
  -9548005.258 9  -7429797.84248  22366859.565    22366861.9014   22366867.3264
      2390.248        1862.531
  -6049546.512 9  -4702874.51846  24531249.753    24531251.8994   24531258.4034
       991.258         772.409
  -6253445.447 9  -4860868.47149  20531768.236    20531770.3464   20531775.0824
       823.250         641.494
   5823199.909 9   4532818.33847  22947703.732    22947705.4694   22947712.6994
     -2227.648       -1735.830
 -10806659.263 9  -8401787.19647  23257424.632    23257426.8524   23257432.7704
      3256.787        2537.756
  -7030643.686 9  -5458435.53948  20588964.643    20588966.3604   20588971.9154
       948.204         738.860
 96 12 12 17 25 29.9990000  0  7  1 29 30 25 21 14 15               -0.000494331
   6087634.369 9   4737672.16748  22403769.786    22403771.6144   22403777.1294
     -2028.991       -1581.032
  -9619610.627 9  -7485594.19648  22353233.475    22353235.7784   22353241.2294
      2383.576        1857.332
  -6079020.548 9  -4725841.24746  24525640.946    24525643.1754   24525649.6634
       974.063         759.010
  -6277844.399 9  -4879880.62949  20527125.263    20527127.3704   20527132.0794
       803.803         626.340
   5890171.450 9   4585003.84547  22960447.908    22960449.8054   22960457.0714
     -2237.086       -1743.184
 -10904323.548 9  -8477889.23447  23238839.880    23238841.9924   23238847.8954
      3254.123        2535.680
  -7058758.434 9  -5480343.14448  20583614.588    20583616.3144   20583621.8574
       926.364         721.842
 96 12 12 17 25 59.9990000  0  7  1 29 30 25 21 14 15               -0.000502115
   6148532.152 9   4785124.95248  22415358.374    22415360.1084   22415365.6374
     -2031.273       -1582.810
  -9691050.865 9  -7541261.88248  22339638.797    22339641.1274   22339646.5604
      2378.640        1853.486
  -6108018.926 9  -4748437.34446  24520123.038    24520124.9564   24520131.5204
       958.737         747.068
  -6301705.771 9  -4898473.89649  20522584.652    20522586.7044   20522591.4324
       786.633         612.961
   5957402.396 9   4637391.49547  22973241.689    22973243.4994   22973250.7754
     -2245.422       -1749.679
 -11001929.413 9  -8553945.73747  23220266.084    23220268.2334   23220274.1354
      3252.560        2534.462
  -7086253.424 9  -5501767.82148  20578382.439    20578384.2084   20578389.7544
       906.161         706.099
 96 12 12 17 26 29.9990000  0  7  1 29 30 25 21 14 15               -0.000509881
   6209512.353 9   4832641.95748  22426962.537    22426964.2984   22426969.8354
     -2034.026       -1584.955
  -9762316.466 9  -7596793.47648  22326077.416    22326079.7484   22326085.1824
      2372.166        1848.441
  -6136537.287 9  -4770659.41346  24514696.251    24514698.1144   24514704.7444
       942.441         734.370
  -6325041.819 9  -4916657.82349  20518143.947    20518145.9964   20518150.7244
       768.961         599.190
   6024907.829 9   4689993.02747  22986087.577    22986089.3444   22986096.7524
     -2254.876       -1757.046
 -11099468.161 9  -8629949.94447  23201705.233    23201707.2254   23201713.1664
      3249.898        2532.388
  -7113118.993 9  -5522702.03748  20573270.114    20573271.8644   20573277.4084
       884.815         689.466
 96 12 12 17 26 59.9990000  0  7  1 29 30 25 21 14 15               -0.000517629
   6270551.073 9   4880204.55448  22438577.822    22438579.6004   22438585.1844
     -2035.545       -1586.139
  -9833395.406 9  -7652179.62848  22312551.429    22312553.8314   22312559.2934
      2365.943        1843.592
  -6164588.371 9  -4792517.38546  24509358.376    24509360.1234   24509366.8634
       927.333         722.597
  -6347865.993 9  -4934442.88949  20513800.603    20513802.7014   20513807.4124
       752.357         586.252
   6092670.596 9   4742795.07247  22998982.385    22998984.2294   22998991.7254
     -2262.886       -1763.288
 -11196944.706 9  -8705905.69147  23183155.979    23183158.0134   23183164.0474
      3248.338        2531.172
  -7139363.894 9  -5543152.62348  20568275.857    20568277.6194   20568283.1824
       864.489         673.628
 96 12 12 17 27 29.9990000  0  7  1 29 30 25 21 14 15               -0.000525348
   6331646.122 9   4927811.05148  22450203.888    22450205.5894   22450211.2004
     -2037.696       -1587.815
  -9904258.448 9  -7707397.54848  22299066.605    22299069.0004   22299074.4474
      2358.041        1837.435
  -6192175.496 9  -4814013.82146  24504108.721    24504110.3574   24504117.0764
       911.506         710.264
  -6370178.154 9  -4951828.97949  20509554.812    20509556.8534   20509561.5534
       734.829         572.594
   6160691.052 9   4795797.90647  23011926.482    23011928.2084   23011935.6764
     -2272.038       -1770.419
 -11294366.876 9  -8781819.06447  23164617.069    23164619.1244   23164625.2624
      3246.349        2529.622
  -7164982.488 9  -5563115.17348  20563400.805    20563402.5744   20563408.1074
       843.114         656.972
 96 12 12 17 27 59.9990000  0  7  1 29 30 25 21 14 15               -0.000533041
   6392792.526 9   4975457.56648  22461839.651    22461841.3514   22461847.0234
     -2038.686       -1588.586
  -9974896.090 9  -7762439.83848  22285624.718    22285627.1024   22285632.5204
      2351.256        1832.148
  -6219300.228 9  -4835149.93646  24498947.050    24498948.7414   24498955.3054
       896.897         698.881
  -6391973.128 9  -4968812.07249  20505407.320    20505409.4094   20505414.0894
       718.200         559.636
   6228973.236 9   4849004.70647  23024920.413    23024921.9944   23024929.4414
     -2279.905       -1776.549
 -11391757.944 9  -8857708.21547  23146084.080    23146086.1854   23146092.3474
      3246.655        2529.861
  -7189967.003 9  -5582583.63948  20558646.380    20558648.1594   20558653.7184
       822.654         641.029
 96 12 12 17 28 29.9990000  0  7  1 29 30 25 21 14 15               -0.000540717
   6453997.370 9   5023149.60948  22473486.394    22473488.2684   22473494.0094
     -2041.284       -1590.611
 -10045301.055 9  -7817300.81248  22272227.085    22272229.4584   22272234.8614
      2343.012        1825.724
  -6245958.578 9  -4855922.65246  24493873.832    24493875.7404   24493882.3174
       880.823         686.356
  -6413237.740 9  -4985381.89549  20501360.780    20501362.8774   20501367.5744
       699.814         545.310
   6297515.835 9   4902414.41246  23037963.775    23037965.2844   23037972.7924
     -2289.096       -1783.711
 -11489140.425 9  -8933590.65947  23127552.868    23127554.8774   23127561.1204
      3245.893        2529.267
  -7214313.052 9  -5601554.60548  20554013.432    20554015.2754   20554020.8244
       800.937         624.107
 96 12 12 17 28 59.9990000  0  7  1 29 30 25 21 14 15               -0.000548396
   6515261.982 9   5070888.22448  22485144.734    22485146.5404   22485152.4004
     -2043.276       -1592.163
 -10115496.567 9  -7871998.57848  22258869.340    22258871.7064   22258877.0474
      2336.554        1820.691
  -6272159.203 9  -4876338.68946  24488887.869    24488889.8704   24488896.4194
       865.465         674.388
  -6433967.387 9  -5001534.86249  20497416.059    20497418.1634   20497422.8634
       681.826         531.293
   6366303.074 9   4956014.75546  23051053.659    23051055.1454   23051062.7094
     -2296.931       -1789.816
 -11586523.399 9  -9009473.49547  23109021.355    23109023.5164   23109029.8044
      3246.010        2529.358
  -7238035.722 9  -5620039.81148  20549499.168    20549501.0204   20549506.5454
       780.358         608.071
 96 12 12 17 29 29.9990000  0  7  1 29 30 25 21 14 15               -0.000556095
   6576582.317 9   5118670.26248  22496813.475    22496815.4344   22496821.4024
     -2045.653       -1594.015
 -10185504.760 9  -7926550.37848  22245547.191    22245549.5894   22245554.9084
      2329.852        1815.469
  -6297891.004 9  -4896389.41146  24483990.943    24483993.2154   24483999.8434
       848.991         661.551
  -6454150.366 9  -5017261.85549  20493575.335    20493577.4674   20493582.1564
       662.761         516.437
   6435323.520 9   5009796.80946  23064187.806    23064189.4264   23064197.0114
     -2305.264       -1796.310
 -11683910.654 9  -9085359.66647  23090489.094    23090491.3334   23090497.6944
      3245.543        2528.995
  -7261144.079 9  -5638046.33848  20545101.860    20545103.6624   20545109.1534
       759.301         591.663
 96 12 12 17 29 59.9990000  0  7  1 29 30 25 21 14 15               -0.000563818
   6637982.219 9   5166514.29848  22508497.548    22508499.4654   22508505.4804
     -2047.615       -1595.544
 -10255317.182 9  -7980949.63448  22232262.244    22232264.7014   22232270.0004
      2324.374        1811.201
  -6323116.632 9  -4916045.70346  24479190.261    24479192.8664   24479199.6124
       832.787         648.925
  -6473751.742 9  -5032535.65149  20489845.313    20489847.4724   20489852.1764
       644.200         501.974
   6504589.625 9   5063770.29346  23077368.709    23077370.3774   23077378.0224
     -2312.337       -1801.821
 -11781274.964 9  -9161227.94647  23071961.401    23071963.5504   23071969.9724
      3245.529        2528.984
  -7283616.010 9  -5655556.94648  20540825.670    20540827.4134   20540832.8944
       739.003         575.846
 96 12 12 17 30 29.9990000  0  7  1 29 30 25 21 14 15               -0.000571575
   6699453.041 9   5214413.59448  22520195.090    22520196.9734   22520203.0474
     -2051.119       -1598.274
 -10324953.989 9  -8035212.04348  22219010.857    22219013.2314   22219018.5194
      2317.304        1805.691
  -6347838.822 9  -4935309.70646  24474485.975    24474488.3954   24474495.1074
       814.531         634.699
  -6492790.267 9  -5047370.86249  20486222.448    20486224.5604   20486229.2564
       624.304         486.471
   6574074.662 9   5117914.36146  23090591.562    23090593.1044   23090600.6434
     -2320.676       -1808.319
 -11878624.176 9  -9237084.46947  23053436.436    23053438.5704   23053445.0604
      3243.656        2527.524
  -7305471.804 9  -5672587.45248  20536666.646    20536668.4254   20536673.8604
       717.280         558.919
 96 12 12 17 30 59.9990000  0  7  1 29 30 25 21 14 15               -0.000579359
   6761003.003 9   5262374.56448  22531907.552    22531909.5334   22531915.6494
     -2052.782       -1599.570
 -10394394.811 9  -8089321.74548  22205796.830    22205799.0614   22205804.3404
      2311.404        1801.094
  -6372018.353 9  -4954150.86146  24469884.813    24469887.1104   24469893.7474
       796.825         620.903
  -6511250.190 9  -5061755.22049  20482709.563    20482711.7464   20482716.4584
       605.839         472.082
   6643787.343 9   5172235.81546  23103857.603    23103859.1394   23103866.6244
     -2327.599       -1813.714
 -11975928.273 9  -9312905.83347  23034920.014    23034922.1724   23034928.7374
      3242.770        2526.834
  -7326688.976 9  -5689120.32748  20532629.144    20532630.9574   20532636.3664
       696.546         542.763
 96 12 12 17 31 29.9990000  0  7  1 29 30 25 21 14 15               -0.000587162
   6822616.089 9   5310384.71948  22543632.147    22543634.1484   22543640.2764
     -2055.231       -1601.479
 -10463636.681 9  -8143276.40948  22192620.536    22192622.7514   22192628.0614
      2304.247        1795.517
  -6395661.126 9  -4972573.77046  24465385.486    24465388.0204   24465394.6424
       779.038         607.043
  -6529156.531 9  -5075708.21849  20479302.090    20479304.2834   20479309.0024
       587.575         457.851
   6713723.706 9   5226731.56746  23117166.432    23117167.7154   23117175.2044
     -2335.476       -1819.851
 -12073198.264 9  -9388700.64147  23016410.091    23016412.2964   23016418.9104
      3241.362        2525.737
  -7347270.172 9  -5705157.63748  20528712.683    20528714.5024   20528719.9024
       675.048         526.011
 96 12 12 17 31 59.9990000  0  7  1 29 30 25 21 14 15               -0.000594972
   6884284.444 9   5358437.93348  22555367.323    22555369.2944   22555375.4354
     -2056.771       -1602.679
 -10532682.848 9  -8197078.58848  22179481.401    22179483.6704   22179489.0184
      2297.923        1790.589
  -6418794.119 9  -4990599.45446  24460983.585    24460985.9694   24460992.6264
       762.411         594.086
  -6546541.599 9  -5089255.02749  20475993.817    20475996.0274   20476000.7394
       570.733         444.727
   6783885.677 9   5281403.11446  23130517.634    23130519.1524   23130526.6394
     -2342.955       -1825.679
 -12170436.381 9  -9464470.57647  22997906.256    22997908.4734   22997915.0744
      3240.374        2524.967
  -7367221.758 9  -5720704.34448  20524915.993    20524917.8544   20524923.2664
       654.290         509.836
 96 12 12 17 32 29.9990000  0  7  1 29 30 25 21 14 15               -0.000602768
   6946001.140 9   5406528.82148  22567111.756    22567113.6524   22567119.7834
     -2058.294       -1603.865
 -10601525.703 9  -8250722.33848  22166381.046    22166383.3024   22166388.6304
      2290.937        1785.146
  -6441430.569 9  -5008238.22846  24456676.062    24456678.4784   24456685.0884
       745.971         581.276
  -6563420.152 9  -5102407.15049  20472781.993    20472784.1754   20472788.8584
       553.716         431.467
   6854284.038 9   5336258.85146  23143914.334    23143915.6564   23143923.1434
     -2351.161       -1832.074
 -12267633.646 9  -9540208.67547  22979410.185    22979412.4054   22979418.9884
      3238.652        2523.625
  -7386543.432 9  -5735760.20648  20521239.279    20521241.0614   20521246.4924
       633.017         493.260
 96 12 12 17 32 59.9990000  0  7  1 29 30 25 21 14 15               -0.000610545
   7007755.288 9   5454648.89148  22578863.258    22578865.1044   22578871.2494
     -2059.088       -1604.484
 -10670167.616 9  -8304209.50348  22153318.920    22153321.1724   22153326.4704
      2284.890        1780.434
  -6463593.951 9  -5025508.39546  24452458.598    24452460.9184   24452467.5394
       731.264         569.816
  -6579789.912 9  -5115162.81649  20469666.995    20469669.1344   20469673.7704
       537.223         418.615
   6924932.934 9   5391309.80546  23157358.360    23157359.8004   23157367.2534
     -2359.177       -1838.320
 -12364775.666 9  -9615903.74247  22960924.647    22960926.8384   22960933.3704
      3237.269        2522.547
  -7405229.186 9  -5750320.54848  20517683.442    20517685.2854   20517690.7054
       612.406         477.199
 96 12 12 17 33 29.9990000  0  7  1 29 30 25 21 14 15               -0.000618291
   7069560.527 9   5502808.76748  22590624.469    22590626.2954   22590632.4474
     -2061.300       -1606.208
 -10738599.091 9  -8357532.70048  22140296.746    22140299.0454   22140304.3574
      2277.129        1774.386
  -6485308.306 9  -5042428.66246  24448326.345    24448328.8764   24448335.3604
       716.222         558.095
  -6595640.278 9  -5127513.75549  20466650.766    20466652.9204   20466657.5454
       519.242         404.604
   6995849.531 9   5446569.36546  23170853.354    23170854.8564   23170862.3844
     -2368.517       -1845.598
 -12461859.711 9  -9691553.63847  22942450.149    22942452.3324   22942458.7834
      3234.868        2520.676
  -7423278.320 9  -5764384.81548  20514248.795    20514250.6414   20514256.0984
       590.742         460.318
 96 12 12 17 33 59.9990000  0  7  1 29 30 25 21 14 15               -0.000626014
   7131421.330 9   5551011.94347  22602396.228    22602398.0954   22602404.2284
     -2062.907       -1607.460
 -10806803.089 9  -8410678.63948  22127317.856    22127320.2394   22127325.5574
      2269.624        1768.538
  -6506575.161 9  -5059000.23746  24444279.265    24444281.8584   24444288.3894
       701.340         546.499
  -6610943.921 9  -5139438.67049  20463738.610    20463740.7404   20463745.3384
       500.759         390.202
   7067030.361 9   5502034.80446  23184398.627    23184400.2184   23184407.7854
     -2376.968       -1852.183
 -12558876.258 9  -9767150.93047  22923988.536    22923990.6964   22923997.0964
      3232.887        2519.133
  -7440681.009 9  -5777945.36248  20510937.182    20510939.0194   20510944.4854
       569.339         443.641
 96 12 12 17 34 29.9990000  0  7  1 29 30 25 21 14 15               -0.000633738
   7193320.249 9   5599244.82648  22614175.278    22614177.1234   22614183.2334
     -2063.730       -1608.101
 -10874791.614 9  -8463656.68248  22114380.082    22114382.4504   22114387.7374
      2262.950        1763.338
  -6527407.767 9  -5075233.43346  24440314.958    24440317.5044   24440324.1464
       687.247         535.517
  -6625693.811 9  -5150932.09349  20460931.894    20460933.9714   20460938.5334
       482.484         375.962
   7138454.394 9   5557689.74946  23197990.283    23197991.8654   23197999.4244
     -2384.625       -1858.149
 -12655854.554 9  -9842718.42047  22905534.160    22905536.3724   22905542.7354
      3232.307        2518.681
  -7457452.842 9  -5791014.33748  20507745.650    20507747.4534   20507752.8954
       548.676         427.540
 96 12 12 17 34 59.9990000  0  7  1 29 30 25 21 14 15               -0.000641489
   7255248.991 9   5647500.95647  22625959.992    22625961.8134   22625967.8834
     -2065.531       -1609.505
 -10942575.184 9  -8516475.01348  22101481.170    22101483.6094   22101488.8914
      2255.205        1757.303
  -6547795.018 9  -5091119.61346  24436435.931    24436437.9844   24436444.5884
       671.232         523.038
  -6639883.544 9  -5161989.02049  20458231.713    20458233.7584   20458238.3004
       462.979         360.763
   7210106.207 9   5613522.19046  23211625.034    23211626.8974   23211634.4374
     -2392.789       -1864.511
 -12752815.529 9  -9918272.40447  22887083.108    22887085.3524   22887091.6084
      3231.213        2517.828
  -7473597.505 9  -5803594.60148  20504673.516    20504675.2054   20504680.6474
       527.081         410.712
 96 12 12 17 35 29.9990000  0  7  1 29 30 25 21 14 15               -0.000649247
   7317231.616 9   5695799.07147  22637754.885    22637756.7494   22637762.7824
     -2066.988       -1610.640
 -11010120.557 9  -8569107.74548  22088627.711    22088630.1284   22088635.4154
      2247.628        1751.398
  -6567696.630 9  -5106627.36646  24432648.976    24432650.8634   24432657.3654
       654.969         510.365
  -6653491.807 9  -5172592.85949  20455642.064    20455644.1814   20455648.7324
       443.957         345.941
   7281994.922 9   5669539.23046  23225305.058    23225307.0104   23225314.5484
     -2400.092       -1870.202
 -12849748.325 9  -9993804.44247  22868637.435    22868639.7114   22868645.8364
      3230.481        2517.258
  -7489096.799 9  -5815671.98848  20501724.022    20501725.7884   20501731.2224
       505.809         394.137
 96 12 12 17 35 59.9990000  0  7  1 29 30 25 21 14 15               -0.000657026
   7379263.007 9   5744135.17747  22649559.046    22649560.9654   22649567.0004
     -2068.527       -1611.839
 -11077445.764 9  -8621568.91548  22075816.152    22075818.5664   22075823.8264
      2240.810        1746.086
  -6587088.593 9  -5121737.96946  24428958.918    24428960.5424   24428967.1694
       637.856         497.031
  -6666531.541 9  -5182753.68649  20453160.640    20453162.7914   20453167.3444
       425.443         331.514
   7354104.855 9   5725728.63446  23239027.400    23239029.1624   23239036.7934
     -2407.527       -1875.995
 -12946650.305 9 -10069312.45647  22850197.659    22850199.8604   22850205.9594
      3229.694        2516.645
  -7503952.757 9  -5827248.06748  20498896.944    20498898.7764   20498904.2454
       484.632         377.635
 96 12 12 17 36 29.9990000  0  7  1 29 30 25 21 14 15               -0.000664819
   7441346.214 9   5792511.66747  22661373.232    22661375.0194   22661381.0374
     -2070.692       -1613.526
 -11144576.151 9  -8673878.27148  22063041.607    22063044.0274   22063049.2974
      2234.233        1740.961
  -6605965.062 9  -5136446.89046  24425366.570    24425368.3814   24425375.0334
       620.354         483.393
  -6679026.719 9  -5192490.18549  20450782.884    20450785.0384   20450789.5854
       407.443         317.488
   7426448.687 9   5782100.30646  23252794.000    23252795.8204   23252803.5384
     -2415.591       -1882.279
 -13043525.719 9 -10144799.78147  22831763.008    22831765.0744   22831771.1904
      3228.256        2515.524
  -7518175.442 9  -5838330.69048  20496190.431    20496192.3144   20496197.7714
       463.206         360.940
 96 12 12 17 36 59.9990000  0  7  1 29 30 25 21 14 15               -0.000672612
   7503491.815 9   5840936.77447  22673199.075    22673200.9364   22673206.9814
     -2072.476       -1614.916
 -11211515.886 9  -8726039.07548  22050303.453    22050305.7694   22050311.0494
      2228.197        1736.257
  -6624325.592 9  -5150753.75246  24421871.986    24421874.3674   24421881.2074
       603.749         470.454
  -6691000.243 9  -5201820.20249  20448504.388    20448506.5524   20448511.1024
       390.699         304.441
   7499022.685 9   5838651.33646  23266604.670    23266606.2844   23266614.0144
     -2422.941       -1888.006
 -13140356.504 9 -10220252.33747  22813336.493    22813338.7604   22813344.8934
      3226.887        2514.457
  -7531763.526 9  -5848918.81848  20493604.823    20493606.5814   20493612.0554
       442.550         344.844
 96 12 12 17 37 29.9990000  0  7  1 29 30 25 21 14 15               -0.000680384
   7565707.849 9   5889416.76647  22685038.328    22685040.2844   22685046.3374
     -2074.903       -1616.808
 -11278264.262 9  -8778050.76848  22037601.641    22037603.9474   22037609.2194
      2222.154        1731.549
  -6642180.923 9  -5164666.95746  24418474.374    24418476.5524   24418483.4004
       586.782         457.233
  -6702463.613 9  -5210752.68849  20446322.993    20446325.1324   20446329.6604
       373.852         291.313
   7571843.685 9   5895394.83046  23280462.199    23280463.7854   23280471.4924
     -2431.473       -1894.654
 -13237121.377 9 -10295653.52347  22794922.765    22794924.9964   22794931.1054
      3224.534        2512.624
  -7544717.141 9  -5859012.55948  20491139.889    20491141.6154   20491147.0714
       421.294         328.281
 96 12 12 17 37 59.9990000  0  7  1 29 30 25 21 14 15               -0.000688137
   7627988.049 9   5937946.76247  22696889.914    22696891.8564   22696897.8664
     -2077.068       -1618.495
 -11344843.557 9  -8829930.71248  22024931.925    22024934.2754   22024939.5684
      2216.417        1727.078
  -6659529.673 9  -5178185.40646  24415173.024    24415175.2344   24415182.1294
       569.970         444.132
  -6713426.987 9  -5219295.57549  20444236.716    20444238.8634   20444243.3554
       357.060         278.228
   7644917.613 9   5952335.40846  23294367.775    23294369.4124   23294377.0874
     -2440.168       -1901.430
 -13333826.897 9 -10371008.46547  22776520.392    22776522.5644   22776528.6644
      3222.538        2511.069
  -7557039.369 9  -5868614.30548  20488795.044    20488796.7464   20488802.2384
       400.252         311.885
 96 12 12 17 38 29.9990000  0  7  1 29 30 25 21 14 15               -0.000695864
   7690332.692 9   5986526.97147  22708753.730    22708755.6874   22708761.6584
     -2079.049       -1620.038
 -11411237.588 9  -8881666.28448  22012297.556    22012299.8794   22012305.2114
      2209.817        1721.935
  -6676378.228 9  -5191314.11146  24411966.994    24411969.0684   24411975.9584
       553.297         431.141
  -6723878.093 9  -5227439.28949  20442247.947    20442250.0734   20442254.5684
       339.678         264.684
   7718251.453 9   6009478.51146  23308322.884    23308324.4404   23308332.2294
     -2448.483       -1907.909
 -13430460.860 9 -10446307.64547  22758131.599    22758133.7094   22758139.8364
      3219.820        2508.951
  -7568724.343 9  -5877719.49148  20486571.515    20486573.1854   20486578.7024
       378.823         295.187
 96 12 12 17 38 59.9990000  0  7  1 29 30 25 21 14 15               -0.000703576
   7752726.754 9   6035145.70147  22720627.127    22720628.9624   22720634.8984
     -2080.421       -1621.107
 -11477426.110 9  -8933241.72348  21999702.271    21999704.6074   21999709.9204
      2202.869        1716.521
  -6692715.255 9  -5204044.20446  24408858.786    24408860.3404   24408867.0814
       535.809         417.514
  -6733794.900 9  -5235166.66449  20440360.886    20440362.9704   20440367.4424
       321.496         250.516
   7791832.079 9   6066813.93246  23322325.006    23322326.4474   23322334.2564
     -2456.846       -1914.425
 -13527010.294 9 -10521540.95747  22739758.839    22739760.9384   22739767.0594
      3217.002        2506.755
  -7579765.688 9  -5886323.14048  20484470.384    20484472.1094   20484477.6424
       357.363         278.465
 96 12 12 17 39 29.9990000  0  7  1 29 30 25 21 14 15               -0.000711289
   7815148.786 9   6083786.21747  22732505.696    22732507.5264   22732513.4714
     -2081.224       -1621.733
 -11543421.409 9  -8984666.60148  21987143.767    21987146.1224   21987151.4114
      2196.704        1711.717
  -6708530.997 9  -5216368.10546  24405848.641    24405850.6964   24405857.3424
       518.325         403.890
  -6743171.718 9  -5242473.27049  20438576.554    20438578.6114   20438583.0654
       303.496         236.490
   7865652.106 9   6124335.86146  23336372.601    23336374.0124   23336381.8574
     -2464.410       -1920.319
 -13623492.284 9 -10596721.72447  22721398.838    22721401.0124   22721407.1114
      3215.202        2505.352
  -7590174.590 9  -5894433.97348  20482489.634    20482491.3604   20482496.8844
       336.455         262.173
 96 12 12 17 39 59.9990000  0  7  1 29 30 25 21 14 15               -0.000719021
   7877600.405 9   6132449.78547  22744389.894    22744391.7484   22744397.6544
     -2082.235       -1622.521
 -11609218.219 9  -9035936.80548  21974623.030    21974625.3564   21974630.6504
      2189.675        1706.240
  -6723817.265 9  -5228279.43746  24402939.875    24402941.8264   24402948.3404
       500.924         390.330
  -6751998.150 9  -5249351.00849  20436896.887    20436898.9914   20436903.4094
       284.976         222.059
   7939688.065 9   6182026.05846  23350461.293    23350462.6294   23350470.6224
     -2471.410       -1925.774
 -13719921.725 9 -10671861.53947  22703049.025    22703051.1354   22703057.1914
      3213.304        2503.873
  -7599953.509 9  -5902053.91448  20480628.783    20480630.4974   20480636.0034
       315.452         245.807
 96 12 12 17 40 29.9990000  0  8  1 29 22 30 25 21 14 15            -0.000726772
   7940078.937 9   6181134.32747  22756279.333    22756281.0574   22756286.9234
     -2083.361       -1623.398
 -11674802.467 9  -9087041.38048  21962142.713    21962145.0784   21962150.3714
      2182.265        1700.466
  -2531765.80618  -1725203.01955  24718498.226    24718500.8485   24718513.4105
      3413.521        2659.886
  -6738586.490 9  -5239787.90246  24400129.274    24400131.2834   24400137.8084
       483.241         376.551
  -6760270.461 9  -5255796.96249  20435322.702    20435324.8234   20435329.2344
       266.166         207.402
   8013936.765 9   6239882.00146  23364590.094    23364591.7974   23364599.8824
     -2478.912       -1931.620
 -13816293.191 9 -10746956.18347  22684710.175    22684712.2504   22684718.3064
      3211.173        2502.213
  -7609103.331 9  -5909183.64748  20478887.733    20478889.3564   20478894.8554
       294.142         229.202
 96 12 12 17 40 59.9990000  0  8  1 29 22 30 25 21 14 15            -0.000734534
   8002596.062 9   6229848.93847  22768176.122    22768177.7184   22768183.5234
     -2084.739       -1624.472
 -11740173.619 9  -9137979.91248  21949703.050    21949705.3484   21949710.6164
      2175.822        1695.446
  -2634260.297 8  -1805068.56145  24698993.843    24698996.7134   24699008.8024
      3419.521        2664.562
  -6752821.138 9  -5250879.80946  24397420.089    24397422.4764   24397429.1124
       465.793         362.956
  -6767983.908 9  -5261807.44049  20433854.889    20433856.9854   20433861.3994
       248.191         193.395
   8088414.708 9   6297916.56246  23378762.860    23378764.5604   23378772.7354
     -2486.455       -1937.497
 -13912607.265 9 -10822006.10447  22666382.182    22666384.3064   22666390.3754
      3209.762        2501.113
  -7617613.990 9  -5915815.32248  20477268.235    20477269.8324   20477275.3424
       273.106         212.810
 96 12 12 17 41 29.9990000  0  8  1 29 22 30 25 21 14 15            -0.000742298
   8065168.448 9   6278606.60847  22780083.092    22780084.8304   22780090.6854
     -2087.107       -1626.317
 -11805350.770 9  -9188767.27848  21937300.300    21937302.5284   21937307.8164
      2168.829        1689.997
  -2736936.727 8  -1885075.91045  24679455.488    24679457.9134   24679470.0324
      3425.194        2668.982
  -6766543.699 9  -5261572.72646  24394809.269    24394811.1714   24394817.7334
       448.677         349.618
  -6775169.161 9  -5267406.33849  20432487.585    20432489.6784   20432494.0964
       230.377         179.514
   8163122.362 9   6356130.14546  23392979.121    23392980.9834   23392989.2694
     -2494.441       -1943.720
 -14008879.443 9 -10897023.38547  22648062.186    22648064.2974   22648070.3924
      3207.903        2499.665
  -7625491.450 9  -5921953.60048  20475769.180    20475770.8184   20475776.2744
       251.617         196.065
 96 12 12 17 41 59.9990000  0  8  1 29 22 30 25 21 14 15            -0.000750060
   8127797.252 9   6327408.23847  22792000.861    22792002.7354   22792008.5894
     -2088.802       -1627.638
 -11870324.792 9  -9239396.36348  21924936.211    21924938.3804   21924943.6454
      2162.190        1684.823
  -2839787.065 8  -1965218.77545  24659883.629    24659885.9614   24659897.5724
      3430.519        2673.132
  -6779770.986 9  -5271879.73146  24392292.383    24392294.1424   24392300.6564
       432.503         337.015
  -6781830.377 9  -5272596.90149  20431219.994    20431222.1054   20431226.5054
       213.005         165.978
   8238053.851 9   6414518.10146  23407238.302    23407240.1654   23407248.3864
     -2501.879       -1949.516
 -14105104.787 9 -10972004.17147  22629751.071    22629753.2334   22629759.3504
      3206.099        2498.259
  -7632734.238 9  -5927597.32748  20474390.948    20474392.5824   20474397.9824
       230.449         179.571
 96 12 12 17 42 29.9990000  0  8  1 29 22 30 25 21 14 15            -0.000757822
   8190467.637 9   6376242.26847  22803926.762    22803928.5724   22803934.4264
     -2089.728       -1628.359
 -11935118.966 9  -9289885.31048  21912606.292    21912608.4574   21912613.6964
      2156.903        1680.704
  -2942796.997 8  -2045485.91945  24640281.610    24640283.5964   24640295.1304
      3436.263        2677.608
  -6792519.938 9  -5281814.03146  24389866.035    24389867.9174   24389874.5704
       416.805         324.783
  -6787979.836 9  -5277388.69149  20430049.728    20430051.8844   20430056.3024
       196.358         153.006
   8313206.132 9   6473078.07946  23421539.278    23421541.2794   23421549.5634
     -2508.711       -1954.840
 -14201267.324 9 -11046936.01447  22611451.783    22611454.0644   22611460.2284
      3204.228        2496.801
  -7639346.964 9  -5932750.09648  20473132.610    20473134.2284   20473139.6274
       209.864         163.530
 96 12 12 17 42 59.9990000  0  8  1 29 22 30 25 21 14 15            -0.000765588
   8253186.717 9   6425114.23847  22815861.877    22815863.6064   22815869.5214
     -2091.683       -1629.883
 -11999744.094 9  -9340242.52548  21900308.500    21900310.6874   21900315.9224
      2151.172        1676.238
  -3045965.836 8  -2125876.95345  24620649.382    24620650.9884   24620662.8334
      3441.283        2681.519
  -6804784.918 9  -5291371.21146  24387531.908    24387534.0104   24387540.7184
       400.722         312.251
  -6793613.176 9  -5281778.31049  20428977.745    20428979.8874   20428984.3054
       178.860         139.371
   8388574.877 9   6531806.75246  23435881.544    23435883.6114   23435891.9904
     -2515.984       -1960.507
 -14297352.724 9 -11121807.75747  22593167.276    22593169.5824   22593175.7574
      3201.360        2494.566
  -7645326.558 9  -5937409.51748  20471994.725    20471996.3494   20472001.7254
       188.603         146.963
 96 12 12 17 43 29.9990000  0  8  1 29 22 30 25 21 14 15            -0.000773365
   8315950.912 9   6474021.36747  22827805.466    22827807.2244   22827813.2364
     -2092.592       -1630.591
 -12064198.067 9  -9390466.36848  21888043.307    21888045.5004   21888050.7244
      2145.590        1671.888
  -3149281.067 9  -2206382.06145  24600989.005    24600990.7574   24601002.3524
      3446.122        2685.290
  -6816575.435 9  -5300558.69646  24385288.585    24385290.4224   24385297.0554
       385.132         300.103
  -6798720.104 9  -5285757.73449  20428005.980    20428008.0654   20428012.4554
       161.308         125.695
   8464153.069 9   6590698.65546  23450263.869    23450265.8374   23450274.2414
     -2522.627       -1965.683
 -14393353.919 9 -11196613.88647  22574898.786    22574901.1744   22574907.3334
      3198.681        2492.479
  -7650678.595 9  -5941579.93148  20470976.309    20470977.8934   20470983.2734
       168.085         130.975
 96 12 12 17 43 59.9990000  0  8  1 29 22 30 25 21 14 15            -0.000781158
   8378751.853 9   6522957.12247  22839756.132    22839757.7954   22839763.8864
     -2093.600       -1631.377
 -12128467.580 9  -9440546.48548  21875813.262    21875815.4624   21875820.6234
      2139.712        1667.308
  -3252710.210 9  -2286975.92845  24581307.158    24581308.6384   24581320.1414
      3449.733        2688.104
  -6827872.187 9  -5309361.40646  24383139.014    24383140.6524   24383147.4104
       368.571         287.198
  -6803278.567 9  -5289309.78249  20427138.527    20427140.5784   20427144.9924
       143.149         111.545
   8539946.821 9   6649758.53146  23464686.995    23464689.0824   23464697.5004
     -2529.886       -1971.340
 -14489261.675 9 -11271347.20047  22556648.244    22556650.5424   22556656.6844
      3195.794        2490.229
  -7655398.026 9  -5945257.41048  20470078.202    20470079.8244   20470085.2004
       147.063         114.595
 96 12 12 17 44 29.9990000  0  8  1 29 22 30 25 21 14 15            -0.000788961
   8441581.328 9   6571915.10647  22851712.010    22851713.8524   22851720.0244
     -2094.511       -1632.086
 -12192560.588 9  -9490489.06248  21863616.794    21863618.9404   21863624.0934
      2133.467        1662.442
  -3356253.264 9  -2367658.53345  24561603.713    24561604.7554   24561616.3044
      3453.816        2691.285
  -6838670.802 9  -5317775.96746  24381084.317    24381085.8044   24381092.5914
       351.696         274.049
  -6807299.192 9  -5292442.73649  20426373.405    20426375.4624   20426379.8994
       125.505          97.796
   8615965.992 9   6708994.10546  23479153.372    23479155.2014   23479163.6984
     -2537.549       -1977.311
 -14585090.772 9 -11346019.21247  22538412.701    22538414.8744   22538421.0794
      3193.664        2488.569
  -7659488.391 9  -5948444.70848  20469299.790    20469301.4294   20469306.8324
       126.197          98.335
 96 12 12 17 44 59.9990000  0  8  1 29 22 30 25 21 14 15            -0.000796761
   8504448.350 9   6620902.34647  22863675.439    22863677.0894   22863683.2944
     -2096.273       -1633.459
 -12256448.272 9  -9540271.64648  21851459.250    21851461.4914   21851466.6604
      2125.988        1656.614
  -3459910.554 8  -2448430.02345  24541878.152    24541879.0544   24541890.4604
      3457.071        2693.822
  -6848951.853 9  -5325787.22346  24379128.036    24379129.4134   24379136.1454
       333.925         260.201
  -6810785.077 9  -5295159.00549  20425710.031    20425712.1284   20425716.5614
       107.371          83.666
   8692224.417 9   6768416.10546  23493665.206    23493666.8744   23493675.4194
     -2546.027       -1983.917
 -14680867.478 9 -11420650.40547  22520186.948    22520189.1444   22520195.3324
      3191.998        2487.271
  -7662942.143 9  -5951135.94148  20468642.544    20468644.2144   20468649.5884
       104.463          81.400
 96 12 12 17 45 29.9990000  0  8  1 29 22 30 25 21 14 15            -0.000804551
   8567347.226 9   6669914.40947  22875644.768    22875646.3714   22875652.6204
     -2096.730       -1633.816
 -12320118.423 9  -9589884.72048  21839343.232    21839345.4664   21839350.5894
      2119.066        1651.220
  -3563681.181 9  -2529289.94745  24522130.368    24522131.8894   24522143.2754
      3461.255        2697.082
  -6858707.081 9  -5333388.74246  24377271.772    24377273.0654   24377279.8054
       316.716         246.792
  -6813751.981 9  -5297470.87549  20425145.552    20425147.5744   20425152.0094
        90.733          70.701
   8768724.614 9   6828026.50246  23508222.894    23508224.5914   23508233.0344
     -2553.669       -1989.872
 -14776621.385 9 -11495263.83447  22501965.554    22501967.7534   22501973.9494
      3191.776        2487.098
  -7665758.927 9  -5953330.84048  20468106.436    20468108.1914   20468113.5834
        83.570          65.119
 96 12 12 17 45 59.9990000  0  8  1 29 22 30 25 21 14 15            -0.000812340
   8630257.052 9   6718934.99947  22887615.902    22887617.7044   22887624.0224
     -2097.205       -1634.186
 -12383588.880 9  -9639342.18848  21827265.123    21827267.4384   21827272.5274
      2112.446        1646.062
  -3667584.754 9  -2610253.19246  24502357.766    24502359.3754   24502370.5184
      3465.749        2700.584
  -6867938.247 9  -5340581.87946  24375515.009    24375516.5404   24375523.1214
       298.878         232.892
  -6816223.203 9  -5299396.49749  20424675.264    20424677.2854   20424681.7654
        74.064          57.712
   8845446.586 9   6887809.71746  23522822.674    23522824.4184   23522832.9684
     -2561.081       -1995.648
 -14872368.518 9 -11569871.97847  22483745.487    22483747.6994   22483753.8624
      3191.322        2486.744
  -7667946.584 9  -5955035.51148  20467690.231    20467691.9204   20467697.3124
        62.340          48.577
 96 12 12 17 46 29.9990000  0  8  1 29 22 30 25 21 14 15            -0.000820131
   8693183.633 9   6767968.63547  22899590.503    22899592.2284   22899598.6304
     -2097.727       -1634.592
 -12446865.135 9  -9688648.32748  21815224.109    21815226.3314   21815231.4204
      2106.101        1641.118
  -3771623.448 8  -2691321.86446  24482559.634    24482561.3114   24482572.5664
      3470.251        2704.092
  -6876631.473 9  -5347355.82146  24373860.396    24373862.2814   24373868.8624
       280.829         218.828
  -6818188.965 9  -5300928.25149  20424301.220    20424303.2214   20424307.6744
        57.108          44.500
   8922387.945 9   6947763.85646  23537464.547    23537466.0704   23537474.5314
     -2568.119       -2001.132
 -14968091.807 9 -11644461.54547  22465529.905    22465532.1814   22465538.3034
      3190.341        2485.980
  -7669498.264 9  -5956244.61948  20467394.975    20467396.6384   20467402.0754
        41.250          32.143
 96 12 12 17 46 59.9990000  0  8  1 29 22 30 25 21 14 15            -0.000827950
   8756113.591 9   6817004.91247  22911565.734    22911567.4534   22911573.8554
     -2097.992       -1634.799
 -12509968.178 9  -9737819.49948  21803216.034    21803218.2114   21803223.3264
      2100.360        1636.644
  -3875807.349 8  -2772503.65546  24462733.909    24462735.4624   24462746.5954
      3474.818        2707.650
  -6884793.226 9  -5353715.59546  24372307.595    24372309.2264   24372315.7624
       263.093         205.008
  -6819646.160 9  -5302063.72149  20424023.954    20424025.9224   20424030.3454
        39.581          30.842
   8999522.387 9   7007868.45746  23552142.838    23552144.4594   23552152.9294
     -2574.546       -2006.140
 -15063785.359 9 -11719027.93847  22447320.036    22447322.2814   22447328.4204
      3188.544        2484.580
  -7670429.195 9  -5956970.02748  20467217.880    20467219.4944   20467224.9134
        20.443          15.930
 96 12 12 17 47 29.9990000  0  8  1 29 22 30 25 21 14 15            -0.000835800
   8819054.714 9   6866049.89147  22923543.098    22923544.8074   22923551.2104
     -2097.846       -1634.685
 -12572894.906 9  -9786853.29148  21791241.465    21791243.6414   21791248.7574
      2095.048        1632.505
  -3980118.372 8  -2853784.47046  24442884.185    24442885.4884   24442896.4354
      3479.572        2711.355
  -6892420.469 9  -5359658.89946  24370856.251    24370857.8194   24370864.3784
       245.799         191.532
  -6820560.523 9  -5302776.20249  20423849.902    20423851.9114   20423856.3444
        21.612          16.841
   9076854.540 9   7068127.11246  23566858.928    23566860.3954   23566868.8974
     -2580.668       -2010.910
 -15159397.484 9 -11793530.89247  22429125.552    22429127.8924   22429134.0424
      3185.679        2482.347
  -7670731.969 9  -5957205.96348  20467160.239    20467161.8734   20467167.3054
         0.015           0.012
 96 12 12 17 47 59.9990000  0  8  1 29 22 30 25 21 14 15            -0.000843686
   8882007.701 9   6915104.09947  22935522.770    22935524.4654   22935530.8714
     -2098.954       -1635.549
 -12635644.445 9  -9835749.01748  21779300.589    21779302.7784   21779307.8624
      2088.368        1627.300
  -4084555.621 8  -2935163.64146  24423009.914    24423011.3324   24423022.2064
      3483.032        2714.051
  -6899515.155 9  -5365187.19646  24369505.972    24369507.6524   24369514.3934
       227.510         177.281
  -6820914.351 9  -5303051.90149  20423782.555    20423784.5594   20423789.0054
         2.375           1.851
   9154386.448 9   7128541.41146  23581612.584    23581614.3254   23581622.9004
     -2587.963       -2016.595
 -15254897.834 9 -11867946.73947  22410952.652    22410954.7714   22410960.9344
      3181.252        2478.898
  -7670408.594 9  -5956953.99148  20467221.662    20467223.4044   20467228.8574
       -21.385         -16.664
 96 12 12 17 48 29.9990000  0  8  1 29 22 30 25 21 14 15            -0.000851586
   8944991.114 9   6964182.03547  22947508.265    22947509.8864   22947516.3404
     -2099.753       -1636.171
 -12698194.746 9  -9884489.48748  21767397.660    21767399.8524   21767404.9314
      2081.786        1622.171
  -4189103.683 8  -3016629.16646  24403114.806    24403116.1324   24403126.9714
      3487.058        2717.188
  -6906089.857 9  -5370310.34346  24368254.700    24368256.5374   24368263.2694
       211.091         164.486
  -6820713.376 9  -5302895.28949  20423820.763    20423822.7914   20423827.2744
       -15.439         -12.030
   9232128.332 9   7189119.29746  23596406.594    23596408.2644   23596416.9324
     -2594.633       -2021.792
 -15350275.644 9 -11942267.09247  22392802.816    22392804.9564   22392811.1244
      3177.497        2475.972
  -7669455.642 9  -5956211.44148  20467403.020    20467404.7544   20467410.2194
       -41.986         -32.716
 96 12 12 17 48 59.9990000  0  8  1 29 22 30 25 21 14 15            -0.000859481
   9008006.891 9   7013285.17147  22959499.883    22959501.4294   22959507.9044
     -2101.241       -1637.331
 -12760530.211 9  -9933062.55848  21755535.644    21755537.8124   21755542.8454
      2074.015        1616.116
  -4293768.003 8  -3098185.29746  24383197.669    24383198.9804   24383209.6554
      3490.732        2720.051
  -6912169.486 9  -5375047.71846  24367097.680    24367099.5084   24367106.3074
       194.516         151.571
  -6819979.407 9  -5302323.36249  20423960.426    20423962.4494   20423966.9414
       -33.249         -25.908
   9310082.877 9   7249862.89246  23611241.185    23611242.6734   23611251.3164
     -2602.151       -2027.650
 -15445534.688 9 -12016494.92147  22374675.604    22374677.7844   22374683.9174
      3173.180        2472.608
  -7667874.093 9  -5954979.08148  20467704.009    20467705.7344   20467711.2274
       -63.341         -49.357
 96 12 12 17 49 29.9990000  0  8  1 29 22 30 25 21 14 15            -0.000867350
   9071070.869 9   7062425.87247  22971500.703    22971502.2074   22971508.6364
     -2102.917       -1638.637
 -12822634.353 9  -9981455.38048  21743717.603    21743719.7414   21743724.7984
      2066.514        1610.271
  -4398539.185 8  -3179824.70245  24363260.248    24363261.3394   24363272.0584
      3494.000        2722.597
  -6917754.505 9  -5379399.66846  24366035.084    24366036.7594   24366043.5174
       177.943         138.657
  -6818728.670 9  -5301348.76049  20424198.427    20424200.4794   20424204.9764
       -49.879         -38.867
   9388261.215 9   7310780.90846  23626118.130    23626119.7444   23626128.2804
     -2609.568       -2033.430
 -15540676.018 9 -12090631.01447  22356570.827    22356573.0324   22356579.1114
      3169.868        2470.027
  -7665654.133 9  -5953249.26148  20468126.535    20468128.1994   20468133.6944
       -84.540         -65.875
 96 12 12 17 49 59.9990000  0  8  1 29 22 30 25 21 14 15            -0.000875193
   9134174.702 9   7111597.63647  22983508.902    22983510.5294   22983516.9384
     -2104.042       -1639.513
 -12884529.941 9 -10029685.68948  21731939.191    21731941.3474   21731946.4154
      2059.984        1605.182
  -4503409.187 8  -3261541.12346  24343303.387    24343304.7844   24343315.5754
      3497.266        2725.142
  -6922853.512 9  -5383372.91646  24365065.105    24365066.4964   24365073.2624
       162.108         126.318
  -6817000.425 9  -5300002.07249  20424527.295    20424529.3504   20424533.8254
       -65.343         -50.917
   9466646.488 9   7371860.16846  23641034.299    23641036.0414   23641044.7014
     -2616.027       -2038.463
 -15635736.521 9 -12164704.12847  22338481.615    22338483.6354   22338489.7044
      3167.616        2468.272
  -7662806.245 9  -5951030.14148  20468668.543    20468670.1714   20468675.6294
      -105.259         -82.020
 96 12 12 17 50 29.9990000  0  8  1 29 22 30 25 21 14 15            -0.000883015
   9197326.367 9   7160806.66947  22995526.214    22995527.9484   22995534.2984
     -2105.960       -1641.008
 -12946227.185 9 -10077761.45348  21720198.559    21720200.7414   21720205.7714
      2053.182        1599.882
  -4608362.180 8  -3343322.27245  24323330.787    24323332.3354   24323343.3244
      3499.529        2726.906
  -6927466.887 9  -5386967.78446  24364187.246    24364188.6714   24364195.4034
       145.152         113.105
  -6814793.272 9  -5298282.21549  20424947.282    20424949.3694   20424953.8554
       -82.127         -63.995
   9545234.742 9   7433097.57546  23655989.132    23655991.0394   23655999.6414
     -2623.459       -2044.254
 -15730720.098 9 -12238717.30447  22320406.732    22320408.8754   22320414.9214
      3164.506        2465.849
  -7659328.692 9  -5948320.37948  20469330.319    20469331.9384   20469337.4014
      -126.706         -98.732
 96 12 12 17 50 59.9990000  0  8  1 29 22 30 25 21 14 15            -0.000890834
   9260506.440 9   7210037.83647  23007549.182    23007550.7824   23007557.0944
     -2105.886       -1640.950
 -13007746.861 9 -10125698.84748  21708491.708    21708493.9404   21708498.9364
      2048.192        1595.994
  -4713401.212 8  -3425170.44845  24303342.174    24303343.7684   24303354.4804
      3503.026        2729.631
  -6931579.729 9  -5390172.64146  24363404.596    24363406.0314   24363412.7734
       129.095         100.594
  -6812089.468 9  -5296175.35649  20425461.874    20425463.8734   20425468.3564
       -98.168         -76.495
   9624031.171 8   7494497.20346  23670983.675    23670985.6214   23670994.2564
     -2629.574       -2049.019
 -15825631.961 9 -12312674.58947  22302345.591    22302347.7494   22302353.7804
      3162.971        2464.653
  -7655227.514 9  -5945124.67248  20470110.798    20470112.3634   20470117.8584
      -146.569        -114.210
 96 12 12 17 51 29.9990000  0  8  1 29 22 30 25 21 14 15            -0.000898672
   9323700.392 9   7259279.82847  23019574.436    23019576.2544   23019582.5374
     -2106.502       -1641.430
 -13069108.633 9 -10173513.20148  21696814.915    21696817.1614   21696822.1954
      2042.921        1591.886
  -4818521.191 8  -3507081.74945  24283338.302    24283339.8024   24283350.4744
      3505.328        2731.424
  -6935186.039 9  -5392982.78746  24362718.240    24362719.7644   24362726.4904
       111.826          87.137
  -6808878.584 9  -5293673.37249  20426072.941    20426074.9174   20426079.3444
      -115.624         -90.097
   9703028.357 9   7556053.28146  23686016.403    23686018.4604   23686027.1014
     -2636.472       -2054.394
 -15920475.650 9 -12386578.76148  22284297.404    22284299.5724   22284305.5974
      3160.351        2462.611
  -7650516.952 9  -5941454.12148  20471007.256    20471008.7914   20471014.2854
      -167.068        -130.183
 96 12 12 17 51 59.9990000  0  8  1 29 22 30 25 21 14 15            -0.000906536
   9386904.991 9   7308530.10347  23031602.007    23031603.7714   23031610.0214
     -2107.172       -1641.952
 -13130305.414 9 -10221198.99248  21685169.503    21685171.7494   21685176.7984
      2036.828        1587.139
  -4923716.209 8  -3589051.54245  24263319.625    24263321.4734   24263332.2854
      3507.933        2733.454
  -6938278.872 9  -5395392.84846  24362129.559    24362131.1724   24362137.9214
        94.329          73.503
  -6805135.258 9  -5290756.49949  20426785.248    20426787.2594   20426791.6754
      -134.038        -104.445
   9782230.467 9   7617769.01446  23701087.953    23701090.2594   23701099.0414
     -2643.782       -2060.090
 -16015231.796 9 -12460414.70948  22266265.963    22266268.0314   22266274.0864
      3156.651        2459.728
  -7645193.644 9  -5937306.10648  20472020.193    20472021.8014   20472027.2954
      -187.804        -146.341
 96 12 12 17 52 29.9990000  0  8  1 29 22 30 25 21 14 15            -0.000914410
   9450131.072 9   7357797.11147  23043633.512    23043635.3504   23043641.5364
     -2107.765       -1642.414
 -13191313.456 9 -10268737.71548  21673559.982    21673562.3014   21673567.2944
      2030.323        1582.070
  -5028999.940 8  -3671090.47945  24243284.981    24243286.4804   24243297.0274
      3510.997        2735.842
  -6940839.242 9  -5397387.99646  24361642.536    24361644.0034   24361650.6584
        76.299          59.454
  -6800835.114 9  -5287405.74349  20427603.569    20427605.5634   20427609.9674
      -152.521        -118.848
   9861669.157 9   7679669.08846  23716204.803    23716207.0454   23716215.8584
     -2652.122       -2066.589
 -16109866.822 9 -12534156.28848  22248257.557    22248259.6114   22248265.6484
      3152.333        2456.363
  -7639245.207 9  -5932670.98148  20473152.134    20473153.7594   20473159.2964
      -208.789        -162.693
 96 12 12 17 52 59.9990000  0  8  1 29 22 30 25 21 14 15            -0.000922281
   9513369.907 9   7407074.06347  23055667.628    23055669.3794   23055675.5144
     -2108.091       -1642.668
 -13252123.010 9 -10316121.76048  21661988.265    21661990.5804   21661995.5904
      2023.646        1576.867
  -5134380.952 8  -3753205.24945  24223231.641    24223232.8494   24223243.2574
      3514.673        2738.706
  -6942863.312 9  -5398965.24346  24361257.922    24361258.9604   24361265.4494
        58.894          45.891
  -6795996.613 9  -5283635.48249  20428524.314    20428526.3094   20428530.7264
      -169.709        -132.241
   9941351.406 8   7741758.94846  23731367.966    23731370.1764   23731379.1164
     -2659.795       -2072.568
 -16204380.275 9 -12607803.13848  22230272.251    22230274.3114   22230280.4054
      3148.701        2453.533
  -7632672.071 9  -5927549.07348  20474402.969    20474404.5864   20474410.1554
      -229.303        -178.678
 96 12 12 17 53 29.9990000  0  8  1 29 22 30 25 21 14 15            -0.000930142
   9576624.504 9   7456363.29447  23067704.670    23067706.3724   23067712.5034
     -2109.283       -1643.597
 -13312730.579 9 -10363348.42748  21650454.969    21650457.3124   21650462.3224
      2016.560        1571.345
  -5239878.645 8  -3835410.95445  24203155.709    24203157.1834   24203167.3864
      3518.147        2741.413
  -6944362.428 9  -5400133.43546  24360972.347    24360973.6294   24360980.2024
        40.765          31.765
  -6790650.115 9  -5279469.38149  20429541.716    20429543.6834   20429548.1194
      -187.050        -145.753
  10021250.969 8   7804018.11346  23746572.926    23746574.7444   23746583.7324
     -2667.372       -2078.472
 -16298785.280 9 -12681365.47748  22212307.543    22212309.6404   22212315.7314
      3144.769        2450.469
  -7625480.316 9  -5921945.12048  20475771.549    20475773.1454   20475778.7324
      -250.549        -195.233
 96 12 12 17 53 59.9990000  0  8  1 29 22 30 25 21 14 15            -0.000937984
   9639914.109 9   7505679.81347  23079748.348    23079749.9984   23079756.1144
     -2110.140       -1644.265
 -13373129.148 9 -10410412.23848  21638961.578    21638963.8494   21638968.8484
      2009.936        1566.184
  -5345493.491 8  -3917707.95946  24183057.802    24183059.0964   24183069.2184
      3522.460        2744.774
  -6945326.821 9  -5400884.97546  24360788.373    24360790.0634   24360796.6924
        23.257          18.122
  -6784795.205 9  -5274907.11649  20430655.828    20430657.8364   20430662.2754
      -203.472        -158.550
  10101379.385 8   7866455.62846  23761821.046    23761822.9024   23761831.7024
     -2674.780       -2084.244
 -16393085.280 9 -12754845.99648  22194362.976    22194364.9434   22194371.0574
      3141.709        2448.085
  -7617657.435 9  -5915849.38348  20477260.202    20477261.7724   20477267.4134
      -271.244        -211.359
 96 12 12 17 54 29.9990000  0  8  1 29 22 30 25 21 14 15            -0.000945809
   9703225.159 9   7555013.03347  23091795.984    23091797.7264   23091803.8324
     -2110.827       -1644.800
 -13433336.697 9 -10457327.20348  21627504.444    21627506.7394   21627511.7544
      2003.665        1561.297
  -5451225.895 8  -4000096.60045  24162937.188    24162938.6304   24162948.6504
      3525.969        2747.508
  -6945764.889 9  -5401226.36646  24360705.093    24360706.7294   24360713.3664
         5.751           4.481
  -6778454.331 9  -5269966.16949  20431862.475    20431864.4884   20431868.8964
      -219.514        -171.050
  10181728.958 8   7929065.47046  23777111.772    23777113.0144   23777121.9564
     -2681.863       -2089.763
 -16487304.251 9 -12828263.37048  22176433.674    22176435.7014   22176441.8214
      3139.209        2446.137
  -7609211.219 9  -5909267.92948  20478867.425    20478869.0314   20478874.7114
      -292.082        -227.596
 96 12 12 17 54 59.9990000  0  8  1 29 22 30 25 21 14 15            -0.000953637
   9766547.508 9   7604355.03847  23103845.853    23103847.6154   23103853.7294
     -2111.196       -1645.088
 -13493364.320 9 -10504101.96148  21616081.575    21616083.8564   21616088.8514
      1997.800        1556.727
  -5557064.522 8  -4082568.05045  24142796.685    24142797.9784   24142807.9264
      3529.385        2750.170
  -6945688.600 9  -5401166.94246  24360719.975    24360721.2264   24360727.9204
       -11.185          -8.716
  -6771636.543 9  -5264653.61149  20433159.879    20433161.8574   20433166.2714
      -235.627        -183.605
  10262270.750 8   7991825.11346  23792438.560    23792439.7134   23792448.5664
     -2687.938       -2094.497
 -16581460.545 9 -12901631.91548  22158516.370    22158518.4044   22158524.4824
      3137.308        2444.656
  -7600149.518 9  -5902206.87848  20480591.838    20480593.4274   20480599.1014
      -312.463        -243.478
 96 12 12 17 55 29.9990000  0  8  1 29 22 30 25 21 14 15            -0.000961485
   9829886.216 9   7653709.81147  23115898.867    23115900.6354   23115906.7554
     -2111.665       -1645.453
 -13553226.009 9 -10550747.41748  21604690.241    21604692.5324   21604697.4644
      1992.847        1552.868
  -5662993.787 9  -4165110.14345  24122638.772    24122640.0804   24122649.8054
      3532.097        2752.283
  -6945103.310 9  -5400710.88446  24360831.424    24360832.6884   24360839.2774
       -27.896         -21.737
  -6764321.196 9  -5258953.33749  20434551.977    20434553.9364   20434558.3444
      -252.299        -196.597
  10342993.769 8   8054725.94045  23807799.751    23807800.9534   23807809.8744
     -2694.000       -2099.221
 -16675547.316 9 -12974946.27248  22140612.325    22140614.3244   22140620.3774
      3134.859        2442.747
  -7590474.975 9  -5894668.27848  20482432.840    20482434.4444   20482440.1314
      -332.706        -259.251
 96 12 12 17 55 59.9990000  0  8  1 29 22 30 25 21 14 15            -0.000969348
   9893247.014 9   7703081.78547  23127956.198    23127957.8694   23127963.9764
     -2112.018       -1645.728
 -13612929.386 9 -10597269.52348  21593329.165    21593331.3574   21593336.2584
      1987.654        1548.821
  -5768982.218 9  -4247698.37245  24102469.733    24102470.9324   24102480.7294
      3534.092        2753.838
  -6944008.040 9  -5399857.42146  24361039.783    24361041.1974   24361047.6934
       -44.836         -34.937
  -6756496.516 9  -5252856.18949  20436041.075    20436042.9474   20436047.3354
      -268.922        -209.550
  10423914.015 8   8117780.47446  23823198.748    23823199.7754   23823208.8564
     -2700.279       -2104.113
 -16769541.037 9 -13048188.13648  22122725.890    22122727.8904   22122733.9744
      3131.648        2440.245
  -7580184.447 9  -5886649.69548  20484391.040    20484392.6754   20484398.3694
      -352.985        -275.053
 96 12 12 17 56 29.9990000  0  8  1 29 22 30 25 21 14 15            -0.000977277
   9956623.071 9   7752465.64547  23140016.253    23140017.9374   23140024.1094
     -2113.363       -1646.776
 -13672470.610 9 -10643665.26948  21581998.826    21582001.0754   21582005.9424
      1981.532        1544.051
  -5875017.826 9  -4330323.39645  24082291.633    24082292.8834   24082302.4294
      3534.866        2754.441
  -6942397.096 9  -5398602.11446  24361346.178    24361347.6924   24361354.3234
       -62.712         -48.866
  -6748170.626 9  -5246368.48149  20437625.446    20437627.3114   20437631.7074
      -286.339        -223.121
  10505017.533 8   8180977.78746  23838632.422    23838633.4094   23838642.5204
     -2706.761       -2109.164
 -16863428.353 9 -13121347.07748  22104859.656    22104861.6904   22104867.7874
      3127.239        2436.810
  -7569283.379 9  -5878155.36148  20486465.419    20486467.0764   20486472.8014
      -373.866        -291.324
 96 12 12 17 56 59.9990000  0  8  1 29 22 30 25 21 14 15            -0.000985171
  10020037.074 9   7801879.08247  23152083.436    23152085.3094   23152091.4564
     -2114.389       -1647.576
 -13731832.580 9 -10689921.34448  21570702.707    21570704.9124   21570709.7324
      1975.673        1539.485
  -5981093.810 8  -4412979.93645  24062106.414    24062107.2594   24062116.5644
      3536.550        2755.753
  -6940260.448 9  -5396937.15146  24361752.577    24361754.2494   24361760.9634
       -79.938         -62.289
  -6739323.191 9  -5239474.37849  20439309.016    20439310.9274   20439315.3054
      -303.692        -236.643
  10586308.826 8   8244321.45346  23854101.658    23854102.8594   23854111.8074
     -2712.815       -2113.882
 -16957188.028 9 -13194406.55348  22087017.842    22087019.7754   22087025.8784
      3123.279        2433.724
  -7557767.660 9  -5869182.07848  20488656.836    20488658.4514   20488664.1574
      -394.054        -307.055
 96 12 12 17 57 29.9990000  0  8  1 29 22 30 25 21 14 15            -0.000993064
  10083484.796 9   7851318.79347  23164157.042    23164158.9934   23164165.2244
     -2115.622       -1648.537
 -13791012.805 9 -10736035.80048  21559441.066    21559443.2814   21559448.1254
      1969.326        1534.540
  -6087209.347 9  -4495667.31145  24041913.357    24041914.0594   24041923.1624
      3537.654        2756.613
  -6937601.913 9  -5394865.53846  24362258.341    24362260.1324   24362266.9154
       -97.522         -75.991
  -6729961.181 9  -5232179.31549  20441090.540    20441092.4854   20441096.8314
      -320.513        -249.750
  10667787.104 9   8307810.82645  23869606.469    23869607.8164   23869616.8134
     -2719.445       -2119.048
 -17050823.733 9 -13267369.43648  22069199.606    22069201.4574   22069207.5264
      3119.014        2430.401
  -7545643.643 9  -5859734.79948  20490964.030    20490965.5914   20490971.2884
      -414.480        -322.971
 96 12 12 17 57 59.9990000  0  8  1 29 22 30 25 21 14 15            -0.001000945
  10146964.626 9   7900783.53747  23176236.899    23176238.8234   23176245.1364
     -2116.598       -1649.297
 -13849991.889 9 -10781993.51648  21548217.659    21548219.9014   21548224.8064
      1962.155        1528.952
  -6193374.724 9  -4578393.53945  24021710.764    24021711.4504   24021720.3604
      3539.550        2758.091
  -6934415.531 9  -5392382.58546  24362864.925    24362866.6094   24362873.3064
      -115.363         -89.893
  -6720101.464 9  -5224496.42649  20442966.828    20442968.7474   20442973.0884
      -337.269        -262.807
  10749456.552 9   8371449.17946  23885147.720    23885149.1904   23885158.2104
     -2725.666       -2123.896
 -17144339.211 9 -13340238.63448  22051404.094    22051406.0474   22051412.0844
      3114.949        2427.233
  -7532908.262 9  -5849811.12648  20493387.474    20493389.0574   20493394.7614
      -434.965        -338.934
 96 12 12 17 58 29.9980000  0  8  1 29 22 30 25 21 14 15            -0.001008827
  10210459.885 9   7950260.27647  23188319.698    23188321.5954   23188327.9994
     -2116.955       -1649.575
 -13908757.339 9 -10827784.76948  21537035.059    21537037.2344   21537042.1264
      1955.248        1523.570
  -6299595.831 9  -4661163.23545  24001497.553    24001498.3014   24001506.9204
      3541.678        2759.749
  -6930706.994 9  -5389492.79046  24363570.661    24363572.3964   24363578.9674
      -132.335        -103.118
  -6709737.906 9  -5216420.93749  20444938.943    20444940.8714   20444945.2274
      -354.241        -276.032
  10831308.185 9   8435229.45746  23900723.933    23900725.1774   23900734.3984
     -2731.823       -2128.693
 -17237740.100 9 -13413018.54748  22033630.478    22033632.4844   22033638.4464
      3111.479        2424.529
  -7519564.071 9  -5839413.06048  20495926.865    20495928.3694   20495934.0864
      -455.207        -354.707
 96 12 12 17 58 59.9980000  0  8  1 29 22 30 25 21 14 15            -0.001016716
  10273965.958 9   7999745.46247  23200404.532    23200406.4734   23200412.9174
     -2116.428       -1649.165
 -13967305.538 9 -10873406.74048  21525893.731    21525895.9014   21525900.7604
      1948.265        1518.129
  -6405869.610 9  -4743973.99145  23981274.231    23981275.1274   23981283.5854
      3543.427        2761.112
  -6926481.447 9  -5386200.12646  24364374.460    24364376.4274   24364382.9924
      -149.010        -116.112
  -6698855.118 9  -5207940.85749  20447009.863    20447011.8184   20447016.1714
      -370.825        -288.954
  10913365.286 9   8499169.89045  23916338.821    23916340.2674   23916349.5464
     -2738.410       -2133.826
 -17331033.700 9 -13485714.84348  22015877.468    22015879.3084   22015885.2464
      3108.369        2422.106
  -7505599.862 9  -5828531.86348  20498584.163    20498585.6704   20498591.3774
      -475.535        -370.547
 96 12 12 17 59 29.9980000  0  8  1 29 22 30 25 21 14 15            -0.001024618
  10337444.519 9   8049209.20147  23212484.278    23212486.1264   23212492.5734
     -2115.156       -1648.174
 -14025656.872 9 -10918875.30748  21514789.887    21514792.0374   21514796.8904
      1942.332        1513.505
  -6512202.931 8  -4826831.17845  23961039.406    23961040.4904   23961049.0414
      3545.788        2762.952
  -6921760.247 9  -5382521.24046  24365273.268    24365274.8064   24365281.2434
      -165.212        -128.737
  -6687493.946 9  -5199088.00749  20449171.821    20449173.7824   20449178.1394
      -386.303        -301.015
  10995609.873 9   8563256.36246  23931989.336    23931991.0234   23932000.4754
     -2744.377       -2138.476
 -17424237.778 9 -13558341.38748  21998141.233    21998143.1544   21998149.1324
      3105.474        2419.850
  -7491032.094 9  -5817180.36048  20501356.307    20501357.8504   20501363.5354
      -495.339        -385.978
 96 12 12 17 59 59.9980000  0  8  1 29 22 30 25 21 14 15            -0.001032544
  10400876.645 9   8098636.75947  23224555.149    23224556.9344   23224563.4284
     -2113.264       -1646.699
 -14083833.112 9 -10964207.43348  21503719.371    21503721.4764   21503726.3884
      1936.646        1509.075
  -6618606.392 8  -4909743.03845  23940791.683    23940792.4484   23940801.0534
      3547.966        2764.649
  -6916553.695 9  -5378464.17346  24366263.937    24366265.4564   24366271.9634
      -181.472        -141.407
  -6675652.308 9  -5189860.77049  20451425.169    20451427.1704   20451431.5334
      -402.818        -313.884
  11078039.713 9   8627487.23845  23947675.451    23947677.1844   23947686.4854
     -2750.622       -2143.342
 -17517343.490 9 -13630891.28748  21980423.743    21980425.7394   21980431.7044
      3101.870        2417.042
  -7475865.911 9  -5805362.55948  20504242.401    20504243.8704   20504249.5734
      -515.335        -401.560
 96 12 12 18  0 29.9980000  0  8  1 29 22 30 25 21 14 15            -0.001040503
  10464248.126 9   8148017.06647  23236614.500    23236616.2174   23236622.7134
     -2112.060       -1645.761
 -14141853.642 9 -11009418.23048  21492678.518    21492680.5594   21492685.5064
      1930.984        1504.663
  -6725067.872 8  -4992700.11146  23920532.616    23920533.3954   23920542.0644
      3549.197        2765.608
  -6910860.682 9  -5374028.03846  24367347.276    24367348.8054   24367355.2724
      -198.502        -154.677
  -6663319.168 9  -5180250.53549  20453772.097    20453774.1144   20453778.4584
      -419.758        -327.084
  11160659.716 9   8691866.31546  23963398.133    23963399.4544   23963408.7844
     -2757.738       -2148.887
 -17610342.019 9 -13703357.65748  21962726.542    21962728.6634   21962734.6394
      3097.599        2413.714
  -7460103.433 9  -5793080.11448  20507241.899    20507243.3874   20507249.0804
      -535.895        -417.581
 96 12 12 18  0 59.9980000  0  8  1 29 22 30 25 21 14 15            -0.001048482
  10527582.771 9   8197368.66247  23248666.816    23248668.4874   23248674.9924
     -2110.649       -1644.662
 -14199715.444 9 -11054505.34648  21481667.759    21481669.8304   21481674.8014
      1926.296        1501.010
  -6831575.521 8  -5075693.19646  23900264.600    23900265.6924   23900274.4094
      3551.106        2767.096
  -6904660.961 9  -5369197.09246  24368526.917    24368528.6284   24368535.1034
      -214.999        -167.532
  -6650490.321 9  -5170254.03749  20456213.375    20456215.3814   20456219.7284
      -435.522        -339.368
  11243481.639 9   8756402.68346  23979158.754    23979160.0404   23979169.6424
     -2763.822       -2153.628
 -17703211.010 9 -13775723.08948  21945054.202    21945056.2824   21945062.2044
      3093.450        2410.481
  -7443734.236 9  -5780324.90148  20510356.826    20510358.3414   20510364.0374
      -555.541        -432.889
 96 12 12 18  1 29.9980000  0  8  1 29 22 30 25 21 14 15            -0.001056473
  10590898.490 9   8246705.52047  23260715.673    23260717.1794   23260723.6254
     -2110.257       -1644.356
 -14257434.092 9 -11099480.91248  21470684.293    21470686.3174   21470691.3284
      1921.920        1497.600
  -6938136.697 8  -5158727.95246  23879987.019    23879987.8654   23879996.5934
      3553.266        2768.779
  -6897954.435 9  -5363971.23646  24369803.278    24369804.9034   24369811.3024
      -231.777        -180.605
  -6637177.127 9  -5159880.12049  20458746.822    20458748.8234   20458753.1834
      -451.805        -352.056
  11326491.182 8   8821085.32346  23994955.205    23994956.4314   23994966.0154
     -2769.713       -2158.218
 -17795941.865 9 -13847980.89148  21927408.133    21927410.1704   21927416.0884
      3089.036        2407.041
  -7426768.090 9  -5767104.53548  20513585.352    20513586.9004   20513592.6094
      -575.151        -448.170
 96 12 12 18  1 59.9980000  0  8  1 29 22 30 25 21 14 15            -0.001064478
  10654224.391 9   8296050.32747  23272766.256    23272767.7604   23272774.1904
     -2111.642       -1645.435
 -14314999.481 9 -11144337.05948  21459729.962    21459732.0044   21459737.0404
      1915.793        1492.826
  -7044745.679 8  -5241799.99746  23859699.975    23859700.9174   23859709.7154
      3553.952        2769.313
  -6890728.435 9  -5358340.60346  24371178.235    24371179.9284   24371186.4184
      -249.904        -194.730
  -6623362.595 9  -5149115.54449  20461375.675    20461377.6404   20461382.0044
      -468.934        -365.403
  11409688.890 8   8885914.56846  24010786.997    24010788.5334   24010798.0784
     -2776.489       -2163.498
 -17888536.358 9 -13920132.42948  21909787.959    21909789.9714   21909795.9254
      3084.217        2403.286
  -7409203.881 9  -5753418.14248  20516927.723    20516929.2514   20516934.9754
      -595.656        -464.148
 96 12 12 18  2 29.9980000  0  8  1 29 22 30 25 21 14 15            -0.001072508
  10717607.073 9   8345439.36447  23284827.781    23284829.1504   23284835.5884
     -2114.214       -1647.439
 -14372389.930 9 -11189056.88948  21448808.913    21448810.9694   21448816.0444
      1909.783        1488.143
  -7151384.771 8  -5324895.50346  23839407.009    23839408.2154   23839417.0184
      3555.122        2770.225
  -6882968.203 9  -5352293.66246  24372655.055    24372656.6624   24372663.0814
      -267.660        -208.566
  -6609062.306 9  -5137972.45849  20464096.951    20464098.8754   20464103.2494
      -484.611        -377.619
  11493072.613 8   8950888.78646  24026654.805    24026656.1934   24026665.6704
     -2782.638       -2168.289
 -17981010.678 9 -13992190.32948  21892190.629    21892192.6654   21892198.6324
      3080.522        2400.407
  -7391038.793 9  -5739263.53548  20520384.386    20520385.9204   20520391.7034
      -615.631        -479.712
 96 12 12 18  2 59.9980000  0  8  1 29 22 30 25 21 14 15            -0.001080483
  10781074.080 9   8394894.12547  23296905.137    23296906.5764   23296913.0014
     -2116.679       -1649.360
 -14429588.761 9 -11233627.39648  21437924.257    21437926.3714   21437931.5014
      1903.531        1483.271
  -7258051.197 8  -5408012.31046  23819109.246    23819110.3034   23819119.1704
      3556.169        2771.041
  -6874677.905 9  -5345833.70146  24374232.263    24374234.2604   24374240.5634
      -284.924        -222.019
  -6594296.685 9  -5126466.76449  20466906.697    20466908.6284   20466913.0304
      -499.666        -389.350
  11576635.999 8   9016003.03246  24042556.388    24042557.8194   24042567.4944
     -2788.160       -2172.592
 -18073374.982 9 -14064162.50348  21874614.254    21874616.2964   21874622.2914
      3077.345        2397.931
  -7372274.043 9  -5724641.65648  20523955.173    20523956.7274   20523962.5264
      -635.223        -494.979
 96 12 12 18  3 29.9980000  0  8  1 29 22 30 25 21 14 15            -0.001088433
  10844613.941 9   8444405.64147  23308996.433    23308997.8874   23309004.3164
     -2119.578       -1651.619
 -14486591.298 9 -11278044.95548  21427077.016    21427079.1354   21427084.2984
      1896.151        1477.520
  -7364752.334 8  -5491156.12146  23798804.412    23798805.7474   23798814.5694
      3556.706        2771.459
  -6865861.784 9  -5338964.01846  24375910.061    24375911.9014   24375918.2314
      -303.170        -236.236
  -6579077.141 9  -5114607.36649  20469802.885    20469804.8184   20469809.2084
      -515.493        -401.683
  11660364.894 8   9081246.24646  24058489.608    24058490.9954   24058500.6734
     -2794.222       -2177.316
 -18165655.839 9 -14136069.65448  21857053.799    21857055.8244   21857061.7854
      3074.193        2395.475
  -7352920.049 9  -5709560.63048  20527638.149    20527639.6754   20527645.4734
      -655.498        -510.778
 96 12 12 18  3 59.9980000  0  8  1 29 22 30 25 21 14 15            -0.001096349
  10908231.463 9   8493977.66847  23321102.430    23321103.9784   23321110.3884
     -2121.032       -1652.752
 -14543367.394 9 -11322286.06848  21416272.949    21416275.0384   21416280.1794
      1889.402        1472.261
  -7471462.167 8  -5574306.73046  23778497.973    23778499.5834   23778508.5914
      3557.783        2772.298
  -6856500.416 9  -5331669.48046  24377691.497    24377693.2754   24377699.6594
      -320.440        -249.694
  -6563382.787 9  -5102377.98649  20472789.396    20472791.3484   20472795.7534
      -530.392        -413.292
  11744278.003 8   9146633.04445  24074457.951    24074459.1644   24074468.8734
     -2799.589       -2181.498
 -18257831.361 9 -14207894.72948  21839513.465    21839515.4214   21839521.3564
      3071.043        2393.021
  -7332955.128 9  -5694003.56048  20531437.329    20531438.8884   20531444.6604
      -675.104        -526.055
 96 12 12 18  4 29.9980000  0  8  1 29 22 30 25 21 14 15            -0.001104256
  10971874.086 9   8543569.27747  23333213.103    23333214.7754   23333221.2374
     -2121.417       -1653.052
 -14599950.158 9 -11366376.53448  21405505.582    21405507.6844   21405512.8324
      1882.930        1467.218
  -7578211.377 8  -5657487.98046  23758184.243    23758186.0204   23758194.9754
      3559.043        2773.280
  -6846630.954 9  -5323979.03046  24379569.831    24379571.4424   24379577.8364
      -337.338        -262.861
  -6547236.512 9  -5089796.45749  20475861.973    20475863.9004   20475868.2754
      -546.054        -425.497
  11828353.321 8   9212146.24745  24090457.272    24090458.1664   24090468.0434
     -2805.378       -2186.009
 -18349899.089 9 -14279635.79948  21821993.634    21821995.5244   21822001.4244
      3066.767        2389.689
  -7312403.738 9  -5677989.50248  20535348.155    20535349.7094   20535355.4804
      -694.878        -541.463
 96 12 12 18  4 59.9980000  0  8  1 29 22 30 25 21 14 15            -0.001112175
  11035505.573 9   8593152.20547  23345321.786    23345323.5174   23345329.9964
     -2119.628       -1651.658
 -14656343.704 9 -11410319.54548  21394774.180    21394776.3164   21394781.4604
      1877.626        1463.085
  -7685006.074 8  -5740704.66946  23737861.964    23737863.7324   23737872.7354
      3561.402        2775.118
  -6836256.734 9  -5315895.27446  24381543.965    24381545.6664   24381551.9674
      -353.468        -275.430
  -6530611.931 9  -5076842.22549  20479025.517    20479027.4624   20479031.8104
      -561.458        -437.500
  11912601.346 8   9277794.03445  24106488.784    24106490.0264   24106499.9884
     -2810.303       -2189.846
 -18441826.897 9 -14351267.84348  21804500.472    21804502.2604   21804508.1404
      3062.624        2386.460
  -7291264.781 9  -5661517.60048  20539370.761    20539372.3184   20539378.0924
      -713.554        -556.016
 96 12 12 18  5 29.9980000  0  8  1 29 22 30 25 21 14 15            -0.001120132
  11099092.135 9   8642700.11747  23357421.980    23357423.7084   23357430.1564
     -2118.788       -1651.004
 -14712567.826 9 -11454130.54148  21384075.043    21384077.2224   21384082.3264
      1871.484        1458.299
  -7791852.995 8  -5823962.05846  23717530.036    23717531.4474   23717540.6744
      3562.351        2775.858
  -6825382.437 9  -5307421.84846  24383613.205    24383614.9354   24383621.2624
      -370.576        -288.761
  -6513498.190 9  -5063506.83049  20482282.162    20482284.1204   20482288.4374
      -578.656        -450.901
  11997015.277 8   9343571.13645  24122552.326    24122553.5824   24122563.4514
     -2816.760       -2194.878
 -18533609.424 9 -14422786.68248  21787034.690    21787036.6264   21787042.5144
      3056.941        2382.032
  -7269547.397 9  -5644594.97648  20543503.483    20543505.0164   20543510.7984
      -733.533        -571.584
 96 12 12 18  5 59.9980000  0  8  1 29 22 30 25 21 14 15            -0.001128126
  11162641.281 9   8692218.88247  23369515.057    23369516.7564   23369523.2044
     -2117.944       -1650.346
 -14768628.434 9 -11497814.12348  21373406.963    21373409.2314   21373414.3234
      1865.873        1453.927
  -7898742.304 8  -5907252.43946  23697189.609    23697191.1264   23697200.3874
      3563.615        2776.843
  -6814011.440 9  -5298561.38946  24385776.813    24385778.7424   24385785.0584
      -387.452        -301.911
  -6495881.348 9  -5049779.41849  20485634.507    20485636.5044   20485640.8114
      -595.672        -464.160
  12081619.096 8   9409496.22445  24138651.474    24138653.1754   24138663.3744
     -2823.583       -2200.195
 -18625226.499 9 -14494176.60048  21769600.623    21769602.4814   21769608.3404
      3051.053        2377.444
  -7247244.153 9  -5627215.83948  20547747.738    20547749.1874   20547754.9774
      -753.323        -587.005
 96 12 12 18  6 29.9980000  0  8  1 29 22 30 25 21 14 15            -0.001136162
  11226156.036 9   8741710.83846  23381601.661    23381603.2384   23381609.6774
     -2116.025       -1648.851
 -14824532.558 9 -11541375.76548  21362768.892    21362771.0244   21362776.1184
      1861.567        1450.572
  -8005676.288 9  -5990577.58646  23676840.978    23676842.2314   23676851.6004
      3565.645        2778.425
  -6802143.071 9  -5289313.36946  24388035.418    24388037.2144   24388043.5354
      -403.319        -314.274
  -6477765.562 9  -5035663.22049  20489081.873    20489083.8304   20489088.1154
      -611.371        -476.393
  12166418.004 8   9475573.32445  24154788.146    24154789.9194   24154799.9134
     -2829.197       -2204.569
 -18716687.158 9 -14565444.62948  21752196.135    21752198.0904   21752203.9474
      3046.929        2374.230
  -7224358.803 9  -5609383.11348  20552102.711    20552104.1514   20552109.9354
      -771.873        -601.459
 96 12 12 18  6 59.9980000  0  8  1 29 22 30 25 21 14 15            -0.001144229
  11289646.716 9   8791184.02746  23393683.756    23393685.2194   23393691.6234
     -2116.472       -1649.199
 -14880283.696 9 -11584818.20148  21352159.775    21352161.9254   21352167.0134
      1855.382        1445.752
  -8112644.946 9  -6073929.72446  23656485.694    23656486.8744   23656496.1834
      3565.704        2778.471
  -6789774.471 9  -5279675.54246  24390389.143    24390390.9664   24390397.2264
      -420.970        -328.029
  -6459169.173 9  -5021172.53249  20492620.654    20492622.6084   20492626.8834
      -628.087        -489.418
  12251396.200 8   9541790.13045  24170959.090    24170960.8694   24170970.6014
     -2835.721       -2209.653
 -18808011.227 9 -14636606.22648  21734817.819    21734819.6654   21734825.5244
      3041.614        2370.089
  -7200895.630 9  -5591100.13848  20556567.594    20556569.0334   20556574.8324
      -792.107        -617.226
 96 12 12 18  7 29.9980000  0  8  1 29 22 30 25 21 14 15            -0.001152314
  11353137.305 9   8840657.14746  23405765.691    23405767.1134   23405773.5084
     -2116.042       -1648.864
 -14935863.807 9 -11628127.37048  21341583.182    21341585.3684   21341590.4724
      1850.195        1441.710
  -8219624.357 9  -6157290.18746  23636128.336    23636129.4334   23636138.6884
      3566.589        2779.160
  -6776899.861 9  -5269643.42146  24392839.424    24392841.1264   24392847.3274
      -436.970        -340.496
  -6440091.332 9  -5006306.69049  20496251.066    20496253.0064   20496257.2574
      -643.310        -501.281
  12336551.038 8   9608144.63445  24187163.775    24187165.5424   24187174.9744
     -2840.941       -2213.720
 -18899199.996 9 -14707662.38948  21717465.076    21717467.0204   21717472.8524
      3037.910        2367.203
  -7176841.122 9  -5572356.37648  20561145.076    20561146.4594   20561152.2744
      -811.151        -632.066
 96 12 12 18  7 59.9980000  0  8  1 29 22 30 25 21 14 15            -0.001160400
  11416634.416 9   8890135.35146  23417848.788    23417850.2774   23417856.6554
     -2116.653       -1649.340
 -14991276.390 9 -11671306.00048  21331038.482    21331040.6654   21331045.7624
      1844.410        1437.203
  -8326609.470 9  -6240655.03646  23615769.579    23615770.8564   23615780.1014
      3566.283        2778.922
  -6763533.827 9  -5259228.37846  24395382.897    24395384.5904   24395390.9194
      -453.702        -353.534
  -6420559.601 9  -4991087.17749  20499967.904    20499969.7724   20499974.0284
      -658.239        -512.913
  12421863.723 8   9674622.10045  24203398.146    24203399.7574   24203409.4164
     -2845.981       -2217.648
 -18990257.547 9 -14778616.31348  21700137.339    21700139.3344   21700145.1784
      3032.980        2363.361
  -7152206.324 9  -5553160.44748  20565832.886    20565834.2894   20565840.1024
      -830.638        -647.250
 96 12 12 18  8 29.9980000  0  8  1 29 22 30 25 21 14 15            -0.001168467
  11480138.089 9   8939618.66046  23429932.875    23429934.6194   23429941.0644
     -2116.689       -1649.368
 -15046516.925 9 -11714350.56848  21320526.565    21320528.7444   21320533.8344
      1838.565        1432.648
  -8433583.967 9  -6324011.50946  23595412.724    23595414.0844   23595423.3724
      3565.565        2778.362
  -6749672.235 9  -5248427.20646  24398020.435    24398022.4144   24398028.7314
      -470.155        -366.355
  -6400591.062 9  -4975527.29249  20503767.827    20503769.6854   20503773.9054
      -672.753        -524.223
  12507313.748 8   9741206.60946  24219658.868    24219660.1534   24219669.9544
     -2850.298       -2221.011
 -19081174.228 9 -14849460.47048  21682836.595    21682838.4594   21682844.2964
      3028.352        2359.755
  -7126996.836 9  -5533516.70748  20570630.075    20570631.5094   20570637.3174
      -849.717        -662.117
 96 12 12 18  8 59.9980000  0  8  1 29 22 30 25 21 14 15            -0.001176510
  11543650.788 9   8989108.99846  23442019.078    23442020.6724   23442027.1044
     -2117.226       -1649.786
 -15101569.493 9 -11757248.66948  21310050.504    21310052.5834   21310057.6824
      1831.776        1427.358
  -8540531.549 9  -6407347.00646  23575061.197    23575062.5014   23575071.7644
      3564.527        2777.553
  -6735310.906 9  -5237236.58446  24400753.003    24400755.3064   24400761.6664
      -487.128        -379.580
  -6380177.851 9  -4959620.91649  20507652.317    20507654.1914   20507658.4194
      -688.099        -536.181
  12592896.418 8   9807894.48546  24235944.763    24235946.1104   24235955.7394
     -2855.053       -2224.717
 -19171942.050 9 -14920188.62748  21665563.812    21665565.8994   21665571.7564
      3023.012        2355.594
  -7101210.452 9  -5513423.43548  20575537.187    20575538.5274   20575544.3144
      -869.162        -677.269
 96 12 12 18  9 29.9980000  0  8  1 29 22 30 25 21 14 15            -0.001184532
  11607174.026 9   9038607.54747  23454107.316    23454108.7574   23454115.1964
     -2117.611       -1650.086
 -15156423.074 9 -11799991.71748  21299612.253    21299614.2794   21299619.3614
      1825.334        1422.338
  -8647442.492 9  -6490653.94246  23554716.738    23554717.8694   23554727.1564
      3563.079        2776.425
  -6720433.015 9  -5225643.44446  24403584.576    24403586.4334   24403592.9204
      -504.620        -393.210
  -6359298.601 9  -4943351.39549  20511625.507    20511627.4154   20511631.6364
      -703.734        -548.364
  12678627.044 8   9874697.62345  24252258.200    24252260.0574   24252269.7754
     -2860.271       -2228.783
 -19262545.603 9 -14990788.78848  21648322.677    21648324.6004   21648330.4484
      3017.398        2351.219
  -7074844.288 9  -5492878.39448  20580554.525    20580555.8624   20580561.6314
      -888.435        -692.287
 96 12 12 18  9 59.9980000  0  8  1 29 22 30 25 21 14 15            -0.001192535
  11670715.516 9   9088120.31247  23466198.930    23466200.3184   23466206.7924
     -2118.349       -1650.662
 -15211087.945 9 -11842587.71748  21289209.858    21289211.8884   21289216.9304
      1819.000        1417.403
  -8754315.901 9  -6573931.54646  23534379.446    23534380.4234   23534389.5984
      3561.868        2775.482
  -6705019.257 9  -5213632.73746  24406518.002    24406519.5114   24406526.1504
      -523.015        -407.544
  -6337945.912 9  -4926712.96449  20515688.835    20515690.7114   20515694.9474
      -719.952        -561.002
  12764519.814 8   9941627.09246  24268603.138    24268604.8174   24268614.7544
     -2865.955       -2233.212
 -19352977.277 9 -15061255.02048  21631114.139    21631116.0044   21631121.8614
      3011.489        2346.615
  -7047899.191 9  -5471882.24048  20585682.022    20585683.3534   20585689.1364
      -907.946        -707.490
 96 12 12 18 10 29.9980000  0  8  1 29 22 30 25 21 14 15            -0.001200551
  11734265.072 9   9137639.37147  23478292.022    23478293.4624   23478299.9844
     -2117.908       -1650.318
 -15265558.826 9 -11885032.56248  21278844.481    21278846.4654   21278851.4234
      1812.961        1412.697
  -8861160.544 9  -6657186.78846  23514047.362    23514048.3844   23514057.5164
      3561.576        2775.254
  -6689045.306 9  -5201185.53146  24409557.760    24409559.3834   24409565.9224
      -541.331        -421.816
  -6316091.862 9  -4909683.86149  20519847.577    20519849.4204   20519853.6534
      -736.653        -574.015
  12850587.721 8  10008693.03746  24284981.274    24284982.9064   24284993.0264
     -2871.508       -2237.539
 -19443248.817 9 -15131596.47248  21613935.917    21613937.8944   21613943.7104
      3007.027        2343.138
  -7020368.157 9  -5450429.50748  20590921.044    20590922.3684   20590928.1444
      -927.078        -722.398
 96 12 12 18 10 59.9980000  0  8  1 29 22 30 25 21 14 15            -0.001208615
  11797803.777 9   9187149.97447  23490383.017    23490384.5634   23490391.1384
     -2117.864       -1650.284
 -15319864.536 9 -11927348.69748  21268510.395    21268512.4214   21268517.3794
      1807.501        1408.442
  -8968008.105 9  -6740444.34646  23493714.574    23493715.8124   23493724.7654
      3561.621        2775.289
  -6672530.082 9  -5188316.54246  24412700.571    24412702.1604   24412708.7174
      -559.575        -436.032
  -6293737.441 9  -4892264.85649  20524101.484    20524103.3314   20524107.5404
      -753.382        -587.051
  12936818.684 9  10075886.04645  24301390.018    24301392.0474   24301401.9754
     -2877.055       -2241.861
 -19533385.458 9 -15201832.80948  21596783.637    21596785.4604   21596791.2444
      3002.184        2339.364
  -6992267.402 9  -5428532.83848  20596268.511    20596269.7684   20596275.5804
      -946.224        -737.317
 96 12 12 18 11 29.9980000  0  8  1 29 22 30 25 21 14 15            -0.001216715
  11861344.091 9   9236661.82747  23502474.331    23502475.9524   23502482.6104
     -2118.390       -1650.694
 -15374011.547 9 -11969541.17848  21258206.521    21258208.5824   21258213.5484
      1802.168        1404.287
  -9074853.118 9  -6823699.88446  23473382.471    23473383.6294   23473392.5184
      3561.183        2774.948
  -6655476.813 9  -5175028.28746  24415945.559    24415947.2944   24415953.8404
      -577.381        -449.907
  -6270892.804 9  -4874463.86649  20528448.698    20528450.5334   20528454.7224
      -769.680        -599.751
  13023221.450 9  10143212.90445  24317832.181    24317833.9044   24317843.7364
     -2883.268       -2246.702
 -19623378.536 9 -15271957.28448  21579658.468    21579660.3064   21579666.0864
      2997.270        2335.535
  -6963593.271 9  -5406189.38348  20601724.968    20601726.2684   20601732.1174
      -965.573        -752.394
 96 12 12 18 11 59.9980000  0  8  1 29 22 30 25 21 14 15            -0.001224852
  11924880.648 9   9286170.76447  23514565.093    23514566.6204   23514573.2864
     -2117.619       -1650.093
 -15428011.670 9 -12011619.20148  21247930.657    21247932.7474   21247937.6544
      1797.586        1400.716
  -9181702.362 8  -6906958.74146  23453049.308    23453050.6254   23453059.5944
      3561.701        2775.351
  -6637915.688 9  -5161344.29246  24419287.621    24419289.0484   24419295.6554
      -593.560        -462.514
  -6247584.431 9  -4856301.51949  20532884.108    20532885.9934   20532890.1464
      -784.414        -611.232
  13109792.961 9  10210671.27745  24334305.938    24334307.8814   24334317.6434
     -2888.508       -2250.785
 -19713245.352 9 -15341983.36948  21562557.338    21562559.2054   21562564.9674
      2993.484        2332.585
  -6934354.662 9  -5383406.07548  20607288.870    20607290.1964   20607296.0764
      -983.914        -766.686
 96 12 12 18 12 29.9980000  0  8  1 29 22 30 25 21 14 15            -0.001233003
  11988417.098 9   9335679.61147  23526655.778    23526657.2504   23526663.9504
     -2117.755       -1650.199
 -15481842.836 9 -12053565.56848  21237686.965    21237689.0524   21237693.8954
      1791.770        1396.184
  -9288532.614 8  -6990202.85345  23432720.213    23432721.3984   23432730.0054
      3560.711        2774.580
  -6619863.026 9  -5147277.27046  24422722.925    24422724.3514   24422731.0784
      -609.213        -474.711
  -6223818.578 9  -4837782.69449  20537406.703    20537408.5164   20537412.6364
      -799.210        -622.761
  13196546.721 9  10278271.66245  24350814.761    24350816.4954   24350826.2724
     -2894.546       -2255.490
 -19802968.565 9 -15411897.55548  21545483.693    21545485.4724   21545491.2304
      2988.390        2328.616
  -6904544.070 9  -5360177.06748  20612961.671    20612962.9754   20612968.8614
     -1002.818        -781.417
 96 12 12 18 12 59.9980000  0  8  1 29 22 30 25 21 14 15            -0.001241131
  12051964.043 9   9385196.64847  23538748.296    23538749.9414   23538756.5874
     -2118.133       -1650.493
 -15535501.886 9 -12095377.81548  21227476.054    21227478.0544   21227482.9034
      1785.845        1391.568
  -9395321.126 8  -7073414.52245  23412398.707    23412399.9234   23412408.4554
      3559.017        2773.260
  -6601350.911 9  -5132852.23646  24426245.844    24426247.1294   24426253.8294
      -624.528        -486.645
  -6199626.127 9  -4818931.44649  20542010.399    20542012.1904   20542016.3004
      -813.070        -633.561
  13283484.195 9  10346015.18545  24367358.658    24367360.0404   24367370.0284
     -2900.660       -2260.255
 -19892525.205 9 -15481681.94848  21528441.679    21528443.4134   21528449.1814
      2982.547        2324.062
  -6874169.828 9  -5336508.85148  20618741.669    20618743.0004   20618748.9044
     -1021.603        -796.054
 96 12 12 18 13 29.9980000  0  8  1 29 22 30 25 21 14 15            -0.001249221
  12115516.438 9   9434717.93547  23550842.277    23550843.6064   23550850.2604
     -2118.716       -1650.947
 -15588974.425 9 -12137044.74248  21217300.552    21217302.5744   21217307.4204
      1778.969        1386.210
  -9502055.849 8  -7156584.21746  23392087.577    23392088.8374   23392097.1184
      3556.570        2771.353
  -6582380.521 9  -5118070.10546  24429855.429    24429857.0504   24429863.6794
      -640.530        -499.114
  -6175018.787 9  -4799756.90849  20546692.975    20546694.8074   20546698.9154
      -827.796        -645.036
  13370612.471 9  10413907.34645  24383938.512    24383940.0774   24383950.1054
     -2907.929       -2265.919
 -19981908.222 9 -15551331.05048  21511432.331    21511434.3824   21511440.1634
      2976.149        2319.077
  -6843233.292 9  -5312402.48748  20624628.685    20624630.0284   20624635.9474
     -1040.994        -811.164
 96 12 12 18 13 59.9980000  0  8  1 29 22 30 25 21 14 15            -0.001257281
  12179075.542 9   9484244.44447  23562937.230    23562938.6104   23562945.2384
     -2118.315       -1650.635
 -15642242.651 9 -12178552.45748  21207163.926    21207165.9874   21207170.8034
      1772.453        1381.132
  -9608722.853 9  -7239701.14446  23371789.234    23371790.5474   23371798.9264
      3554.749        2769.934
  -6562915.504 9  -5102902.55446  24433559.722    24433561.1224   24433567.6934
      -657.002        -511.950
  -6149963.998 9  -4780233.70449  20551460.831    20551462.5804   20551466.6694
      -842.420        -656.431
  13457950.809 9  10481963.22145  24400558.411    24400559.7974   24400570.1214
     -2914.493       -2271.034
 -20071095.899 9 -15620827.94048  21494460.579    21494462.5674   21494468.3524
      2969.791        2314.123
  -6811713.799 9  -5287841.86848  20630626.667    20630628.0124   20630633.9174
     -1060.115        -826.064
 96 12 12 18 14 29.9980000  0  8  1 29 22 30 25 21 14 15            -0.001265325
  12242620.672 9   9533760.05247  23575029.603    23575030.9254   23575037.5364
     -2117.731       -1650.180
 -15695318.249 9 -12219910.06748  21197064.060    21197066.0804   21197070.8544
      1766.245        1376.295
  -9715343.753 9  -7322782.20946  23351499.880    23351501.1154   23351509.5054
      3553.594        2769.034
  -6542954.027 9  -5087348.16546  24437358.337    24437359.5004   24437366.3254
      -673.735        -524.988
  -6124472.781 9  -4760370.42549  20556311.604    20556313.3854   20556317.5004
      -856.738        -667.588
  13545473.501 8  10550162.74345  24417213.690    24417214.7554   24417225.0144
     -2920.134       -2275.429
 -20160095.117 9 -15690177.98048  21477524.636    21477526.5944   21477532.4014
      2963.835        2309.482
  -6779626.189 9  -5262838.55948  20636732.780    20636734.1264   20636739.9884
     -1078.820        -840.639
 96 12 12 18 14 59.9980000  0  8  1 29 22 30 25 21 14 15            -0.001273373
  12306149.512 9   9583262.96847  23587118.828    23587120.1164   23587126.7964
     -2117.168       -1649.741
 -15748215.738 9 -12261128.88948  21186998.076    21187000.0254   21187004.7494
      1760.607        1371.902
  -9821935.456 9  -7405840.54646  23331216.232    23331217.2434   23331225.4984
      3553.043        2768.605
  -6522468.507 9  -5071385.41846  24441256.416    24441257.8284   24441264.6994
      -691.677        -538.969
  -6098543.399 9  -4740165.71349  20561245.762    20561247.5644   20561251.7184
      -871.613        -679.179
  13633159.098 8  10618489.13845  24433899.629    24433900.5744   24433911.2324
     -2925.212       -2279.386
 -20248918.425 9 -15759390.94448  21460622.356    21460624.1034   21460629.9184
      2958.141        2305.045
  -6746972.833 9  -5237394.40848  20642946.485    20642947.8514   20642953.6934
     -1097.752        -855.391
 96 12 12 18 15 29.9980000  0  8  1 29 22 30 25 21 14 15            -0.001281462
  12369649.310 9   9632743.27147  23599202.595    23599203.8344   23599210.5104
     -2116.485       -1649.209
 -15800958.539 9 -12302227.17448  21176961.397    21176963.3864   21176968.1114
      1755.403        1367.846
  -9928535.826 9  -7488905.65146  23310930.766    23310931.7604   23310939.9624
      3553.312        2768.814
  -6501453.669 9  -5055010.23846  24445255.466    24445256.7524   24445263.7114
      -709.527        -552.878
  -6072173.792 9  -4719617.97449  20566263.713    20566265.5314   20566269.7084
      -886.628        -690.879
  13720975.622 8  10686917.59145  24450610.518    24450611.5754   24450622.1554
     -2929.570       -2282.782
 -20337586.879 9 -15828483.25048  21443749.313    21443751.1054   21443756.9064
      2952.855        2300.926
  -6713765.453 9  -5211518.54848  20649265.628    20649267.0184   20649272.8524
     -1116.293        -869.839
 96 12 12 18 15 59.9980000  0  8  1 29 22 30 25 21 14 15            -0.001289585
  12433140.438 9   9682216.79947  23611284.526    23611285.8324   23611292.5684
     -2116.317       -1649.078
 -15853538.323 9 -12343198.43448  21166955.761    21166957.8004   21166962.5254
      1749.846        1363.516
 -10035134.817 9  -7571969.69046  23290645.454    23290646.4454   23290654.6834
      3553.174        2768.707
  -6479902.348 9  -5038217.01546  24449356.510    24449357.7894   24449364.7094
      -727.097        -566.569
  -6045351.680 9  -4698717.62849  20571367.803    20571369.6124   20571373.7774
      -901.403        -702.392
  13808918.995 8  10755444.88245  24467345.884    24467346.7304   24467357.0804
     -2933.593       -2285.917
 -20426089.343 9 -15897446.20548  21426907.850    21426909.6254   21426915.4754
      2947.296        2296.594
  -6679999.237 9  -5185207.22948  20655691.178    20655692.5284   20655698.3584
     -1134.717        -884.195
 96 12 12 18 16 29.9980000  0  8  1 29 22 30 25 21 14 15            -0.001297733
  12496624.845 9   9731685.09447  23623365.295    23623366.5834   23623373.2944
     -2116.530       -1649.244
 -15905960.228 9 -12384046.67048  21156980.245    21156982.2904   21156986.9974
      1744.341        1359.227
 -10141733.850 9  -7655033.74246  23270360.018    23270361.2124   23270369.5074
      3552.796        2768.412
  -6457844.212 9  -5021028.87846  24453553.953    24453555.3374   24453562.3184
      -744.048        -579.778
  -6018095.707 9  -4677479.20949  20576554.446    20576556.2384   20576560.4144
      -916.306        -714.005
  13896967.898 8  10824054.37645  24484101.438    24484101.9294   24484112.2324
     -2936.964       -2288.543
 -20514430.891 9 -15966283.77648  21410097.009    21410098.7674   21410104.6324
      2941.580        2292.140
  -6645695.070 9  -5158476.72148  20662218.995    20662220.4184   20662226.2654
     -1152.767        -898.260
 96 12 12 18 16 59.9980000  0  7  1 29 22 30 25 14 15               -0.001305894
  12560129.786 9   9781169.40447  23635449.658    23635451.2044   23635457.9624
     -2117.012       -1649.620
 -15958202.295 9 -12424754.77448  21147038.972    21147040.9774   21147045.6874
      1738.469        1354.651
 -10248302.231 9  -7738073.91746  23250080.730    23250081.8674   23250090.0944
      3551.674        2767.538
  -6435271.745 9  -5003439.96346  24457849.127    24457850.8554   24457857.7494
      -760.583        -592.662
  -5990371.878 9  -4655876.22949  20581830.059    20581831.8904   20581836.0834
      -931.787        -726.068
 -20602582.148 9 -16034973.06048  21393322.163    21393324.1574   21393330.0554
      2935.130        2287.114
  -6610839.084 9  -5131316.23248  20668851.861    20668853.3234   20668859.1474
     -1170.909        -912.397
 96 12 12 18 17 29.9980000  0  7  1 29 22 30 25 14 15               -0.001314052
  12623654.477 9   9830669.08546  23647537.872    23647539.6004   23647546.4564
     -2117.328       -1649.866
 -16010255.137 9 -12465315.42148  21137133.576    21137135.6624   21137140.3734
      1732.199        1349.765
 -10354812.761 9  -7821068.99746  23229812.493    23229813.5084   23229821.7814
      3549.362        2765.737
  -6412207.653 9  -4985467.92846  24462238.197    24462239.7764   24462246.7144
      -776.602        -605.144
  -5962181.534 9  -4633909.73749  20587194.458    20587196.3394   20587200.5264
      -947.024        -737.941
 -20690530.625 9 -16103504.34148  21376585.954    21376588.1214   21376594.0294
      2928.674        2282.084
  -6575434.617 9  -5103728.35548  20675589.168    20675590.6004   20675596.4054
     -1188.931        -926.440
 96 12 12 18 17 59.9980000  0  7  1 29 22 30 25 14 15               -0.001322202
  12687190.068 9   9880177.25446  23659628.219    23659629.9854   23659636.9664
     -2117.560       -1650.047
 -16062103.351 9 -12505716.62148  21127267.201    21127269.2574   21127273.9644
      1725.249        1344.350
 -10461234.932 9  -7903995.21246  23209560.915    23209562.0214   23209570.2744
      3546.096        2763.192
  -6388647.064 9  -4967109.02146  24466721.635    24466723.2384   24466730.1464
      -793.241        -618.110
  -5933524.973 9  -4611579.95449  20592647.578    20592649.4864   20592653.6894
      -962.578        -750.061
 -20778274.290 9 -16171876.02748  21359888.796    21359891.0374   21359896.9824
      2921.707        2276.655
  -6539475.623 9  -5075708.37848  20682431.994    20682433.4094   20682439.1884
     -1207.589        -940.978
 96 12 12 18 18 29.9980000  0  7  1 29 22 30 25 14 15               -0.001330345
  12750724.074 9   9929684.20046  23671718.494    23671720.1764   23671727.1954
     -2117.702       -1650.157
 -16113756.476 9 -12545965.80348  21117437.964    21117439.9954   21117444.7184
      1718.662        1339.217
 -10567557.784 9  -7986844.04246  23189328.321    23189329.3124   23189337.5754
      3542.421        2760.328
  -6364588.911 9  -4948362.40146  24471300.000    24471301.5074   24471308.3404
      -810.254        -631.367
  -5904408.351 9  -4588891.68649  20598188.284    20598190.1994   20598194.4254
      -978.203        -762.236
 -20865817.940 9 -16240091.85348  21343229.856    21343232.0604   21343238.0494
      2914.904        2271.354
  -6502960.957 9  -5047255.41248  20689380.543    20689381.9524   20689387.7124
     -1226.390        -955.629
 96 12 12 18 18 59.9980000  0  7  1 29 22 30 25 14 15               -0.001338494
  12814247.524 9   9979182.89946  23683806.962    23683808.2884   23683815.3814
     -2116.884       -1649.520
 -16165226.068 9 -12586071.97748  21107643.685    21107645.6714   21107650.3904
      1713.094        1334.878
 -10673774.131 9  -8069609.85246  23169116.054    23169116.9244   23169125.1164
      3538.949        2757.622
  -6340033.055 9  -4929227.94846  24475972.774    24475974.3814   24475981.1634
      -826.605        -644.108
  -5874835.026 9  -4565847.54849  20603815.924    20603817.8294   20603822.0504
      -992.754        -773.575
 -20953171.723 9 -16308159.73448  21326606.950    21326609.2184   21326615.2254
      2908.977        2266.735
  -6465890.437 9  -5018369.31248  20696434.836    20696436.2454   20696442.0294
     -1244.640        -969.849
 96 12 12 18 19 29.9980000  0  7  1 29 22 30 25 14 15               -0.001346656
  12877732.827 9  10028651.89446  23695887.975    23695889.1734   23695896.3054
     -2115.436       -1648.392
 -16216547.053 9 -12626062.34148  21097877.555    21097879.6164   21097884.3614
      1708.427        1331.242
 -10779898.537 9  -8152304.03146  23148921.032    23148922.0034   23148930.1884
      3536.304        2755.562
  -6314995.142 9  -4909717.88246  24480737.365    24480738.8934   24480745.5884
      -842.491        -656.486
  -5844844.404 9  -4542478.23649  20609523.021    20609524.8784   20609529.0824
     -1006.572        -784.342
 -21040357.149 9 -16376096.42948  21310016.248    21310018.4084   21310024.3914
      2903.526        2262.488
  -6428281.306 9  -4989063.52048  20703591.622    20703593.0154   20703598.8414
     -1262.407        -983.694
 96 12 12 18 19 59.9980000  0  7  1 29 22 30 25 14 15               -0.001354848
  12941173.253 9  10078085.92446  23707960.103    23707961.5874   23707968.7174
     -2114.585       -1647.729
 -16267731.660 9 -12665946.44348  21088137.437    21088139.5184   21088144.2754
      1703.511        1327.411
 -10885957.443 9  -8234947.16246  23128738.576    23128739.5544   23128747.7924
      3533.820        2753.626
  -6289480.009 8  -4889835.94746  24485592.346    24485594.2284   24485600.9584
      -858.841        -669.227
  -5814441.190 9  -4518787.42549  20615308.560    20615310.4164   20615314.6164
     -1020.594        -795.268
 -21127375.907 9 -16443903.25048  21293457.207    21293459.2694   21293465.2764
      2897.209        2257.565
  -6390146.178 9  -4959347.85848  20710848.479    20710849.8864   20710855.7274
     -1280.332        -997.661
 96 12 12 18 20 29.9980000  0  7  1 29 22 30 25 14 15               -0.001363041
  13004602.350 9  10127511.10946  23720030.270    23720031.8464   23720038.9364
     -2114.301       -1647.507
 -16318769.843 9 -12705716.45448  21078425.207    21078427.2424   21078432.0334
      1698.537        1323.535
 -10991938.640 9  -8317529.74846  23108570.897    23108571.9494   23108580.1224
      3531.421        2751.757
  -6263474.882 9  -4869572.20946  24490541.097    24490542.8074   24490549.6364
      -875.228        -681.996
  -5783621.530 9  -4494772.11949  20621173.357    20621175.1714   20621179.3404
     -1034.442        -806.059
 -21214203.302 9 -16511560.95948  21276934.506    21276936.5704   21276942.6074
      2890.826        2252.592
  -6351476.394 9  -4929215.58848  20718207.080    20718208.5174   20718214.3474
     -1297.974       -1011.408
 96 12 12 18 20 59.9980000  0  7  1 29 22 30 25 14 15               -0.001371229
  13068041.149 9  10176943.85646  23732102.178    23732103.8904   23732110.9854
     -2115.025       -1648.071
 -16369643.418 9 -12745358.19348  21068744.166    21068746.3284   21068751.1324
      1692.785        1319.053
 -11097846.294 9  -8400055.01546  23088417.315    23088418.3074   23088426.4904
      3529.016        2749.883
  -6236965.613 9  -4848915.64446  24495585.587    24495587.2894   24495594.1464
      -892.323        -695.317
  -5752375.072 9  -4470424.23749  20627119.326    20627121.1714   20627125.3284
     -1048.731        -817.193
 -21300821.560 9 -16579055.70248  21260451.711    21260453.6164   21260459.7324
      2883.501        2246.884
  -6312266.668 9  -4898662.57648  20725668.587    20725669.9084   20725675.7334
     -1316.143       -1025.566
 96 12 12 18 21 29.9980000  0  7  1 29 22 30 25 14 15               -0.001379411
  13131490.668 9  10226384.96646  23744176.559    23744178.0334   23744185.1124
     -2114.996       -1648.049
 -16420339.863 9 -12784861.91748  21059097.056    21059099.1354   21059103.9514
      1686.793        1314.384
 -11203701.026 9  -8482539.06446  23068273.679    23068274.7234   23068282.8994
      3527.831        2748.959
  -6209953.969 9  -4827867.63746  24500725.561    24500727.4494   24500734.4394
      -908.505        -707.926
  -5720705.446 9  -4445746.61449  20633145.848    20633147.7104   20633151.8694
     -1062.786        -828.145
 -21387225.837 9 -16646383.71348  21244009.578    21244011.3994   21244017.5454
      2876.777        2241.644
  -6272525.779 9  -4867695.67548  20733231.027    20733232.3504   20733238.2074
     -1333.302       -1038.937
 96 12 12 18 21 59.9980000  0  7  1 29 22 30 25 14 15               -0.001387592
  13194958.464 9  10275840.31846  23756254.270    23756255.6764   23756262.7624
     -2116.303       -1649.067
 -16470841.361 9 -12824213.72748  21049486.934    21049489.0144   21049493.8524
      1679.858        1308.980
 -11309505.770 9  -8564984.14746  23048139.590    23048140.6254   23048148.8014
      3525.546        2747.179
  -6182443.588 9  -4806431.01446  24505961.017    24505962.4874   24505969.4474
      -925.634        -721.273
  -5688609.052 9  -4420736.45349  20639253.693    20639255.4524   20639259.6104
     -1077.151        -839.338
 -21473423.725 9 -16713550.89748  21227606.475    21227608.4884   21227614.6254
      2869.665        2236.102
  -6232259.783 9  -4836319.59848  20740893.353    20740894.7554   20740900.5944
     -1351.312       -1052.970
 96 12 12 18 22 29.9980000  0  7  1 29 22 30 25 14 15               -0.001395771
  13258456.799 9  10325319.44846  23768337.754    23768339.1334   23768346.2454
     -2116.861       -1649.502
 -16521140.613 9 -12863407.94348  21039915.306    21039917.4014   21039922.2314
      1673.426        1303.968
 -11415238.942 9  -8647373.48146  23028019.238    23028020.1484   23028028.2814
      3523.274        2745.408
  -6154422.544 9  -4784596.46946  24511293.419    24511294.6884   24511301.6334
      -942.375        -734.318
  -5656076.095 9  -4395386.11349  20645444.469    20645446.2654   20645450.4414
     -1091.831        -850.777
 -21559419.545 9 -16780560.62148  21211241.928    21211244.0264   21211250.1494
      2863.368        2231.196
  -6191454.085 9  -4804522.97248  20748658.443    20748659.8494   20748665.6954
     -1369.097       -1066.829
 96 12 12 18 22 59.9980000  0  7  1 29 22 30 25 14 15               -0.001403978
  13321957.528 9  10374800.45346  23780421.696    23780422.9354   23780430.0754
     -2116.760       -1649.423
 -16571256.785 9 -12902459.50648  21030378.530    21030380.5984   21030385.4484
      1667.410        1299.281
 -11520906.907 9  -8729712.02646  23007910.785    23007912.1154   23007920.2134
      3520.737        2743.431
  -6125912.916 9  -4762381.23646  24516718.454    24516719.8714   24516726.8664
      -958.487        -746.873
  -5623106.122 9  -4369695.24449  20651718.510    20651720.2944   20651724.4884
     -1106.474        -862.188
 -21645230.654 9 -16847426.41848  21194912.544    21194914.7034   21194920.8034
      2857.101        2226.312
  -6150122.832 9  -4772316.82248  20756523.516    20756524.9584   20756530.7524
     -1386.638       -1080.497
 96 12 12 18 23 29.9980000  0  8  1 29 22 30 16 25 14 15            -0.001412210
  13385457.149 9  10424280.60146  23792505.226    23792506.6004   23792513.7044
     -2116.500       -1649.221
 -16621189.847 9 -12941368.37948  21020876.564    21020878.6504   21020883.5074
      1661.501        1294.676
 -11626480.841 9  -8811977.29846  22987820.756    22987821.8374   22987829.9904
      3517.227        2740.696
  -6096920.160 9  -4739789.53846  24522235.798    24522237.1914   24522244.0124
      -974.438        -759.302
   -579686.04419   -435593.73455  24773731.784    24773733.0145   24773740.9885
      3676.957        2865.161
  -5589692.461 9  -4343658.65249  20658077.003    20658078.7534   20658082.9624
     -1121.120        -873.600
 -21730850.198 9 -16914142.94448  21178619.665    21178621.8144   21178627.9054
      2850.755        2221.368
  -6108263.749 9  -4739699.37848  20764489.050    20764490.4834   20764496.3084
     -1404.088       -1094.095
 96 12 12 18 23 59.9980000  0  8  1 29 22 30 16 25 14 15            -0.001420460
  13448944.650 9  10473751.29146  23804586.674    23804587.9404   23804594.9864
     -2116.245       -1649.022
 -16670958.325 9 -12980149.00348  21011405.912    21011408.0024   21011412.8874
      1655.930        1290.335
 -11731938.302 9  -8894151.83846  22967752.818    22967753.8434   22967761.9324
      3512.873        2737.304
  -6067445.458 9  -4716822.29846  24527844.501    24527846.0714   24527852.7974
      -991.002        -772.209
   -690027.541 9   -521574.17445  24752734.479    24752735.1825   24752742.8654
      3678.612        2866.451
  -5555852.525 9  -4317289.89449  20664516.530    20664518.3214   20664522.5404
     -1135.328        -884.671
 -21816280.532 9 -16980712.03448  21162362.981    21162364.9404   21162371.0424
      2843.984        2216.091
  -6065881.731 9  -4706674.45148  20772554.043    20772555.5294   20772561.3664
     -1421.831       -1107.920
 96 12 12 18 24 29.9980000  0  8  1 29 22 30 16 25 14 15            -0.001428724
  13512408.997 9  10523203.92446  23816663.501    23816664.8664   23816671.9204
     -2115.244       -1648.242
 -16720563.376 9 -13018802.28748  21001966.284    21001968.4524   21001973.3504
      1650.551        1286.144
 -11837262.578 9  -8976222.61046  22947710.243    22947711.2194   22947719.2484
      3508.305        2733.744
  -6037482.628 9  -4693474.68346  24533546.011    24533547.8034   24533554.5384
     -1006.919        -784.612
   -800426.901 9   -607599.71145  24731725.957    24731726.5824   24731734.6154
      3680.827        2868.177
  -5521584.785 9  -4290587.78749  20671037.529    20671039.2584   20671043.4874
     -1149.463        -895.685
 -21901501.620 9 -17047118.07348  21146146.094    21146147.8824   21146153.9784
      2836.838        2210.523
  -6022975.092 9  -4673240.72548  20780718.946    20780720.3994   20780726.2624
     -1439.055       -1121.341
 96 12 12 18 24 59.9980000  0  8  1 29 22 30 16 25 14 15            -0.001436976
  13575856.401 9  10572643.37046  23828737.053    23828738.5254   23828745.5924
     -2114.585       -1647.729
 -16769994.979 9 -13057320.41748  20992559.795    20992561.9374   20992566.8244
      1644.931        1281.764
 -11942444.642 9  -9058182.59246  22927694.674    22927695.7394   22927703.6774
      3503.983        2730.376
  -6007036.471 9  -4669750.43546  24539339.865    24539341.6494   24539348.3214
     -1022.784        -796.975
   -910887.115 9   -693672.63546  24710705.951    24710706.8644   24710714.6554
      3683.192        2870.020
  -5486902.301 9  -4263562.50149  20677637.387    20677639.1494   20677643.3974
     -1162.566        -905.896
 -21986490.356 9 -17113343.06148  21129973.058    21129975.0164   21129981.0894
      2829.263        2204.620
  -5979548.600 9  -4639401.92648  20788982.722    20788984.2184   20788990.0884
     -1455.991       -1134.538
 96 12 12 18 25 29.9980000  0  8  1 29 22 30 16 25 14 15            -0.001445194
  13639300.423 9  10622080.18246  23840810.145    23840811.5804   23840818.6294
     -2114.465       -1647.635
 -16819234.584 9 -13095688.94348  20983189.857    20983191.9624   20983196.8264
      1638.306        1276.602
 -12047484.940 9  -9140032.11446  22907706.010    22907707.0384   22907715.0014
      3499.227        2726.670
  -5976088.916 9  -4645635.47646  24545228.565    24545230.7474   24545237.5004
     -1039.931        -810.336
  -1021398.738 9   -779785.61846  24689676.425    24689677.3584   24689685.0534
      3684.657        2871.161
  -5451816.478 9  -4236222.91949  20684313.996    20684315.7934   20684320.0424
     -1175.910        -916.293
 -22071236.565 9 -17179379.06748  21113846.346    21113848.3594   21113854.3624
      2821.008        2198.188
  -5935597.693 9  -4605154.49148  20797346.329    20797347.8194   20797353.7204
     -1473.582       -1148.246
 96 12 12 18 25 59.9980000  0  8  1 29 22 30 16 25 14 15            -0.001453372
  13702734.902 9  10671509.56246  23852881.683    23852882.9024   23852889.8764
     -2114.138       -1647.380
 -16868292.292 9 -13133915.72448  20973854.402    20973856.5734   20973861.4414
      1632.602        1272.157
 -12152399.081 9  -9221783.34846  22887741.079    22887742.4484   22887750.2944
      3495.498        2723.765
  -5944640.825 9  -4621130.46446  24551213.277    24551215.1404   24551221.9374
     -1056.123        -822.953
  -1131961.110 9   -865938.12346  24668637.117    24668638.1274   24668645.6844
      3686.609        2872.682
  -5416353.945 9  -4208589.80049  20691062.262    20691064.1014   20691068.3684
     -1188.053        -925.756
 -22155746.904 9 -17245231.28548  21097764.509    21097766.5984   21097772.5174
      2813.464        2192.310
  -5891130.719 9  -4570504.92948  20805808.180    20805809.6194   20805815.5264
     -1490.464       -1161.400
 96 12 12 18 26 29.9980000  0  8  1 29 22 30 16 25 14 15            -0.001461524
  13766170.399 9  10720939.74246  23864952.842    23864954.3384   23864961.3524
     -2114.769       -1647.872
 -16917169.348 9 -13172001.74048  20964553.452    20964555.5654   20964560.4524
      1626.307        1267.252
 -12257198.193 9  -9303444.97246  22867798.398    22867799.7144   22867807.4914
      3491.394        2720.567
  -5912698.566 9  -4596240.40546  24557291.988    24557293.5134   24557300.3234
     -1073.070        -836.158
  -1242570.742 9   -952127.45946  24647588.710    24647589.7764   24647597.4534
      3687.649        2873.493
  -5380506.648 9  -4180656.86449  20697883.843    20697885.6414   20697889.9134
     -1201.390        -936.148
 -22240027.387 9 -17310904.38948  21081726.408    21081728.5694   21081734.4454
      2805.569        2186.158
  -5846149.486 9  -4535454.63948  20814367.800    20814369.2594   20814375.1784
     -1507.973       -1175.044
 96 12 12 18 26 59.9980000  0  8  1 29 22 30 16 25 14 15            -0.001469649
  13829635.592 9  10770393.06646  23877029.788    23877031.3784   23877038.4764
     -2115.415       -1648.375
 -16965860.144 9 -13209942.61848  20955287.933    20955290.0084   20955294.9354
      1620.507        1262.733
 -12361873.815 9  -9385010.39146  22847879.141    22847880.4964   22847888.2454
      3487.696        2717.685
  -5880237.921 9  -4570946.37646  24563468.984    24563470.6204   24563477.5274
     -1090.346        -849.620
  -1353202.829 9  -1038334.29246  24626536.090    24626537.1924   24626544.9024
      3688.435        2874.105
  -5344250.501 9  -4152405.33449  20704783.080    20704784.9624   20704789.2704
     -1215.194        -946.904
 -22324072.819 9 -17376394.33948  21065733.309    21065735.2784   21065741.1094
      2798.152        2180.378
  -5800640.695 9  -4499993.26948  20823027.791    20823029.3064   20823035.2214
     -1525.324       -1188.564
 96 12 12 18 27 29.9980000  0  8  1 29 22 30 16 25 14 15            -0.001477804
  13893088.932 9  10819837.12746  23889104.530    23889106.2274   23889113.3334
     -2114.575       -1647.721
 -17014405.246 9 -13247769.97448  20946050.043    20946052.1694   20946057.1004
      1616.257        1259.421
 -12466455.147 9  -9466502.35446  22827977.995    22827979.2564   22827986.9834
      3484.639        2715.303
  -5847279.360 9  -4545264.38646  24569741.053    24569742.4094   24569749.2274
     -1106.368        -862.105
  -1463875.025 9  -1124572.37446  24605475.713    24605477.0484   24605484.6904
      3690.060        2875.371
  -5307592.086 9  -4123840.34949  20711758.947    20711760.8614   20711765.1814
     -1228.386        -957.184
 -22407918.067 9 -17441728.30148  21049778.118    21049780.0884   21049785.8794
      2791.741        2175.383
  -5754631.502 9  -4464141.97648  20831783.130    20831784.5994   20831790.4884
     -1541.596       -1201.244
 96 12 12 18 27 59.9980000  0  8  1 29 22 30 16 25 14 15            -0.001485991
  13956546.587 9  10869284.54346  23901180.256    23901181.8454   23901188.9984
     -2115.887       -1648.743
 -17062810.416 9 -13285488.29348  20936838.880    20936840.9524   20936845.8874
      1610.699        1255.090
 -12570928.604 9  -9547910.26546  22808097.507    22808098.6104   22808106.2784
      3480.236        2711.872
  -5813830.714 9  -4519200.49845  24576106.120    24576107.4834   24576114.2404
     -1123.419        -875.391
  -1574573.259 9  -1210830.75646  24584410.659    24584411.8744   24584419.5934
      3689.797        2875.166
  -5270511.440 9  -4094946.35149  20718815.232    20718817.1114   20718821.4274
     -1243.697        -969.115
 -22491549.587 9 -17506895.71848  21033863.398    21033865.5514   21033871.3184
      2783.675        2169.097
  -5708118.388 9  -4427898.01848  20840634.307    20840635.7824   20840641.6234
     -1559.258       -1215.006
 96 12 12 18 28 29.9980000  0  8  1 29 22 30 16 25 14 15            -0.001494217
  14020024.727 9  10918747.92346  23913259.974    23913261.4184   23913268.6294
     -2116.266       -1649.038
 -17111064.771 9 -13323089.09348  20927656.360    20927658.4344   20927663.4254
      1605.952        1251.391
 -12675281.301 9  -9629224.09346  22788239.952    22788240.9354   22788248.5454
      3476.264        2708.777
  -5779882.627 9  -4492747.46945  24582565.779    24582567.6214   24582574.1674
     -1139.940        -888.265
  -1685271.815 8  -1297089.38346  24563345.433    24563346.7434   24563354.4074
      3690.052        2875.365
  -5232977.436 9  -4065699.08349  20725957.725    20725959.6074   20725963.9124
     -1258.624        -980.746
 -22574950.990 9 -17571883.82848  21017992.889    21017994.8034   21018000.5724
      2775.999        2163.116
  -5661090.660 9  -4391253.06548  20849583.375    20849584.8764   20849590.6974
     -1576.133       -1228.156
 96 12 12 18 28 59.9980000  0  8  1 29 22 30 16 25 14 15            -0.001502479
  14083498.820 9  10968208.16946  23925338.895    23925340.3114   23925347.4214
     -2115.096       -1648.127
 -17159182.891 9 -13360583.73948  20918499.791    20918501.8654   20918506.8694
      1601.948        1248.271
 -12779519.455 9  -9710448.67846  22768404.073    22768405.1524   22768412.5694
      3473.003        2706.236
  -5745459.429 9  -4465924.20245  24589116.482    24589118.2394   24589124.7104
     -1154.725        -899.786
  -1795998.399 8  -1383369.85846  24542274.696    24542276.1434   24542283.8304
      3691.869        2876.781
  -5195018.225 9  -4036120.47949  20733181.073    20733183.0074   20733187.3484
     -1271.650        -990.896
 -22658116.751 9 -17636688.31848  21002167.014    21002168.8774   21002174.6444
      2768.572        2157.329
  -5613570.703 9  -4354224.54948  20858626.114    20858627.6604   20858633.4414
     -1591.746       -1240.322
 96 12 12 18 29 29.9980000  0  8  1 29 22 30 16 25 14 15            -0.001510743
  14146961.122 9  11017659.20946  23937415.483    23937416.8764   23937424.0624
     -2115.486       -1648.431
 -17207146.495 9 -13397957.98848  20909372.658    20909374.7084   20909379.7094
      1595.961        1243.606
 -12883624.001 9  -9791569.15846  22748593.507    22748594.7864   22748602.1014
      3467.601        2702.027
  -5710573.087 9  -4438740.05545  24595755.507    24595756.7794   24595763.1554
     -1170.610        -912.164
  -1906753.719 8  -1469672.70246  24521198.547    24521200.1554   24521207.7664
      3692.201        2877.040
  -5156663.879 9  -4006233.98349  20740479.673    20740481.5964   20740485.9504
     -1284.806       -1001.148
 -22741036.865 9 -17701301.39548  20986387.727    20986389.7034   20986395.4704
      2759.741        2150.448
  -5565557.700 9  -4316811.84648  20867762.692    20867764.2204   20867770.0384
     -1608.758       -1253.578
 96 12 12 18 29 59.9980000  0  8  1 29 22 30 16 25 14 15            -0.001518965
  14210434.250 9  11067118.69246  23949493.696    23949495.4174   23949502.6924
     -2115.854       -1648.717
 -17254937.806 9 -13435197.97948  20900278.235    20900280.3174   20900285.3534
      1589.995        1238.957
 -12987573.735 9  -9872568.99446  22728812.502    22728813.8164   22728821.1294
      3462.264        2697.868
  -5675214.169 8  -4411187.68545  24602483.759    24602485.3324   24602491.8574
     -1186.644        -924.658
  -2017527.305 8  -1555989.77546  24500119.204    24500120.6694   24500128.3094
      3692.651        2877.390
  -5117933.533 9  -3976054.50049  20747849.760    20747851.7044   20747856.0594
     -1297.214       -1010.816
 -22823700.166 9 -17765714.35948  20970657.474    20970659.4054   20970665.1694
      2751.178        2143.775
  -5517043.866 9  -4279008.89248  20876994.654    20876996.1034   20877001.9374
     -1625.530       -1266.647
 96 12 12 18 30 29.9980000  0  8  1 29 22 30 16 25 14 15            -0.001527145
  14273901.958 9  11116573.93946  23961571.272    23961572.9964   23961580.3164
     -2115.819       -1648.690
 -17302550.701 9 -13472298.94148  20891217.771    20891219.8574   20891224.9324
      1583.709        1234.059
 -13091354.584 9  -9953437.22747  22709063.628    22709064.9654   22709072.3534
      3456.020        2693.003
  -5639379.622 8  -4383264.67845  24609302.259    24609304.5534   24609310.8784
     -1202.655        -937.134
  -2128328.723 8  -1642328.51545  24479034.550    24479035.8124   24479043.4424
      3693.678        2878.191
  -5078835.861 9  -3945588.78249  20755289.759    20755291.7404   20755296.1034
     -1309.613       -1020.478
 -22906109.736 9 -17829929.60848  20954975.463    20954977.3614   20954983.1634
      2742.379        2136.919
  -5468030.796 9  -4240816.91048  20886321.550    20886323.0214   20886328.8194
     -1642.365       -1279.765
 96 12 12 18 30 59.9980000  0  8  1 29 22 30 16 25 14 15            -0.001535271
  14337363.549 9  11166024.43546  23973647.656    23973649.4074   23973656.8074
     -2115.337       -1648.315
 -17349970.604 9 -13509249.52648  20882193.991    20882196.1424   20882201.2304
      1577.302        1229.066
 -13194954.660 9 -10034164.60847  22689349.032    22689350.5964   22689357.9944
      3450.376        2688.605
  -5603074.028 9  -4354974.58945  24616211.239    24616213.2284   24616219.5424
     -1218.132        -949.194
  -2239174.797 8  -1728702.03746  24457941.080    24457942.4844   24457950.1324
      3695.536        2879.638
  -5039377.680 9  -3914842.15849  20762798.468    20762800.4044   20762804.7924
     -1321.464       -1029.712
 -22988261.495 9 -17893943.96848  20939342.401    20939344.3644   20939350.2044
      2734.254        2130.588
  -5418521.393 9  -4202238.17548  20895742.960    20895744.3734   20895750.1734
     -1658.652       -1292.456
 96 12 12 18 31 29.9980000  0  8  1 29 22 30 16 25 14 15            -0.001543375
  14400820.834 9  11215471.57546  23985723.047    23985725.0464   23985732.4444
     -2115.265       -1648.258
 -17397197.896 9 -13546050.02448  20873206.919    20873209.0964   20873214.1764
      1571.352        1224.430
 -13298384.369 9 -10114759.22047  22669667.098    22669668.6064   22669675.9994
      3445.093        2684.488
  -5566288.444 9  -4326310.50745  24623211.720    24623213.2504   24623219.5364
     -1234.126        -961.657
  -2350061.701 8  -1815107.35546  24436840.285    24436841.3484   24436848.9684
      3697.056        2880.823
  -4999542.612 9  -3883801.85649  20770378.953    20770380.7704   20770385.1764
     -1334.332       -1039.739
 -23070175.654 9 -17957773.18548  20923754.756    20923756.6244   20923762.5144
      2726.576        2124.605
  -5368518.307 9  -4163274.74648  20905258.243    20905259.6414   20905265.4504
     -1674.832       -1305.064
 96 12 12 18 31 59.9980000  0  8  1 29 22 30 16 25 14 15            -0.001551494
  14464288.643 9  11264926.90946  23997800.686    23997802.6484   23997810.0254
     -2115.519       -1648.456
 -17444245.119 9 -13582710.20848  20864254.179    20864256.3124   20864261.3794
      1565.265        1219.687
 -13401656.160 9 -10195230.77247  22650015.245    22650016.6944   22650024.0904
      3439.930        2680.465
  -5529016.639 9  -4297267.54745  24630304.389    24630306.1254   24630311.9854
     -1250.244        -974.216
  -2460992.435 9  -1901546.86046  24415730.549    24415731.8464   24415739.6234
      3698.653        2882.067
  -4959297.827 9  -3852442.29949  20778037.258    20778039.1314   20778043.5254
     -1348.426       -1050.722
 -23151841.104 9 -18021408.60648  20908214.226    20908216.2244   20908222.1434
      2718.035        2117.949
  -5318024.637 9  -4123929.05148  20914866.812    20914868.2894   20914874.0974
     -1691.154       -1317.782
 96 12 12 18 32 29.9980000  0  8  1 29 22 30 16 25 14 15            -0.001559631
  14527752.106 9  11314378.86846  24009877.629    24009879.4614   24009886.8404
     -2115.989       -1648.822
 -17491107.773 9 -13619226.56948  20855336.544    20855338.6764   20855343.7404
      1558.401        1214.338
 -13504775.520 9 -10275583.52447  22630392.168    22630393.7324   22630401.2554
      3434.184        2675.988
  -5491272.167 9  -4267856.26145  24637487.132    24637488.5454   24637494.4974
     -1266.489        -986.875
  -2571973.816 9  -1988025.85346  24394611.296    24394612.7964   24394620.6184
      3699.554        2882.769
  -4918626.185 9  -3820750.12649  20785776.878    20785778.7154   20785783.0834
     -1363.389       -1062.381
 -23233246.247 9 -18084841.18848  20892723.396    20892725.3244   20892731.2674
      2708.556        2110.563
  -5267044.705 9  -4084204.44648  20924567.916    20924569.4434   20924575.2474
     -1707.974       -1330.889
 96 12 12 18 32 59.9980000  0  7  1 29 22 16 25 14 15               -0.001567797
  14591219.773 9  11363834.10546  24021955.180    24021957.0034   24021964.4104
     -2115.322       -1648.303
 -17537775.795 9 -13655591.26348  20846455.910    20846458.0344   20846463.1534
      1552.716        1209.909
 -13607746.561 9 -10355820.69647  22610797.654    22610799.0784   22610806.5714
      3430.299        2672.960
  -2682992.658 9  -2074533.99446  24373485.360    24373486.5944   24373494.3924
      3701.364        2884.180
  -4877524.244 9  -3788722.66149  20793598.347    20793600.1704   20793604.5374
     -1376.923       -1072.927
 -23314385.767 9 -18148066.79648  20877282.985    20877284.9834   20877290.9794
      2700.467        2104.260
  -5215574.923 9  -4044098.14748  20934362.294    20934363.8344   20934369.6684
     -1723.595       -1343.061
 96 12 12 18 33 29.9980000  0  7  1 29 22 16 25 14 15               -0.001576007
  14654671.374 9  11413276.82046  24034029.926    24034031.5154   24034038.9204
     -2114.701       -1647.819
 -17584275.956 9 -13691825.15748  20837607.230    20837609.3674   20837614.5064
      1547.424        1205.785
 -13710591.271 9 -10435959.41947  22591227.151    22591228.4524   22591235.9674
      3425.987        2669.600
  -2794058.088 9  -2161078.45546  24352350.064    24352351.4664   24352359.4104
      3703.005        2885.458
  -4836012.361 9  -3756375.75949  20801497.693    20801499.6054   20801503.9904
     -1390.327       -1083.372
 -23395274.538 9 -18211097.00848  20861890.400    20861892.3674   20861898.4034
      2692.082        2097.726
  -5163632.197 9  -4003623.31748  20944246.673    20944248.2074   20944254.1054
     -1739.167       -1355.195
 96 12 12 18 33 59.9980000  0  7  1 29 22 16 25 14 15               -0.001584236
  14718122.370 9  11462719.07846  24046104.423    24046105.9454   24046113.3574
     -2114.710       -1647.826
 -17630596.536 9 -13727919.11848  20828792.752    20828794.8834   20828800.0534
      1540.974        1200.759
 -13813284.167 9 -10515979.82947  22571685.296    22571686.6774   22571694.2134
      3420.572        2665.381
  -2905151.644 9  -2247644.86246  24331209.660    24331211.1304   24331219.0814
      3703.575        2885.903
  -4794092.357 9  -3723710.85149  20809474.855    20809476.7474   20809481.1244
     -1403.806       -1093.875
 -23475889.987 9 -18273914.24548  20846549.778    20846551.7484   20846557.8284
      2682.877        2090.553
  -5111205.267 9  -3962771.18948  20954223.243    20954224.7364   20954230.6864
     -1755.509       -1367.929
 96 12 12 18 34 29.9980000  0  7  1 29 22 16 25 14 15               -0.001592481
  14781556.135 9  11512147.89846  24058175.396    24058177.0474   24058184.4344
     -2114.133       -1647.376
 -17676729.022 9 -13763866.50848  20820014.027    20820016.1674   20820021.3474
      1534.832        1195.973
 -13915816.094 9 -10595874.78047  22552174.169    22552175.4614   22552183.0494
      3415.097        2661.115
  -3016261.243 9  -2334223.76646  24310066.094    24310067.7184   24310075.6624
      3703.813        2886.088
  -4751782.375 9  -3690742.06249  20817526.180    20817528.0684   20817532.4384
     -1416.583       -1103.831
 -23556241.284 9 -18336525.64648  20831259.427    20831261.4064   20831267.5234
      2674.186        2083.781
  -5058293.962 9  -3921541.62148  20964291.929    20964293.4344   20964299.4284
     -1771.625       -1380.487
 96 12 12 18 34 59.9980000  0  7  1 29 22 16 25 14 15               -0.001600736
  14844968.316 9  11561559.91446  24070242.539    24070244.0654   24070251.4404
     -2113.531       -1646.907
 -17722687.234 9 -13799678.10548  20811268.527    20811270.6374   20811275.7624
      1528.998        1191.427
 -14018192.898 9 -10675648.85047  22532692.471    22532693.7804   22532701.3764
      3409.746        2656.945
  -3127387.655 9  -2420815.75246  24288919.457    24288921.0204   24288929.0954
      3704.330        2886.491
  -4709102.303 9  -3657484.90249  20825647.941    20825649.8284   20825654.2124
     -1429.025       -1113.526
 -23636339.767 9 -18398940.04848  20816017.163    20816019.1714   20816025.3114
      2665.362        2076.905
  -5004911.842 9  -3879945.19148  20974450.122    20974451.7244   20974457.7684
     -1787.387       -1392.769
 96 12 12 18 35 29.9980000  0  7  1 29 22 16 25 14 15               -0.001609003
  14908360.410 9  11610956.28146  24082305.719    24082307.2044   24082314.6044
     -2112.909       -1646.423
 -17768479.594 9 -13835360.46348  20802554.557    20802556.6544   20802561.7404
      1523.571        1187.198
 -14120400.712 9 -10755291.21147  22513242.880    22513244.2704   22513251.8964
      3403.894        2652.385
  -3238519.183 9  -2507411.76346  24267771.780    24267773.4594   24267781.3584
      3704.164        2886.361
  -4666044.963 9  -3623933.75849  20833841.353    20833843.3684   20833847.7844
     -1441.697       -1123.400
 -23716169.606 9 -18461145.11748  20800826.041    20800828.0444   20800834.1884
      2656.480        2069.984
  -4951060.107 9  -3837982.83148  20984697.853    20984699.3874   20984705.4684
     -1802.927       -1404.878
 96 12 12 18 35 59.9980000  0  7  1 29 22 16 25 14 15               -0.001617282
  14971729.206 9  11660334.49546  24094364.502    24094365.9934   24094373.3604
     -2111.300       -1645.169
 -17814103.350 9 -13870911.44448  20793872.706    20793874.7604   20793879.8174
      1518.230        1183.036
 -14222431.548 9 -10834795.66347  22493827.022    22493828.3754   22493836.0574
      3398.461        2648.151
  -3349643.001 9  -2594001.75745  24246625.717    24246627.3114   24246635.0154
      3704.525        2886.643
  -4622612.231 9  -3590090.10149  20842106.291    20842108.3494   20842112.7924
     -1453.457       -1132.564
 -23795728.898 9 -18523139.37048  20785686.443    20785688.4194   20785694.5404
      2647.838        2063.250
  -4896742.810 9  -3795657.69548  20995034.149    20995035.6424   20995041.7494
     -1817.905       -1416.549
 96 12 12 18 36 29.9980000  0  7  1 29 22 16 25 14 15               -0.001625577
  15035064.107 9  11709686.29546  24106416.520    24106418.2594   24106425.7074
     -2111.269       -1645.145
 -17859552.023 9 -13906326.00048  20785224.096    20785226.1624   20785231.2154
      1511.718        1177.962
 -14324276.673 9 -10914155.39347  22474446.348    22474447.8434   22474455.5394
      3391.222        2642.511
  -3460771.550 9  -2680595.44645  24225478.585    24225480.3074   24225487.6944
      3704.101        2886.312
  -4578810.274 9  -3555958.74849  20850441.709    20850443.6154   20850448.0344
     -1466.778       -1142.944
 -23875013.758 9 -18584919.77348  20770599.051    20770601.0324   20770607.1554
      2637.841        2055.461
  -4841964.948 9  -3752973.68348  21005458.032    21005459.5274   21005465.6794
     -1833.965       -1429.064
 96 12 12 18 36 59.9980000  0  7  1 29 22 16 25 14 15               -0.001633879
  15098395.722 9  11759035.52446  24118468.111    24118469.9254   24118477.3444
     -2111.280       -1645.153
 -17904822.457 9 -13941601.66648  20776609.452    20776611.4904   20776616.4834
      1505.946        1173.464
 -14425919.916 9 -10993357.80547  22455104.424    22455105.7124   22455113.4804
      3384.454        2637.237
  -3571907.420 9  -2767194.84545  24204330.142    24204331.8794   24204338.9344
      3704.526        2886.644
  -4534619.550 9  -3521524.45449  20858850.940    20858852.8614   20858857.2624
     -1479.692       -1153.007
 -23954018.659 9 -18646482.03048  20755564.849    20755566.8954   20755573.0404
      2628.796        2048.412
  -4786722.975 9  -3709928.02148  21015970.252    21015971.7614   21015977.9164
     -1849.287       -1441.003
 96 12 12 18 37 29.9980000  0  7  1 29 22 16 25 14 15               -0.001642203
  15161730.031 9  11808386.86046  24130520.360    24130522.0764   24130529.5154
     -2110.588       -1644.614
 -17949929.714 9 -13976750.17848  20768025.788    20768027.8884   20768032.8514
      1501.458        1169.967
 -14527364.790 9 -11072405.61847  22435800.099    22435801.3534   22435809.1554
      3378.877        2632.891
  -3683062.271 9  -2853809.02646  24183178.004    24183179.7524   24183186.7894
      3706.217        2887.961
  -4490049.321 9  -3486794.44549  20867332.380    20867334.3024   20867338.7234
     -1491.207       -1161.979
 -24032764.861 9 -18707842.70748  20740580.089    20740582.0244   20740588.1104
      2621.372        2042.628
  -4731029.708 9  -3666530.70648  21026568.306    21026569.8794   21026576.0354
     -1863.261       -1451.892
 96 12 12 18 37 59.9980000  0  7  1 29 22 16 25 14 15               -0.001650454
  15225079.126 9  11857749.72246  24142575.213    24142577.0394   24142584.5054
     -2112.101       -1645.793
 -17994857.764 9 -14011759.05348  20759476.367    20759478.3944   20759483.2944
      1494.261        1164.359
 -14628600.350 9 -11151290.31547  22416535.611    22416536.7694   22416544.6404
      3370.603        2626.444
  -3794243.299 9  -2940443.59545  24162020.923    24162022.7234   24162029.7104
      3706.471        2888.159
  -4445108.821 9  -3451775.91348  20875884.331    20875886.1934   20875890.6444
     -1504.192       -1172.098
 -24111257.191 9 -18769005.55648  20725643.492    20725645.4434   20725651.5294
      2611.921        2035.263
  -4674884.013 9  -3622780.84748  21037252.560    21037254.0854   21037260.2414
     -1879.256       -1464.355
 96 12 12 18 38 29.9980000  0  7  1 29 22 16 25 14 15               -0.001658703
  15288448.627 9  11907128.48946  24154634.245    24154635.9084   24154643.4654
     -2113.219       -1646.664
 -18039607.133 9 -14046628.69748  20750960.978    20750962.9054   20750967.7364
      1488.298        1159.713
 -14729617.363 9 -11230004.72847  22397312.600    22397313.7464   22397321.6124
      3363.218        2620.689
  -3905462.294 9  -3027107.75245  24140856.608    24140858.4834   24140865.3004
      3707.372        2888.861
  -4399804.559 9  -3416473.92548  20884505.488    20884507.3554   20884511.8024
     -1516.696       -1181.841
 -24189499.020 9 -18829973.21048  20710754.658    20710756.5344   20710762.6144
      2603.361        2028.593
  -4618292.663 9  -3578683.72048  21048021.555    21048023.0744   21048029.2334
     -1894.268       -1476.053
 96 12 12 18 38 59.9980000  0  7  1 29 22 16 25 14 15               -0.001666937
  15351861.284 9  11956540.87146  24166701.192    24166702.9604   24166710.5974
     -2114.287       -1647.496
 -18084161.712 9 -14081346.55349  20742482.499    20742484.4734   20742489.2914
      1481.955        1154.770
 -14830410.308 9 -11308544.53547  22378132.201    22378133.4124   22378141.2134
      3356.039        2615.095
  -4016687.929 9  -3113777.09246  24119690.974    24119693.0204   24119699.7824
      3707.485        2888.949
  -4354124.903 9  -3380879.41949  20893198.083    20893199.9324   20893204.3904
     -1528.579       -1191.101
 -24267466.135 9 -18890726.80848  20695917.931    20695919.8824   20695925.9754
      2594.219        2021.469
  -4561237.357 9  -3534225.07248  21058878.826    21058880.3804   21058886.5274
     -1909.550       -1487.961
 96 12 12 18 39 29.9980000  0  7  1 29 22 16 25 14 15               -0.001675157
  15415288.828 9  12005964.85346  24178771.339    24178772.9274   24178780.5634
     -2113.926       -1647.215
 -18128536.907 9 -14115924.63249  20734038.179    20734040.1584   20734044.9584
      1476.514        1150.530
 -14930991.498 9 -11386919.33047  22358992.189    22358993.3014   22359001.1194
      3349.512        2610.009
  -4127917.602 9  -3200449.55346  24098524.844    24098526.5934   24098533.5594
      3707.999        2889.350
  -4308103.279 9  -3345018.43748  20901955.693    20901957.5654   20901962.0634
     -1539.298       -1199.453
 -24345155.626 9 -18951264.07348  20681134.125    20681136.0694   20681142.1654
      2585.211        2014.450
  -4503732.946 9  -3489416.47848  21069821.603    21069823.1424   21069829.2724
     -1923.972       -1499.199
 96 12 12 18 39 59.9980000  0  7  1 29 22 16 25 14 15               -0.001683371
  15478706.870 9  12055381.43946  24190839.156    24190841.0014   24190848.7024
     -2114.289       -1647.498
 -18172739.358 9 -14150368.10448  20725626.722    20725628.7464   20725633.5004
      1470.073        1145.511
 -15031367.743 9 -11465134.42047  22339891.047    22339892.2174   22339899.9994
      3342.003        2604.158
  -4239153.235 9  -3287126.65746  24077357.606    24077359.1594   24077366.1764
      3707.364        2888.855
  -4261762.611 9  -3308908.85748  20910774.171    20910775.9294   20910780.4304
     -1550.499       -1208.181
 -24422564.951 9 -19011583.02848  20666403.697    20666405.6014   20666411.6474
      2574.958        2006.461
  -4445788.577 9  -3444265.05548  21080848.132    21080849.6274   21080855.7484
     -1939.303       -1511.145
 96 12 12 18 40 29.9980000  0  7  1 29 22 16 25 14 15               -0.001691573
  15542128.408 9  12104800.75646  24202907.887    24202909.8284   24202917.5424
     -2113.581       -1646.946
 -18216767.503 9 -14184675.76248  20717248.441    20717250.4924   20717255.2114
      1465.439        1141.900
 -15131538.701 9 -11543189.56847  22320829.161    22320830.2344   22320837.9614
      3336.349        2599.752
  -4350376.622 9  -3373794.21746  24056192.611    24056194.1054   24056201.2104
      3707.682        2889.103
  -4215085.974 9  -3272537.49448  20919656.502    20919658.2454   20919662.7034
     -1561.075       -1216.422
 -24499667.659 9 -19071663.06048  20651731.592    20651733.4544   20651739.4724
      2565.545        1999.126
  -4387393.793 9  -3398762.66048  21091960.341    21091961.8244   21091967.9644
     -1953.451       -1522.170
 96 12 12 18 40 59.9980000  0  7  1 29 22 16 25 14 15               -0.001699776
  15605533.229 9  12154207.04246  24214973.603    24214975.4214   24214983.1644
     -2113.416       -1646.818
 -18260659.073 9 -14218876.99348  20708896.073    20708898.1844   20708902.9264
      1460.725        1138.227
 -15231530.086 9 -11621104.76947  22301801.305    22301802.3654   22301810.1554
      3329.536        2594.444
  -4461600.124 9  -3460461.85946  24035027.409    24035028.9684   24035036.1764
      3707.269        2888.781
  -4168091.672 9  -3235918.58748  20928599.247    20928600.9934   20928605.4344
     -1571.969       -1224.911
 -24576488.678 9 -19131523.59448  20637112.995    20637114.8884   20637120.8804
      2555.817        1991.546
  -4328571.637 9  -3352927.24448  21103153.870    21103155.3244   21103161.4654
     -1967.964       -1533.478
 96 12 12 18 41 29.9980000  0  7  1 29 22 16 25 14 15               -0.001707965
  15668941.522 9  12203616.03146  24227039.889    24227041.6704   24227049.5044
     -2113.649       -1646.999
 -18304401.023 9 -14252961.63648  20700572.263    20700574.3454   20700579.1054
      1455.360        1134.047
 -15331299.822 9 -11698847.26847  22282815.547    22282816.6764   22282824.3984
      3321.916        2588.506
  -4572806.640 9  -3547116.25646  24013865.696    24013867.0264   24013874.3794
      3706.747        2888.374
  -4120756.012 9  -3199033.68648  20937606.903    20937608.6574   20937613.0854
     -1583.674       -1234.032
 -24653007.443 9 -19191148.60748  20622551.929    20622553.8624   20622559.8104
      2545.512        1983.516
  -4269308.587 9  -3306748.26948  21114431.232    21114432.7204   21114438.8664
     -1982.833       -1545.065
 96 12 12 18 41 59.9980000  0  7  1 29 22 16 25 14 15               -0.001716197
  15732342.831 9  12253019.59046  24239104.815    24239106.6614   24239114.4304
     -2113.178       -1646.632
 -18347983.970 9 -14286922.38648  20692278.711    20692280.8054   20692285.5294
      1450.030        1129.894
 -15430852.792 9 -11776420.86047  22263871.195    22263872.2534   22263879.8924
      3314.837        2582.990
  -4684018.465 9  -3633774.79146  23992702.940    23992704.0444   23992711.4354
      3707.276        2888.786
  -4073074.638 9  -3161879.39448  20946680.299    20946682.1354   20946686.5444
     -1595.292       -1243.085
 -24729225.411 9 -19250539.23448  20608048.047    20608050.0354   20608055.9234
      2535.517        1975.728
  -4209610.418 9  -3260230.24848  21125791.498    21125792.9264   21125799.0434
     -1997.129       -1556.204
 96 12 12 18 42 29.9980000  0  7  1 29 22 16 25 14 15               -0.001724413
  15795744.274 9  12302423.24246  24251169.846    24251171.6574   24251179.4844
     -2112.929       -1646.438
 -18391398.856 9 -14320752.17348  20684017.156    20684019.2424   20684023.9374
      1444.673        1125.719
 -15530177.489 9 -11853816.58547  22244970.028    22244971.2904   22244978.8234
      3307.230        2577.062
  -4795231.360 9  -3720434.14746  23971539.877    23971540.8994   23971548.3034
      3707.308        2888.811
  -4025021.979 9  -3124435.78948  20955824.490    20955826.2514   20955830.6214
     -1607.682       -1252.739
 -24805128.398 9 -19309684.41848  20593604.315    20593606.2054   20593612.0194
      2525.286        1967.755
  -4149471.426 9  -3213368.73248  21137235.561    21137237.0034   21137243.1114
     -2011.652       -1567.521
 96 12 12 18 42 59.9980000  0  7  1 29 22 16 25 14 15               -0.001732634
  15859120.579 9  12351807.31146  24263230.341    24263231.7644   24263239.6754
     -2112.042       -1645.747
 -18434657.560 9 -14354460.26148  20675785.321    20675787.3934   20675792.0684
      1439.122        1121.394
 -15629270.959 9 -11931032.14247  22226113.044    22226114.3394   22226121.7634
      3299.055        2570.692
  -4906454.094 9  -3807101.17946  23950374.772    23950375.8754   23950383.3324
      3707.636        2889.067
  -3976611.816 9  -3086713.60948  20965036.656    20965038.4204   20965042.7654
     -1619.547       -1261.985
 -24880733.823 9 -19368597.73148  20579217.120    20579218.9824   20579224.7534
      2514.948        1959.700
  -4088907.575 9  -3166176.15848  21148760.422    21148761.9214   21148768.0204
     -2025.897       -1578.621
 96 12 12 18 43 29.9980000  0  7  1 29 22 16 25 14 15               -0.001740873
  15922462.237 9  12401164.39146  24275284.067    24275285.2584   24275293.1874
     -2110.629       -1644.646
 -18477746.104 9 -14388035.76648  20667585.795    20667587.9514   20667592.5514
      1433.565        1117.064
 -15728133.693 9 -12008067.91347  22207299.885    22207301.2674   22207308.6554
      3291.973        2565.174
  -5017697.878 9  -3893784.61646  23929205.555    23929206.8404   23929214.3354
      3708.664        2889.868
  -3927853.251 9  -3048719.94848  20974315.091    20974316.8954   20974321.2294
     -1630.985       -1270.897
 -24956025.799 9 -19427266.80248  20564889.576    20564891.4164   20564897.1654
      2504.698        1951.713
  -4027922.863 9  -3118655.63848  21160365.438    21160366.9104   21160373.0274
     -2039.637       -1589.328
 96 12 12 18 43 59.9980000  0  7  1 29 22 16 25 14 15               -0.001749134
  15985771.334 9  12450496.11446  24287331.623    24287332.6564   24287340.5504
     -2110.151       -1644.274
 -18520664.841 9 -14421478.94548  20659418.708    20659420.8014   20659425.3764
      1427.832        1112.596
 -15826773.101 9 -12084929.67447  22188529.466    22188530.6894   22188538.0314
      3283.898        2558.881
  -5128960.759 9  -3980482.95346  23908033.009    23908034.1304   23908041.6674
      3708.628        2889.840
  -3878739.627 9  -3010449.60948  20983661.101    20983662.9354   20983667.3004
     -1643.171       -1280.393
 -25031007.922 9 -19485694.42548  20550621.020    20550622.8124   20550628.5184
      2494.245        1943.568
  -3966518.888 9  -3070808.42148  21172050.355    21172051.7164   21172057.8544
     -2053.907       -1600.447
 96 12 12 18 44 29.9980000  0  7  1 29 22 16 25 14 15               -0.001757390
  16049067.436 9  12499817.71246  24299376.725    24299377.5784   24299385.4654
     -2109.702       -1643.924
 -18563428.063 9 -14454800.94348  20651281.154    20651283.2234   20651287.8004
      1422.855        1108.718
 -15925169.255 9 -12161601.89747  22169805.197    22169806.4104   22169813.7204
      3275.729        2552.516
  -5240216.833 9  -4067175.98346  23886861.782    23886862.7714   23886870.4204
      3708.299        2889.584
  -3829273.518 9  -2971904.60048  20993074.224    20993076.0384   20993080.4024
     -1654.684       -1289.364
 -25105689.209 9 -19543887.63248  20536409.637    20536411.4204   20536417.1194
      2484.396        1935.893
  -3904695.848 9  -3022634.65748  21183814.864    21183816.2844   21183822.4164
     -2067.727       -1611.216
 96 12 12 18 44 59.9980000  0  7  1 29 22 16 25 14 15               -0.001765650
  16112341.182 9  12549121.89046  24311417.495    24311418.2594   24311426.1224
     -2108.584       -1643.052
 -18606050.958 9 -14488013.59648  20643170.254    20643172.3394   20643176.9444
      1418.616        1105.415
 -16023330.467 9 -12238091.05247  22151125.636    22151126.8844   22151134.1444
      3268.376        2546.786
  -5351478.132 9  -4153873.08746  23865689.289    23865690.4634   23865698.2104
      3709.077        2890.190
  -3779484.613 9  -2933108.07048  21002548.692    21002550.5564   21002554.9424
     -1664.525       -1297.032
 -25180086.909 9 -19601859.86448  20522252.192    20522253.9684   20522259.6744
      2475.351        1928.845
  -3842473.640 9  -2974149.85348  21195655.340    21195656.7844   21195662.9034
     -2080.426       -1621.111
 96 12 12 18 45 29.9980000  0  7  1 29 22 16 25 14 15               -0.001773901
  16175618.839 9  12598429.08446  24323458.880    24323459.6484   24323467.5284
     -2109.288       -1643.601
 -18648508.429 9 -14521097.35048  20635090.870    20635092.9464   20635097.5614
      1412.611        1100.736
 -16121239.543 9 -12314383.73947  22132494.047    22132495.3064   22132502.5534
      3259.592        2539.942
  -5462721.161 9  -4240555.95646  23844520.453    23844521.6734   23844529.3574
      3707.730        2889.140
  -3729360.932 9  -2894050.66448  21012086.928    21012088.7654   21012093.1954
     -1676.351       -1306.248
 -25254178.481 9 -19659593.55648  20508152.960    20508154.7854   20508160.4984
      2465.052        1920.820
  -3779836.777 9  -2925341.93348  21207574.778    21207576.2064   21207582.3414
     -2094.621       -1632.172
 96 12 12 18 45 59.9980000  0  7  1 29 22 16 25 14 15               -0.001782134
  16238894.163 9  12647734.47046  24335499.529    24335500.5404   24335508.5614
     -2109.204       -1643.536
 -18690807.722 9 -14554057.84348  20627041.569    20627043.6714   20627048.2624
      1407.178        1096.502
 -16218900.456 9 -12390483.05447  22113909.679    22113910.9454   22113918.1914
      3251.016        2533.259
  -5573935.878 9  -4327216.77146  23823357.085    23823358.2134   23823365.9714
      3706.438        2888.133
  -3678908.339 9  -2854736.96148  21021687.706    21021689.5614   21021694.0034
     -1687.239       -1314.732
 -25327994.699 9 -19717112.68148  20494106.252    20494108.0404   20494113.7324
      2455.798        1913.609
  -3716794.865 9  -2876218.39748  21219571.278    21219572.6904   21219578.8424
     -2108.269       -1642.807
 96 12 12 18 46 29.9980000  0  7  1 29 22 16 25 14 15               -0.001790351
  16302157.299 9  12697030.40846  24347538.056    24347539.1524   24347547.1544
     -2108.112       -1642.685
 -18732945.521 9 -14586892.49748  20619023.096    20619025.1154   20619029.6824
      1401.980        1092.452
 -16316320.136 9 -12466394.41447  22095371.386    22095372.5204   22095379.6534
      3243.778        2527.619
  -5685117.263 9  -4413851.60146  23802199.867    23802201.1484   23802208.9104
      3705.939        2887.745
  -3628133.755 9  -2815172.36448  21031349.876    21031351.6704   21031356.1144
     -1697.646       -1322.841
 -25401529.105 9 -19774412.21348  20480113.051    20480114.8844   20480120.5734
      2446.434        1906.312
  -3653351.277 9  -2826781.87748  21231644.144    21231645.6354   21231651.8084
     -2121.227       -1652.904
 96 12 12 18 46 59.9980000  0  7  1 29 22 16 25 14 15               -0.001798577
  16365391.279 9  12746303.61046  24359570.919    24359572.1894   24359580.2294
     -2107.230       -1641.997
 -18774917.509 9 -14619597.93948  20611036.069    20611038.1184   20611042.7044
      1396.244        1087.982
 -16413522.660 9 -12542136.54947  22076874.353    22076875.4484   22076882.5434
      3236.491        2521.941
  -5796284.181 9  -4500475.16746  23781045.517    23781046.7924   23781054.5094
      3705.308        2887.253
  -3577041.822 9  -2775360.47348  21041072.355    21041074.1724   21041078.6134
     -1708.306       -1331.148
 -25474774.716 9 -19831486.71248  20466174.862    20466176.7234   20466182.3934
      2436.648        1898.687
  -3589516.294 9  -2777040.36248  21243791.572    21243793.0334   21243799.2304
     -2134.355       -1663.134
 96 12 12 18 47 29.9980000  0  7  1 29 22 16 25 14 15               -0.001806809
  16428606.059 9  12795561.85646  24371600.277    24371601.5334   24371609.5354
     -2107.104       -1641.899
 -18816702.402 9 -14652157.59548  20603084.663    20603086.7384   20603091.3244
      1389.598        1082.804
 -16510501.252 9 -12617704.20447  22058419.864    22058421.0224   22058428.0384
      3228.728        2515.892
  -5907422.336 9  -4587076.32346  23759896.711    23759897.9124   23759905.6484
      3704.032        2886.259
  -3525616.107 9  -2735288.48848  21050858.352    21050860.1764   21050864.6174
     -1719.916       -1340.194
 -25547715.179 9 -19888323.42448  20452294.719    20452296.6144   20452302.2414
      2426.224        1890.564
  -3525276.346 9  -2726983.29648  21256016.022    21256017.5004   21256023.7434
     -2148.138       -1673.874
 96 12 12 18 47 59.9980000  0  8  1 29 22 16 18 25 14 15            -0.001815053
  16491808.757 9  12844810.69746  24383627.166    24383628.5484   24383636.5884
     -2107.044       -1641.852
 -18858302.935 9 -14684573.58848  20595168.314    20595170.3924   20595175.0244
      1383.344        1077.930
 -16607253.542 9 -12693095.51547  22040008.526    22040009.5904   22040016.6124
      3220.780        2509.699
  -6018541.004 9  -4673662.28246  23738751.639    23738752.7934   23738760.4774
      3703.407        2885.772
   -521149.05718   -378246.79255  24630136.991    24630137.3575   24630144.3455
      3186.675        2483.123
  -3473861.562 9  -2694960.28048  21060706.885    21060708.7314   21060713.1974
     -1730.931       -1348.777
 -25620349.236 9 -19944921.37548  20438472.996    20438474.7894   20438480.4154
      2415.263        1882.023
  -3460639.544 9  -2676616.99048  21268316.102    21268317.5114   21268323.7454
     -2161.458       -1684.253
 96 12 12 18 48 29.9980000  0  8  1 29 22 16 18 25 14 15            -0.001823318
  16555019.978 9  12894066.16746  24395655.746    24395657.2324   24395665.1834
     -2107.499       -1642.207
 -18899721.242 9 -14716847.58848  20587286.710    20587288.7304   20587293.3764
      1377.404        1073.302
 -16703762.998 9 -12768297.62547  22021643.243    22021644.3644   22021651.4254
      3212.664        2503.374
  -6129649.762 9  -4760240.53146  23717608.254    23717609.5034   23717617.2064
      3703.351        2885.728
   -616739.610 9   -452732.96645  24611946.575    24611947.4065   24611954.3414
      3185.587        2482.276
  -3421775.755 9  -2654373.94348  21070618.495    21070620.3384   21070624.8304
     -1741.772       -1357.225
 -25692643.138 9 -20001254.27748  20424715.902    20424717.7274   20424723.3254
      2403.932        1873.194
  -3395606.975 9  -2625942.29648  21280691.358    21280692.8044   21280699.0584
     -2174.495       -1694.412
 96 12 12 18 48 59.9980000  0  8  1 29 22 16 18 25 14 15            -0.001831603
  16618249.044 9  12943335.55246  24407687.716    24407689.3604   24407697.3394
     -2108.354       -1642.873
 -18940961.535 9 -14748982.87548  20579438.934    20579440.9454   20579445.6134
      1371.494        1068.697
 -16800010.772 9 -12843295.83447  22003327.922    22003328.9934   22003336.0314
      3203.333        2496.104
  -6240756.019 9  -4846816.82646  23696465.558    23696466.6954   23696474.3624
      3703.192        2885.604
   -712299.031 9   -527194.84645  24593762.434    24593762.7954   24593769.7884
      3184.565        2481.479
  -3369368.178 9  -2613536.87648  21080591.358    21080593.1714   21080597.6604
     -1752.579       -1365.646
 -25764594.485 9 -20057320.25148  20411024.016    20411025.7954   20411031.4004
      2392.245        1864.087
  -3330185.101 9  -2574964.24348  21293140.820    21293142.2244   21293148.4324
     -2187.414       -1704.478
 96 12 12 18 49 29.9980000  0  8  1 29 22 16 18 25 14 15            -0.001839895
  16681517.144 9  12992635.36146  24419727.300    24419728.9004   24419737.0004
     -2109.477       -1643.748
 -18982020.271 9 -14780976.69348  20571625.727    20571627.6754   20571632.3864
      1366.018        1064.430
 -16895961.762 9 -12918062.78547  21985068.961    21985070.0684   21985077.0754
      3193.450        2488.403
  -6351843.923 9  -4933378.82246  23675326.285    23675327.3924   23675335.0294
      3702.752        2885.261
   -807817.549 9   -601624.83945  24575585.770    24575586.4274   24575593.3994
      3183.566        2480.701
  -3316625.559 9  -2572438.74648  21090627.877    21090629.7744   21090634.2714
     -1763.520       -1374.171
 -25836179.007 9 -20113100.39248  20397401.821    20397403.6984   20397409.3334
      2380.286        1854.768
  -3264369.163 9  -2523679.13048  21305665.299    21305666.6424   21305672.8114
     -2200.169       -1714.417
 96 12 12 18 49 59.9980000  0  8  1 29 22 16 18 25 14 15            -0.001848185
  16744819.034 9  13041961.47546  24431773.350    24431774.8834   24431783.1064
     -2110.545       -1644.581
 -19022918.365 9 -14812845.32648  20563842.999    20563845.0104   20563849.7414
      1360.417        1060.065
 -16991607.887 9 -12992592.18247  21966868.044    21966869.1564   21966876.2124
      3182.967        2480.234
  -6462914.096 9  -5019926.99946  23654190.298    23654191.5104   23654198.9834
      3701.776        2884.501
   -903310.672 9   -676035.04245  24557413.633    24557414.7284   24557421.8214
      3182.545        2479.905
  -3263550.494 9  -2531081.56748  21100727.688    21100729.6284   21100734.1484
     -1774.837       -1382.990
 -25907406.295 9 -20168602.16848  20383847.685    20383849.5834   20383855.2494
      2368.178        1845.334
  -3198169.939 9  -2472095.35748  21318262.630    21318263.9944   21318270.1574
     -2213.216       -1724.584
 96 12 12 18 50 29.9980000  0  8  1 29 22 16 18 25 14 15            -0.001856469
  16808130.130 9  13091294.76946  24443820.910    24443822.6244   24443830.8044
     -2110.070       -1644.210
 -19063655.776 9 -14844588.75148  20556090.898    20556092.9084   20556097.6754
      1355.296        1056.075
 -17086953.577 9 -13066887.47647  21948724.539    21948725.4354   21948732.5064
      3173.533        2472.883
  -6573951.825 9  -5106449.87846  23633060.215    23633061.5774   23633069.2654
      3700.621        2883.601
   -998782.903 9   -750428.95746  24539245.797    24539247.0104   24539254.0874
      3182.311        2479.723
  -3210147.357 9  -2489468.75348  21110889.958    21110891.9144   21110896.4604
     -1785.337       -1391.172
 -25978276.812 9 -20223825.93748  20370361.455    20370363.3524   20370369.0414
      2356.613        1836.322
  -3131587.203 9  -2420212.74048  21330932.926    21330934.3114   21330940.4924
     -2225.655       -1734.277
 96 12 12 18 50 59.9980000  0  8  1 29 22 16 18 25 14 15            -0.001864750
  16871413.304 9  13140606.30146  24455863.217    24455864.9774   24455873.1574
     -2108.849       -1643.259
 -19104241.010 9 -14876213.60248  20548367.737    20548369.7694   20548374.5814
      1350.366        1052.233
 -17182023.302 9 -13140967.73447  21930633.240    21930634.2224   21930641.2664
      3164.428        2465.788
  -6684953.075 9  -5192944.33146  23611937.438    23611938.7454   23611946.4064
      3699.331        2882.596
  -1094254.581 9   -824822.43446  24521078.310    24521079.3344   24521086.3864
      3182.433        2479.818
  -3156434.461 9  -2447614.57548  21121111.209    21121113.1314   21121117.7124
     -1795.621       -1399.185
 -26048805.647 9 -20278783.46348  20356940.321    20356942.1774   20356947.8834
      2345.278        1827.489
  -3064637.501 9  -2368044.17648  21343673.074    21343674.4464   21343680.6434
     -2237.761       -1743.710
 96 12 12 18 51 29.9980000  0  8  1 29 22 16 18 25 14 15            -0.001873019
  16934672.135 9  13189898.85046  24467901.172    24467902.6884   24467910.8814
     -2108.215       -1642.765
 -19144662.828 9 -14907711.12048  20540675.758    20540677.7664   20540682.5674
      1344.561        1047.710
 -17276816.060 9 -13214832.18547  21912594.591    21912595.7184   21912602.7474
      3155.203        2458.600
  -6795896.856 9  -5279394.00046  23590825.465    23590826.8374   23590834.3844
      3697.140        2880.888
  -1189704.977 9   -899199.36146  24502914.784    24502915.6824   24502922.8134
      3181.081        2478.764
  -3102405.377 9  -2405514.01748  21131392.686    21131394.5434   21131399.1494
     -1806.164       -1407.400
 -26118988.782 9 -20333471.61748  20343584.850    20343586.7584   20343592.5024
      2333.851        1818.585
  -2997307.604 9  -2315579.35648  21356485.589    21356486.9074   21356493.1544
     -2250.818       -1753.884
 96 12 12 18 51 59.9980000  0  8  1 29 22 16 18 25 14 15            -0.001881283
  16997895.069 9  13239163.46446  24479932.264    24479933.6924   24479941.7344
     -2106.534       -1641.455
 -19184913.385 9 -14939075.18248  20533016.199    20533018.2784   20533023.1194
      1338.894        1043.294
 -17371350.220 9 -13288495.11247  21894605.321    21894606.3864   21894613.4644
      3147.207        2452.369
  -6906788.008 9  -5365802.69646  23569723.539    23569724.9054   23569732.1704
      3695.699        2879.765
  -1285129.675 9   -973556.29446  24484755.968    24484757.0044   24484763.9344
      3180.623        2478.408
  -3048078.089 9  -2363181.09548  21141730.902    21141732.7164   21141737.3234
     -1815.433       -1414.623
 -26188844.883 9 -20387904.93248  20330291.649    20330293.5794   20330299.3514
      2323.206        1810.290
  -2929598.055 9  -2262818.70148  21369370.233    21369371.6184   21369377.8704
     -2262.980       -1763.361
 96 12 12 18 52 29.9980000  0  8  1 29 22 16 18 25 14 15            -0.001889558
  17061076.084 9  13288395.42346  24491955.367    24491956.6344   24491964.7934
     -2106.065       -1641.090
 -19224989.352 9 -14970303.20648  20525389.994    20525392.0554   20525396.9174
      1332.684        1038.455
 -17465636.019 9 -13361964.51847  21876663.227    21876664.3644   21876671.4604
      3138.066        2445.246
  -7017632.400 9  -5452174.92146  23548630.694    23548631.8494   23548638.9924
      3693.897        2878.361
  -1380533.032 9  -1047896.65546  24466600.896    24466602.3704   24466609.3364
      3179.288        2477.367
  -2993467.942 9  -2320627.77148  21152122.827    21152124.7104   21152129.2984
     -1825.571       -1422.523
 -26258364.339 9 -20442075.93148  20317062.604    20317064.4584   20317070.2574
      2311.266        1800.986
  -2861519.962 9  -2209770.87548  21382325.064    21382326.4714   21382332.7414
     -2275.781       -1773.336
 96 12 12 18 52 59.9980000  0  8  1 29 22 16 18 25 14 15            -0.001897844
  17124248.576 9  13337620.73646  24503976.692    24503978.0224   24503986.1754
     -2105.972       -1641.017
 -19264897.193 9 -15001400.22248  20517795.790    20517797.8384   20517802.7064
      1327.176        1034.163
 -17559641.185 9 -13435215.24847  21858774.576    21858775.6924   21858782.7884
      3128.209        2437.565
  -7128448.537 9  -5538525.13446  23527542.806    23527544.2244   23527551.2984
      3693.249        2877.856
  -1475907.022 9  -1122214.13746  24448451.784    24448453.3044   24448460.3154
      3178.312        2476.607
  -2938558.086 9  -2277840.90048  21162571.874    21162573.7614   21162578.3144
     -1835.609       -1430.345
 -26327545.165 9 -20495983.06248  20303897.915    20303899.7774   20303905.6124
      2300.280        1792.426
  -2793069.685 9  -2156433.03848  21395350.813    21395352.1464   21395358.4234
     -2288.200       -1783.013
 96 12 12 18 53 29.9980000  0  8  1 29 22 16 18 25 14 15            -0.001906136
  17187422.417 9  13386847.09946  24515998.264    24515999.5094   24516007.7214
     -2106.173       -1641.174
 -19304640.753 9 -15032369.22748  20510232.795    20510234.8904   20510239.7524
      1321.730        1029.919
 -17653349.102 9 -13508234.35547  21840942.365    21840943.6134   21840950.7304
      3118.261        2429.814
  -7239248.998 9  -5624863.13946  23506458.214    23506459.5164   23506466.5364
      3692.787        2877.496
  -1571249.394 9  -1196506.99446  24430308.836    24430310.2684   24430317.2404
      3177.359        2475.864
  -2883355.461 9  -2234825.90748  21173076.776    21173078.5044   21173083.0744
     -1845.274       -1437.876
 -26396405.733 9 -20549640.63748  20290794.234    20290796.0234   20290801.8984
      2289.756        1784.225
  -2724253.729 9  -2102810.24948  21408446.070    21408447.4264   21408453.6834
     -2300.094       -1792.281
 96 12 12 18 53 59.9980000  0  8  1 29 22 16 18 25 14 15            -0.001914422
  17250612.830 9  13436086.37546  24528022.923    24528024.3454   24528032.3704
     -2106.530       -1641.452
 -19344206.867 9 -15063199.96448  20502703.552    20502705.6614   20502710.5584
      1316.019        1025.469
 -17746736.280 9 -13581003.53147  21823171.471    21823172.5694   21823179.7174
      3107.414        2421.361
  -7350019.976 9  -5711178.15546  23485379.324    23485380.4634   23485387.4414
      3691.750        2876.688
  -1666567.106 9  -1270780.63046  24412170.567    24412171.9854   24412178.8814
      3177.053        2475.626
  -2827841.934 9  -2191568.64748  21183640.631    21183642.4084   21183646.9714
     -1855.647       -1445.959
 -26464936.142 9 -20603040.94948  20277753.363    20277755.1234   20277761.0024
      2278.777        1775.670
  -2655075.271 9  -2048905.00548  21421610.261    21421611.6794   21421617.9124
     -2311.853       -1801.444
 96 12 12 18 54 29.9980000  0  8  1 29 22 16 18 25 14 15            -0.001922698
  17313815.671 9  13485335.30946  24540049.664    24540051.3844   24540059.3484
     -2107.540       -1642.239
 -19383612.285 9 -15093905.48148  20495204.958    20495207.0524   20495211.9654
      1310.505        1021.173
 -17839788.490 9 -13653511.69247  21805464.192    21805465.3214   21805472.4144
      3095.621        2412.172
  -7460764.055 9  -5797472.21446  23464305.287    23464306.5784   23464313.5204
      3690.790        2875.940
  -1761874.237 9  -1345046.02446  24394034.335    24394035.7084   24394042.5324
      3176.280        2475.023
  -2772015.785 9  -2148067.78348  21194264.084    21194265.8104   21194270.3704
     -1866.501       -1454.416
 -26533135.439 9 -20656183.24748  20264775.459    20264777.2374   20264783.1294
      2267.478        1766.866
  -2585548.413 9  -1994728.27548  21434840.849    21434842.2484   21434848.4624
     -2323.738       -1810.705
 96 12 12 18 54 59.9980000  0  8  1 29 22 16 18 25 14 15            -0.001930964
  17377035.697 9  13534597.62245  24552080.277    24552081.8214   24552089.7314
     -2107.490       -1642.200
 -19422857.168 9 -15124485.90548  20487736.947    20487738.9994   20487743.9544
      1305.246        1017.075
 -17932503.054 9 -13725756.74647  21787821.082    21787822.2724   21787829.3544
      3085.065        2403.947
  -7571484.421 9  -5883747.79146  23443236.163    23443237.1434   23443244.0734
      3689.904        2875.250
  -1857170.953 8  -1419303.24946  24375900.240    24375901.3264   24375908.3904
      3176.435        2475.144
  -2715884.962 9  -2104329.51348  21204945.401    21204947.1814   21204951.7204
     -1875.871       -1461.718
 -26601009.927 9 -20709072.44848  20251859.278    20251861.1464   20251867.0784
      2256.908        1758.630
  -2515677.448 9  -1940283.41448  21448136.756    21448138.2654   21448144.4814
     -2334.749       -1819.285
 96 12 12 18 55 29.9980000  0  8  1 29 22 16 18 25 14 15            -0.001939225
  17440264.858 9  13583867.06446  24564112.297    24564113.8764   24564121.8744
     -2107.679       -1642.347
 -19461921.995 9 -15154926.03148  20480303.160    20480305.2284   20480310.1734
      1299.162        1012.334
 -18024898.286 9 -13797752.97147  21770238.844    21770240.0574   21770247.1014
      3074.696        2395.867
  -7682151.792 9  -5969982.07146  23422176.580    23422177.8124   23422184.8074
      3688.058        2873.811
  -1952453.259 8  -1493549.20946  24357768.832    24357769.7934   24357776.9164
      3175.942        2474.760
  -2659462.606 9  -2060364.06748  21215682.204    21215684.0164   21215688.5344
     -1885.585       -1469.287
 -26668543.057 9 -20761695.65548  20239008.162    20239010.0424   20239016.0064
      2245.269        1749.560
  -2445463.645 9  -1885571.41048  21461498.089    21461499.5224   21461505.7714
     -2346.121       -1828.146
 96 12 12 18 55 59.9980000  0  8  1 29 22 16 18 25 14 15            -0.001947489
  17503488.511 9  13633132.23146  24576143.266    24576144.9894   24576152.9934
     -2107.255       -1642.017
 -19500804.523 9 -15185224.10148  20472904.075    20472906.1294   20472911.0844
      1293.094        1007.606
 -18116981.499 9 -13869506.04947  21752716.052    21752717.1824   21752724.2364
      3064.185        2387.677
  -7792768.991 9  -6056177.26746  23401126.984    23401128.0394   23401135.0674
      3686.351        2872.481
  -2047725.449 9  -1567787.25646  24339639.248    24339640.2524   24339647.2504
      3175.403        2474.340
  -2602753.708 9  -2016175.34048  21226473.546    21226475.3754   21226479.8804
     -1894.956       -1476.589
 -26735720.343 9 -20814041.58748  20226224.814    20226226.6444   20226232.6134
      2233.133        1740.104
  -2374905.224 9  -1830590.86348  21474924.874    21474926.3434   21474932.6244
     -2357.807       -1837.252
 96 12 12 18 56 29.9980000  0  8  1 29 22 16 18 25 14 15            -0.001955765
  17566700.812 9  13682388.56646  24588172.160    24588173.8734   24588181.9804
     -2106.964       -1641.790
 -19539510.756 9 -15215384.79748  20465538.572    20465540.6194   20465545.5164
      1287.116        1002.948
 -18208750.693 9 -13941014.42547  21735252.846    21735254.0494   21735261.0884
      3053.687        2379.496
  -7903337.912 9  -6142334.84646  23380086.189    23380087.4164   23380094.5034
      3684.699        2871.194
  -2142972.218 8  -1642005.49246  24321514.492    24321515.5094   24321522.4324
      3174.270        2473.457
  -2545767.014 9  -1971770.14648  21237317.794    21237319.6054   21237324.1154
     -1904.252       -1483.833
 -26802525.622 9 -20866097.63948  20213512.137    20213514.0174   20213520.0064
      2220.511        1730.268
  -2303994.893 9  -1775336.10848  21488418.674    21488420.1374   21488426.4664
     -2369.648       -1846.479
 96 12 12 18 56 59.9980000  0  8  1 29 22 16 18 25 14 15            -0.001964047
  17629899.464 9  13731634.26246  24600198.693    24600200.1934   24600208.3854
     -2105.946       -1640.997
 -19578034.003 9 -15245402.90548  20458207.868    20458209.8934   20458214.7904
      1281.343         998.449
 -18300204.427 9 -14012276.98047  21717850.016    21717850.9414   21717857.9914
      3043.360        2371.449
  -8013843.943 9  -6228443.39646  23359057.407    23359058.7934   23359065.9904
      3682.655        2869.601
  -2238181.955 9  -1716194.86646  24303396.644    24303397.7504   24303404.6914
      3173.220        2472.639
  -2488506.402 9  -1927151.50948  21248214.127    21248215.9504   21248220.4754
     -1912.981       -1490.635
 -26868952.733 9 -20917859.01148  20200871.446    20200873.3404   20200879.3204
      2208.201        1720.676
  -2232727.409 9  -1719803.05448  21501980.457    21501981.8954   21501988.2274
     -2381.239       -1855.511
 96 12 12 18 57 29.9980000  0  8  1 29 22 16 18 25 14 15            -0.001972337
  17693061.215 9  13780851.19346  24612218.098    24612219.4374   24612227.8784
     -2104.839       -1640.134
 -19616391.271 9 -15275291.68048  20450908.711    20450910.7374   20450915.6264
      1275.893         994.202
 -18391350.683 9 -14083299.94147  21700505.584    21700506.3894   21700513.3774
      3032.993        2363.371
  -8124294.878 9  -6314509.02246  23338039.237    23338040.6554   23338047.9464
      3680.768        2868.131
  -2333368.264 8  -1790365.99146  24285283.206    24285284.4734   24285291.4174
      3172.630        2472.179
  -2430983.565 9  -1882328.53648  21259160.300    21259162.1774   21259166.7064
     -1921.865       -1497.557
 -26935016.199 9 -20969337.02748  20188300.016    20188301.8724   20188307.8384
      2196.054        1711.211
  -2161118.333 9  -1664003.81848  21515607.158    21515608.6674   21515615.0334
     -2392.608       -1864.370
 96 12 12 18 57 59.9980000  0  8  1 29 22 16 18 25 14 15            -0.001980638
  17756184.609 9  13830038.25546  24624230.290    24624231.4694   24624239.9844
     -2103.796       -1639.322
 -19654599.900 9 -15305064.63548  20443637.873    20443639.8814   20443644.7514
      1271.133         990.493
 -18482193.626 9 -14154086.54547  21683218.655    21683219.4714   21683226.4624
      3022.949        2355.545
  -8234698.683 9  -6400537.92947  23317030.273    23317031.4724   23317038.8424
      3679.065        2866.804
  -2428550.001 8  -1864533.59146  24267170.888    24267172.0084   24267178.9864
      3172.469        2472.054
  -2373202.070 9  -1837304.01248  21270155.751    21270157.6364   21270162.1654
     -1930.527       -1504.307
 -27000722.519 9 -21020536.75148  20175796.536    20175798.4034   20175804.3254
      2184.089        1701.888
  -2089181.795 9  -1607949.41848  21529296.219    21529297.7834   21529304.1494
     -2403.357       -1872.746
 96 12 12 18 58 29.9980000  0  8  1 29 22 16 18 25 14 15            -0.001988934
  17819306.576 9  13879224.18546  24636242.335    24636243.2924   24636251.8684
     -2104.516       -1639.883
 -19692649.741 9 -15334713.85448  20436397.243    20436399.2484   20436404.1044
      1265.147         985.829
 -18572727.286 9 -14224632.15247  21665990.611    21665991.4184   21665998.3984
      3012.259        2347.215
  -8345027.554 9  -6486508.45747  23296035.443    23296036.6074   23296043.9694
      3675.959        2864.384
  -2523714.055 8  -1938687.39546  24249062.018    24249062.7774   24249069.8454
      3171.545        2471.334
  -2315140.865 9  -1792061.52548  21281204.483    21281206.3044   21281210.8164
     -1940.463       -1512.049
 -27066051.747 9 -21071442.63049  20163364.857    20163366.6914   20163372.5974
      2170.925        1691.630
  -2016911.994 9  -1551635.32648  21543048.850    21543050.3624   21543056.6874
     -2414.920       -1881.756
 96 12 12 18 58 59.9980000  0  8  1 29 22 16 18 25 14 15            -0.001997225
  17882450.699 8  13928427.34945  24648258.285    24648259.3304   24648267.7344
     -2105.407       -1640.577
 -19730515.080 9 -15364219.30948  20429191.764    20429193.7274   20429198.5634
      1259.027         981.060
 -18662941.462 9 -14294928.80047  21648823.054    21648824.1674   21648831.0704
      3001.722        2339.004
  -8455268.989 9  -6572410.85847  23275057.247    23275058.4054   23275065.7204
      3673.319        2862.326
  -2618848.205 8  -2012817.91746  24230958.155    24230959.3414   24230966.2654
      3170.733        2470.701
  -2256786.236 9  -1746590.39648  21292309.056    21292310.8494   21292315.3224
     -1950.094       -1519.554
 -27130989.328 9 -21122043.33748  20151007.642    20151009.5024   20151015.3974
      2157.906        1681.485
  -1944299.296 9  -1495054.04748  21556866.670    21556868.1574   21556874.4774
     -2426.104       -1890.471
 96 12 12 18 59 29.9980000  0  8  1 29 22 16 18 25 14 15            -0.002005519
  17945628.889 8  13977657.14445  24660280.493    24660281.7954   24660290.1434
     -2106.413       -1641.361
 -19768195.080 9 -15393580.34348  20422021.416    20422023.4344   20422028.3154
      1253.116         976.454
 -18752837.398 9 -14364977.47247  21631716.146    21631717.4704   21631724.2744
      2991.295        2330.879
  -8565429.883 9  -6658250.49747  23254094.281    23254095.4744   23254102.7724
      3670.713        2860.296
  -2713956.737 8  -2086928.47446  24212859.360    24212860.8154   24212867.6924
      3170.005        2470.134
  -2198140.030 9  -1700892.05948  21303469.009    21303470.8654   21303475.3194
     -1959.618       -1526.975
 -27195528.558 9 -21172333.63748  20138726.182    20138728.0764   20138733.9904
      2144.757        1671.239
  -1871352.671 9  -1438212.56148  21570748.013    21570749.4724   21570755.8444
     -2436.932       -1898.908
 96 12 12 18 59 59.9970000  0  7 29 22 16 18 25 14 15               -0.002013818
 -19805707.916 9 -15422811.12048  20414882.979    20414884.9554   20414889.8684
      1247.835         972.339
 -18842410.738 9 -14434774.76847  21614670.758    21614672.1444   21614678.8894
      2980.372        2322.368
  -8675518.993 9  -6744034.19647  23233145.022    23233146.2214   23233153.5034
      3668.817        2858.818
  -2809043.187 9  -2161021.81746  24194764.908    24194766.4074   24194773.4684
      3169.224        2469.525
  -2139207.405 9  -1654970.53948  21314683.594    21314685.3734   21314689.8224
     -1969.232       -1534.466
 -27259674.330 9 -21222317.34548  20126519.654    20126521.5394   20126527.4274
      2131.843        1661.176
  -1798087.556 9  -1381122.89448  21584689.844    21584691.3854   21584697.7794
     -2447.530       -1907.166
 96 12 12 19  0 29.9970000  0  7 29 22 16 18 25 14 15               -0.002022108
 -19843043.164 9 -15451903.51948  20407778.331    20407780.2644   20407785.2054
      1241.797         967.634
 -18931626.405 9 -14504293.36247  21597693.631    21597694.8554   21597701.5814
      2967.813        2312.582
  -8785536.703 9  -6829762.26147  23212209.277    23212210.5244   23212217.8854
      3666.340        2856.888
  -2904085.718 8  -2235080.93446  24176679.047    24176680.3934   24176687.4384
      3167.427        2468.125
  -2079971.671 9  -1608812.82448  21325955.688    21325957.5014   21325961.9784
     -1979.231       -1542.258
 -27323422.580 9 -21271991.29548  20114388.729    20114390.6364   20114396.5124
      2118.669        1650.911
  -1724484.350 9  -1323769.78448  21598696.086    21598697.6204   21598704.0334
     -2458.753       -1915.911
 96 12 12 19  0 59.9970000  0  7 29 22 16 18 25 14 15               -0.002030391
 -19880217.474 9 -15480870.51349  20400704.322    20400706.2524   20400711.1974
      1236.754         963.704
 -19020465.502 9 -14573518.53347  21580787.965    21580789.2534   21580795.9234
      2954.944        2302.554
  -8895500.409 9  -6915448.23847  23191283.718    23191285.0614   23191292.4954
      3664.693        2855.605
  -2999091.166 8  -2309111.15146  24158599.955    24158601.3714   24158608.6604
      3166.486        2467.392
  -2020448.106 9  -1562430.82948  21337282.655    21337284.4554   21337288.9314
     -1988.787       -1549.704
 -27386796.487 9 -21321373.54948  20102329.065    20102330.9914   20102336.8284
      2106.384        1641.338
  -1650564.225 9  -1266169.72148  21612762.655    21612764.1744   21612770.6374
     -2469.085       -1923.962
 96 12 12 19  1 29.9970000  0  7 29 22 16 18 25 14 15               -0.002038657
 -19917250.962 9 -15509727.77549  20393657.108    20393659.0474   20393664.0034
      1232.165         960.129
 -19108918.900 9 -14642443.17547  21563955.711    21563957.0474   21563963.6474
      2942.119        2292.560
  -9005413.011 9  -7001094.38247  23170368.107    23170369.3714   23170376.7884
      3662.828        2854.152
  -3094071.826 9  -2383122.05646  24140525.819    24140527.1734   24140534.5814
      3165.809        2466.864
  -1960646.734 9  -1515832.35848  21348662.329    21348664.2784   21348668.7684
     -1997.859       -1556.773
 -27449810.837 9 -21370475.63048  20090337.899    20090339.7524   20090345.5744
      2094.764        1632.284
  -1576339.701 9  -1208332.47147  21626887.129    21626888.6404   21626895.1724
     -2479.126       -1931.786
 96 12 12 19  1 59.9970000  0  7 29 22 16 18 25 14 15               -0.002046895
 -19954124.071 9 -15538460.07149  20386640.426    20386642.3404   20386647.3034
      1226.600         955.792
 -19196977.354 9 -14711060.07147  21547198.704    21547200.0274   21547206.5224
      2929.253        2282.535
  -9115257.217 9  -7086687.24147  23149465.400    23149466.7164   23149474.0614
      3660.841        2852.603
  -3189020.560 9  -2457108.07646  24122457.648    24122459.0444   24122466.4874
      3164.843        2466.111
  -1900562.675 9  -1469013.61648  21360096.009    21360097.9114   21360102.4174
     -2006.864       -1563.790
 -27512465.127 9 -21419297.14948  20078415.166    20078417.0224   20078422.8534
      2082.858        1623.006
  -1501801.758 9  -1150251.01248  21641071.138    21641072.7344   21641079.3224
     -2489.357       -1939.759
 96 12 12 19  2 29.9970000  0  7 29 22 16 18 25 14 15               -0.002055121
 -19990816.821 9 -15567051.82149  20379658.020    20379659.9304   20379664.8974
      1220.165         950.778
 -19284654.883 9 -14779380.13547  21530514.104    21530515.4604   21530521.9464
      2916.640        2272.706
  -9225031.091 9  -7172225.28247  23128576.173    23128577.4844   23128584.7734
      3658.046        2850.425
  -3283935.045 9  -2531067.39746  24104396.115    24104397.3664   24104404.8574
      3163.522        2465.082
  -1840216.002 9  -1421990.23848  21371579.650    21371581.4934   21371586.0104
     -2015.642       -1570.630
 -27574758.951 9 -21467837.78748  20066561.053    20066562.9114   20066568.6954
      2070.522        1613.394
  -1426957.174 9  -1091930.60648  21655313.632    21655315.1934   21655321.8244
     -2499.692       -1947.812
 96 12 12 19  2 59.9970000  0  7 29 22 16 18 25 14 15               -0.002063352
 -20027323.060 9 -15595498.24549  20372711.075    20372713.0114   20372717.9524
      1213.956         945.940
 -19371972.212 9 -14847419.54047  21513898.206    21513899.4704   21513905.8924
      2905.110        2263.722
  -9334731.928 9  -7257706.40646  23107700.585    23107702.0594   23107709.3864
      3655.628        2848.541
  -3378825.592 9  -2605008.06846  24086338.907    24086340.2604   24086347.8364
      3162.986        2464.664
  -1779619.112 9  -1374771.88748  21383110.728    21383112.6824   21383117.2224
     -2023.576       -1576.812
 -27636680.836 9 -21516088.60248  20054777.703    20054779.5434   20054785.3144
      2057.931        1603.582
  -1351812.832 9  -1033376.62347  21669613.168    21669614.7244   21669621.3514
     -2509.520       -1955.470
 96 12 12 19  3 29.9970000  0  7 29 22 16 18 25 14 15               -0.002071603
 -20063632.104 9 -15623791.00949  20365801.644    20365803.6184   20365808.5814
      1206.567         940.182
 -19458955.571 9 -14915198.70947  21497345.866    21497347.0104   21497353.4104
      2893.666        2254.805
  -9444353.327 9  -7343125.64246  23086840.300    23086841.7784   23086849.1424
      3652.174        2845.850
  -3473690.456 9  -2678928.69746  24068286.695    24068288.0584   24068295.8334
      3161.175        2463.253
  -1718789.162 9  -1327371.93148  21394686.372    21394688.2574   21394692.8094
     -2032.002       -1583.378
 -27698213.957 9 -21564036.48748  20043068.337    20043070.1514   20043075.9214
      2044.081        1592.790
  -1276371.289 9   -974591.05047  21683969.057    21683970.7864   21683977.4414
     -2520.092       -1963.708
 96 12 12 19  3 59.9970000  0  7 29 22 16 18 25 14 15               -0.002079889
 -20099751.948 9 -15651936.34149  20358928.324    20358930.2664   20358935.2284
      1201.319         936.093
 -19545622.526 9 -14982731.34148  21480853.605    21480854.7454   21480861.1314
      2883.672        2247.017
  -9553899.699 9  -7428486.39646  23065994.190    23065995.7534   23066003.0754
      3650.669        2844.677
  -3568526.742 9  -2752827.07046  24050240.038    24050241.3144   24050248.9454
      3160.897        2463.037
  -1657727.369 9  -1279791.32448  21406305.983    21406307.9484   21406312.4934
     -2039.023       -1588.849
 -27759345.218 9 -21611671.23348  20031435.407    20031437.2404   20031443.0114
      2031.036        1582.625
  -1200639.406 9   -915579.24347  21698380.410    21698382.0934   21698388.8354
     -2528.956       -1970.615
 96 12 12 19  4 29.9970000  0  7 29 22 16 18 25 14 15               -0.002088207
 -20135704.396 9 -15679951.23349  20352086.768    20352088.7304   20352093.7244
      1195.801         931.793
 -19631958.097 9 -15050005.76148  21464424.468    21464425.5744   21464431.9344
      2872.211        2238.086
  -9663374.407 9  -7513791.32646  23045161.837    23045163.3604   23045170.6764
      3647.727        2842.385
  -3663338.191 9  -2826706.08946  24032197.860    24032199.2794   24032206.9564
      3160.066        2462.389
  -1596428.461 9  -1232025.95648  21417970.766    21417972.7374   21417977.2834
     -2047.442       -1595.409
 -27820055.982 9 -21658978.31748  20019882.526    20019884.3514   20019890.0944
      2016.425        1571.240
  -1124618.332 9   -856342.09047  21712846.791    21712848.4784   21712855.2014
     -2538.949       -1978.402
 96 12 12 19  4 59.9970000  0  7 29 22 16 18 25 14 15               -0.002096547
 -20171503.409 9 -15707846.56549  20345274.406    20345276.4104   20345281.4134
      1190.950         928.013
 -19717952.476 9 -15117014.31848  21448060.205    21448061.3064   21448067.6744
      2860.761        2229.164
  -9772763.315 9  -7599029.39346  23024345.687    23024347.2734   23024354.6104
      3644.997        2840.257
  -3758125.130 9  -2900565.99946  24014160.503    24014161.8544   24014169.5184
      3159.268        2461.767
  -1534878.614 9  -1184065.05248  21429683.315    21429685.3034   21429689.8374
     -2055.753       -1601.885
 -27880328.606 9 -21705943.99248  20008413.004    20008414.8274   20008420.5604
      2002.105        1560.082
  -1048304.552 9   -796876.85447  21727368.858    21727370.5044   21727377.2334
     -2548.488       -1985.835
 96 12 12 19  5 29.9970000  0  7 29 22 16 18 25 14 15               -0.002104894
 -20207162.306 9 -15735632.71449  20338488.769    20338490.7434   20338495.7574
      1186.270         924.366
 -19803599.404 9 -15183752.14148  21431762.104    21431763.1844   21431769.5294
      2848.745        2219.801
  -9882070.104 9  -7684203.47046  23003545.391    23003546.8634   23003554.1984
      3642.082        2837.986
  -3852887.510 9  -2974406.80046  23996127.938    23996129.1844   23996136.9284
      3158.249        2460.973
  -1473076.414 9  -1135907.50348  21441443.893    21441445.8964   21441450.4424
     -2064.561       -1608.749
 -27940183.762 9 -21752584.37048  19997022.981    19997024.7564   19997030.4814
      1988.152        1549.209
   -971706.098 9   -737189.79247  21741945.002    21741946.7274   21741953.4044
     -2558.174       -1993.382
 96 12 12 19  5 59.9970000  0  7 29 22 16 18 25 14 15               -0.002113199
 -20242680.492 9 -15763309.22149  20331729.833    20331731.8574   20331736.8934
      1181.409         920.578
 -19888867.236 9 -15250194.57248  21415536.060    21415537.2214   21415543.5454
      2835.738        2209.666
  -9991285.990 9  -7769306.71746  22982762.126    22982763.7144   22982771.0114
      3639.013        2835.595
  -3947626.685 9  -3048229.51146  23978099.647    23978100.8094   23978108.5224
      3157.642        2460.500
  -1411006.404 9  -1087541.27848  21453255.517    21453257.4514   21453262.0544
     -2073.347       -1615.595
 -27999621.510 9 -21798899.49748  19985712.338    19985714.1314   19985719.8424
      1974.502        1538.573
   -894815.129 9   -677274.80347  21756576.975    21756578.5904   21756585.2644
     -2567.859       -2000.929
 96 12 12 19  6 29.9970000  0  7 29 22 16 18 25 14 15               -0.002121513
 -20278054.418 9 -15790873.31249  20324998.456    20325000.4374   20325005.4384
      1176.476         916.735
 -19973754.021 9 -15316340.08548  21399382.662    21399383.7514   21399390.0744
      2823.148        2199.856
 -10100413.988 9  -7854341.47246  22961995.848    22961997.2794   22962004.5714
      3635.944        2833.203
  -4042356.052 9  -3122044.57845  23960073.333    23960074.4374   23960082.1194
      3157.337        2460.263
  -1348688.383 9  -1038981.80248  21465114.278    21465116.2444   21465120.8634
     -2081.408       -1621.876
 -28058672.402 9 -21844913.17548  19974475.309    19974477.1074   19974482.7994
      1961.929        1528.776
   -817646.012 9   -617143.08147  21771261.800    21771263.4434   21771270.0574
     -2577.005       -2008.056
 96 12 12 19  6 59.9970000  0  7 29 22 16 18 25 14 15               -0.002129815
 -20313271.882 9 -15818315.48049  20318296.854    20318298.7694   20318303.7504
      1170.744         912.268
 -20058262.808 9 -15382191.06048  21383301.119    21383302.2394   21383308.5624
      2810.113        2189.698
 -10209453.000 9  -7939306.89646  22941246.524    22941247.7974   22941255.0574
      3632.840        2830.784
  -4137069.490 9  -3195847.23745  23942049.813    23942050.9614   23942058.4964
      3156.411        2459.541
  -1286130.261 9   -990235.23548  21477018.836    21477020.7024   21477025.3064
     -2089.619       -1628.274
 -28117354.902 9 -21890639.79848  19963308.325    19963310.1884   19963315.8804
      1949.720        1519.262
   -740202.414 9   -556797.47647  21785998.964    21786000.5194   21786007.1134
     -2586.401       -2015.377
 96 12 12 19  7 29.9970000  0  7 29 22 16 18 25 14 15               -0.002138102
 -20348319.937 9 -15845625.64348  20311627.335    20311629.3244   20311634.3124
      1165.977         908.554
 -20142379.758 9 -15447736.71848  21367294.107    21367295.2624   21367301.5994
      2797.750        2180.065
 -10318402.408 9  -8024202.48947  22920513.951    22920515.3164   22920522.6044
      3630.597        2829.037
  -4231768.845 9  -3269638.93746  23924029.214    23924030.2724   23924037.6524
      3157.090        2460.070
  -1223334.371 9   -941303.39548  21488968.358    21488970.3704   21488974.9944
     -2096.533       -1633.662
 -28175676.049 9 -21936084.84548  19952210.115    19952212.0354   19952217.7254
      1938.301        1510.364
   -662482.547 9   -496236.59047  21800788.723    21800790.2014   21800796.7154
     -2594.741       -2021.876
 96 12 12 19  7 59.9970000  0  7 29 22 16 18 25 14 15               -0.002146393
 -20383216.815 9 -15872817.99949  20304986.652    20304988.6714   20304993.6584
      1160.156         904.018
 -20226115.462 9 -15512985.29748  21351359.747    21351360.8874   21351367.1934
      2784.444        2169.697
 -10427277.411 9  -8109040.10747  22899795.511    22899797.0044   22899804.2214
      3627.472        2826.602
  -4326483.823 9  -3343442.80546  23906005.410    23906006.5434   23906013.9094
      3156.835        2459.871
  -1160331.873 9   -892210.55248  21500957.474    21500959.3534   21500964.0294
     -2103.994       -1639.476
 -28233647.605 9 -21981257.47748  19941178.497    19941180.3754   19941186.0924
      1926.069        1500.833
   -584510.669 9   -435479.32747  21815626.351    21815627.8204   21815634.2674
     -2603.638       -2028.809
 96 12 12 19  8 29.9970000  0  7 29 22 16 18 25 14 15               -0.002154678
 -20417936.494 9 -15899872.27648  20298379.773    20298381.7244   20298386.7294
      1154.723         899.784
 -20309452.409 9 -15577923.16048  21335501.298    21335502.3514   21335508.6814
      2771.560        2159.657
 -10536059.964 9  -8193805.69047  22879094.496    22879096.2714   22879103.5364
      3624.735        2824.469
  -4421187.151 9  -3417237.60746  23887984.051    23887985.0374   23887992.5194
      3156.919        2459.937
  -1097100.525 9   -842939.38748  21512989.839    21512991.8734   21512996.6044
     -2111.331       -1645.193
 -28291240.688 9 -22026135.20148  19930218.854    19930220.7614   19930226.4664
      1913.424        1490.980
   -506270.775 9   -374513.23247  21830515.017    21830516.4624   21830522.8494
     -2612.140       -2035.434
 96 12 12 19  8 59.9970000  0  7 29 22 16 18 25 14 15               -0.002162960
 -20452468.375 9 -15926780.22449  20291808.558    20291810.5274   20291815.5374
      1147.797         894.387
 -20392382.697 9 -15642544.14648  21319720.136    21319721.2034   21319727.5464
      2757.466        2148.675
 -10644736.444 9  -8278488.61847  22858414.300    22858415.8654   22858423.0074
      3620.762        2821.373
  -4515875.565 9  -3491020.79246  23869965.439    23869966.4534   23869973.9034
      3156.021        2459.237
  -1033625.189 9   -793478.10048  21525068.826    21525070.8204   21525075.6194
     -2119.906       -1651.875
 -28348418.332 9 -22070689.19848  19919338.328    19919340.1914   19919345.8904
      1898.900        1479.662
   -427758.438 9   -313334.83847  21845455.377    21845456.9314   21845463.2704
     -2621.527       -2042.748
